<?xml version="1.0" encoding="UTF-8" standalone="no" ?>
<gpx xmlns="http://www.topografix.com/GPX/1/1" xmlns:xsi="http://www.w3.org/2001/XMLSchema-instance" xsi:schemaLocation="http://www.topografix.com/GPX/1/1 http://www.topografix.com/GPX/1/1/gpx.xsd" version="1.1" creator="VisuGPX - https://www.visugpx.com">
  <metadata>
    <name>TDM 45km 2022 </name>
  </metadata>
  <wpt lat="45.16588" lon="5.63561">
    <ele>1146.3</ele>
  </wpt>
  <wpt lat="45.14943" lon="5.62589">
    <ele>1284.3</ele>
  </wpt>
  <wpt lat="45.13933" lon="5.62726">
    <ele>1609.3</ele>
  </wpt>
  <wpt lat="45.14126" lon="5.62782">
    <ele>1560.4</ele>
  </wpt>
  <wpt lat="45.11408" lon="5.60894">
    <ele>1415.7</ele>
  </wpt>
  <wpt lat="45.09632" lon="5.60943">
    <ele>1605</ele>
  </wpt>
  <wpt lat="45.09188" lon="5.60093">
    <ele>1444.7</ele>
  </wpt>
  <wpt lat="45.07316" lon="5.57922">
    <ele>1169.6</ele>
  </wpt>
  <wpt lat="45.05865" lon="5.57564">
    <ele>1197.7</ele>
  </wpt>
  <wpt lat="45.06382" lon="5.58431">
    <ele>1487.9</ele>
  </wpt>
  <wpt lat="45.08343" lon="5.61336">
    <ele>1734.6</ele>
  </wpt>
  <wpt lat="45.08977" lon="5.61958">
    <ele>1934.9</ele>
  </wpt>
  <wpt lat="45.08647" lon="5.60489">
    <ele>1501.4</ele>
  </wpt>
  <wpt lat="45.10052" lon="5.61558">
    <ele>1747.3</ele>
  </wpt>
  <wpt lat="45.13525" lon="5.62899">
    <ele>1700.4</ele>
  </wpt>
  <wpt lat="45.14747" lon="5.6393">
    <ele>1877.9</ele>
  </wpt>
  <trk>
    <name><![CDATA[13087731-TDM 45km 2022 ]]></name>
    <extensions>
      <line xmlns="http://www.topografix.com/GPX/gpx_style/0/2">
        <color>0000FF</color>
        <width>4</width>
      </line>
    </extensions>
    <trkseg>
      <trkpt lat="45.16938" lon="5.63019">
        <ele>1169</ele>
        <time>2022-05-16T09:35:28Z</time>
      </trkpt>
      <trkpt lat="45.16928" lon="5.6303">
        <ele>1170</ele>
        <time>2022-05-16T09:35:34Z</time>
      </trkpt>
      <trkpt lat="45.16979" lon="5.6302">
        <ele>1167</ele>
        <time>2022-05-16T09:36:00Z</time>
      </trkpt>
      <trkpt lat="45.17046" lon="5.63002">
        <ele>1164</ele>
        <time>2022-05-16T09:36:34Z</time>
      </trkpt>
      <trkpt lat="45.17051" lon="5.63031">
        <ele>1164</ele>
        <time>2022-05-16T09:36:45Z</time>
      </trkpt>
      <trkpt lat="45.17065" lon="5.63053">
        <ele>1164</ele>
        <time>2022-05-16T09:36:55Z</time>
      </trkpt>
      <trkpt lat="45.1708" lon="5.63067">
        <ele>1163</ele>
        <time>2022-05-16T09:37:04Z</time>
      </trkpt>
      <trkpt lat="45.17095" lon="5.63074">
        <ele>1163</ele>
        <time>2022-05-16T09:37:12Z</time>
      </trkpt>
      <trkpt lat="45.17094" lon="5.63093">
        <ele>1163</ele>
        <time>2022-05-16T09:37:19Z</time>
      </trkpt>
      <trkpt lat="45.17125" lon="5.63156">
        <ele>1165</ele>
        <time>2022-05-16T09:37:46Z</time>
      </trkpt>
      <trkpt lat="45.17124" lon="5.63221">
        <ele>1167</ele>
        <time>2022-05-16T09:38:09Z</time>
      </trkpt>
      <trkpt lat="45.17108" lon="5.6335">
        <ele>1172</ele>
        <time>2022-05-16T09:38:55Z</time>
      </trkpt>
      <trkpt lat="45.17099" lon="5.63446">
        <ele>1171</ele>
        <time>2022-05-16T09:39:29Z</time>
      </trkpt>
      <trkpt lat="45.17095" lon="5.63463">
        <ele>1170</ele>
        <time>2022-05-16T09:39:36Z</time>
      </trkpt>
      <trkpt lat="45.17084" lon="5.63476">
        <ele>1170</ele>
        <time>2022-05-16T09:39:43Z</time>
      </trkpt>
      <trkpt lat="45.17058" lon="5.63486">
        <ele>1174</ele>
        <time>2022-05-16T09:39:56Z</time>
      </trkpt>
      <trkpt lat="45.17024" lon="5.63506">
        <ele>1178</ele>
        <time>2022-05-16T09:40:15Z</time>
      </trkpt>
      <trkpt lat="45.17004" lon="5.63533">
        <ele>1176</ele>
        <time>2022-05-16T09:40:28Z</time>
      </trkpt>
      <trkpt lat="45.16956" lon="5.63615">
        <ele>1161</ele>
        <time>2022-05-16T09:41:06Z</time>
      </trkpt>
      <trkpt lat="45.16949" lon="5.63624">
        <ele>1159</ele>
        <time>2022-05-16T09:41:11Z</time>
      </trkpt>
      <trkpt lat="45.1694" lon="5.6363">
        <ele>1158</ele>
        <time>2022-05-16T09:41:16Z</time>
      </trkpt>
      <trkpt lat="45.16927" lon="5.63633">
        <ele>1158</ele>
        <time>2022-05-16T09:41:22Z</time>
      </trkpt>
      <trkpt lat="45.16905" lon="5.63634">
        <ele>1159</ele>
        <time>2022-05-16T09:41:33Z</time>
      </trkpt>
      <trkpt lat="45.16848" lon="5.63628">
        <ele>1162</ele>
        <time>2022-05-16T09:42:02Z</time>
      </trkpt>
      <trkpt lat="45.16763" lon="5.63639">
        <ele>1158</ele>
        <time>2022-05-16T09:42:45Z</time>
      </trkpt>
      <trkpt lat="45.16711" lon="5.63639">
        <ele>1156</ele>
        <time>2022-05-16T09:43:11Z</time>
      </trkpt>
      <trkpt lat="45.16702" lon="5.63641">
        <ele>1155</ele>
        <time>2022-05-16T09:43:15Z</time>
      </trkpt>
      <trkpt lat="45.16702" lon="5.63643">
        <ele>1155</ele>
        <time>2022-05-16T09:43:16Z</time>
      </trkpt>
      <trkpt lat="45.16692" lon="5.63636">
        <ele>1156</ele>
        <time>2022-05-16T09:43:22Z</time>
      </trkpt>
      <trkpt lat="45.1668" lon="5.63634">
        <ele>1156</ele>
        <time>2022-05-16T09:43:28Z</time>
      </trkpt>
      <trkpt lat="45.16637" lon="5.63613">
        <ele>1155</ele>
        <time>2022-05-16T09:43:50Z</time>
      </trkpt>
      <trkpt lat="45.16587" lon="5.6355">
        <ele>1161</ele>
        <time>2022-05-16T09:44:24Z</time>
      </trkpt>
      <trkpt lat="45.16621" lon="5.63569">
        <ele>1161</ele>
        <time>2022-05-16T09:44:42Z</time>
      </trkpt>
      <trkpt lat="45.16634" lon="5.63573">
        <ele>1163</ele>
        <time>2022-05-16T09:44:49Z</time>
      </trkpt>
      <trkpt lat="45.16618" lon="5.63544">
        <ele>1169</ele>
        <time>2022-05-16T09:45:02Z</time>
      </trkpt>
      <trkpt lat="45.166" lon="5.63519">
        <ele>1174</ele>
        <time>2022-05-16T09:45:14Z</time>
      </trkpt>
      <trkpt lat="45.16596" lon="5.6349">
        <ele>1183</ele>
        <time>2022-05-16T09:45:25Z</time>
      </trkpt>
      <trkpt lat="45.16611" lon="5.63501">
        <ele>1182</ele>
        <time>2022-05-16T09:45:33Z</time>
      </trkpt>
      <trkpt lat="45.16641" lon="5.63513">
        <ele>1184</ele>
        <time>2022-05-16T09:45:49Z</time>
      </trkpt>
      <trkpt lat="45.16648" lon="5.63531">
        <ele>1179</ele>
        <time>2022-05-16T09:45:56Z</time>
      </trkpt>
      <trkpt lat="45.16641" lon="5.63513">
        <ele>1184</ele>
        <time>2022-05-16T09:46:03Z</time>
      </trkpt>
      <trkpt lat="45.16613" lon="5.63473">
        <ele>1192</ele>
        <time>2022-05-16T09:46:23Z</time>
      </trkpt>
      <trkpt lat="45.1659" lon="5.63427">
        <ele>1207</ele>
        <time>2022-05-16T09:46:43Z</time>
      </trkpt>
      <trkpt lat="45.16568" lon="5.63407">
        <ele>1213</ele>
        <time>2022-05-16T09:46:56Z</time>
      </trkpt>
      <trkpt lat="45.16555" lon="5.634">
        <ele>1216</ele>
        <time>2022-05-16T09:47:03Z</time>
      </trkpt>
      <trkpt lat="45.16542" lon="5.63398">
        <ele>1218</ele>
        <time>2022-05-16T09:47:10Z</time>
      </trkpt>
      <trkpt lat="45.16528" lon="5.634">
        <ele>1218</ele>
        <time>2022-05-16T09:47:17Z</time>
      </trkpt>
      <trkpt lat="45.16504" lon="5.63408">
        <ele>1218</ele>
        <time>2022-05-16T09:47:29Z</time>
      </trkpt>
      <trkpt lat="45.16496" lon="5.63402">
        <ele>1222</ele>
        <time>2022-05-16T09:47:34Z</time>
      </trkpt>
      <trkpt lat="45.16495" lon="5.63398">
        <ele>1224</ele>
        <time>2022-05-16T09:47:35Z</time>
      </trkpt>
      <trkpt lat="45.16498" lon="5.63393">
        <ele>1224</ele>
        <time>2022-05-16T09:47:37Z</time>
      </trkpt>
      <trkpt lat="45.16553" lon="5.63351">
        <ele>1230</ele>
        <time>2022-05-16T09:48:09Z</time>
      </trkpt>
      <trkpt lat="45.16599" lon="5.63283">
        <ele>1227</ele>
        <time>2022-05-16T09:48:42Z</time>
      </trkpt>
      <trkpt lat="45.1649" lon="5.63241">
        <ele>1252</ele>
        <time>2022-05-16T09:49:38Z</time>
      </trkpt>
      <trkpt lat="45.16473" lon="5.63229">
        <ele>1255</ele>
        <time>2022-05-16T09:49:48Z</time>
      </trkpt>
      <trkpt lat="45.1644" lon="5.6319">
        <ele>1258</ele>
        <time>2022-05-16T09:50:09Z</time>
      </trkpt>
      <trkpt lat="45.16428" lon="5.6318">
        <ele>1261</ele>
        <time>2022-05-16T09:50:16Z</time>
      </trkpt>
      <trkpt lat="45.16409" lon="5.63173">
        <ele>1265</ele>
        <time>2022-05-16T09:50:26Z</time>
      </trkpt>
      <trkpt lat="45.16396" lon="5.63163">
        <ele>1267</ele>
        <time>2022-05-16T09:50:34Z</time>
      </trkpt>
      <trkpt lat="45.1633" lon="5.63105">
        <ele>1272</ele>
        <time>2022-05-16T09:51:12Z</time>
      </trkpt>
      <trkpt lat="45.16296" lon="5.63087">
        <ele>1274</ele>
        <time>2022-05-16T09:51:31Z</time>
      </trkpt>
      <trkpt lat="45.16275" lon="5.63081">
        <ele>1276</ele>
        <time>2022-05-16T09:51:41Z</time>
      </trkpt>
      <trkpt lat="45.16218" lon="5.63057">
        <ele>1276</ele>
        <time>2022-05-16T09:52:11Z</time>
      </trkpt>
      <trkpt lat="45.16158" lon="5.63027">
        <ele>1273</ele>
        <time>2022-05-16T09:52:43Z</time>
      </trkpt>
      <trkpt lat="45.16124" lon="5.62989">
        <ele>1272</ele>
        <time>2022-05-16T09:53:05Z</time>
      </trkpt>
      <trkpt lat="45.16107" lon="5.62955">
        <ele>1274</ele>
        <time>2022-05-16T09:53:19Z</time>
      </trkpt>
      <trkpt lat="45.16099" lon="5.62845">
        <ele>1272</ele>
        <time>2022-05-16T09:53:58Z</time>
      </trkpt>
      <trkpt lat="45.1608" lon="5.62779">
        <ele>1275</ele>
        <time>2022-05-16T09:54:24Z</time>
      </trkpt>
      <trkpt lat="45.16046" lon="5.62578">
        <ele>1267</ele>
        <time>2022-05-16T09:55:36Z</time>
      </trkpt>
      <trkpt lat="45.16031" lon="5.62544">
        <ele>1266</ele>
        <time>2022-05-16T09:55:51Z</time>
      </trkpt>
      <trkpt lat="45.15995" lon="5.62491">
        <ele>1270</ele>
        <time>2022-05-16T09:56:17Z</time>
      </trkpt>
      <trkpt lat="45.15933" lon="5.62384">
        <ele>1279</ele>
        <time>2022-05-16T09:57:05Z</time>
      </trkpt>
      <trkpt lat="45.15914" lon="5.62347">
        <ele>1276</ele>
        <time>2022-05-16T09:57:22Z</time>
      </trkpt>
      <trkpt lat="45.15896" lon="5.62319">
        <ele>1270</ele>
        <time>2022-05-16T09:57:35Z</time>
      </trkpt>
      <trkpt lat="45.15878" lon="5.62304">
        <ele>1268</ele>
        <time>2022-05-16T09:57:45Z</time>
      </trkpt>
      <trkpt lat="45.15845" lon="5.62304">
        <ele>1271</ele>
        <time>2022-05-16T09:58:02Z</time>
      </trkpt>
      <trkpt lat="45.15822" lon="5.62309">
        <ele>1273</ele>
        <time>2022-05-16T09:58:14Z</time>
      </trkpt>
      <trkpt lat="45.15772" lon="5.62313">
        <ele>1269</ele>
        <time>2022-05-16T09:58:39Z</time>
      </trkpt>
      <trkpt lat="45.15741" lon="5.62318">
        <ele>1266</ele>
        <time>2022-05-16T09:58:54Z</time>
      </trkpt>
      <trkpt lat="45.1571" lon="5.62329">
        <ele>1262</ele>
        <time>2022-05-16T09:59:10Z</time>
      </trkpt>
      <trkpt lat="45.15696" lon="5.62339">
        <ele>1262</ele>
        <time>2022-05-16T09:59:18Z</time>
      </trkpt>
      <trkpt lat="45.15674" lon="5.62362">
        <ele>1264</ele>
        <time>2022-05-16T09:59:32Z</time>
      </trkpt>
      <trkpt lat="45.1565" lon="5.62392">
        <ele>1264</ele>
        <time>2022-05-16T09:59:48Z</time>
      </trkpt>
      <trkpt lat="45.15632" lon="5.62429">
        <ele>1268</ele>
        <time>2022-05-16T10:00:04Z</time>
      </trkpt>
      <trkpt lat="45.15551" lon="5.62569">
        <ele>1283</ele>
        <time>2022-05-16T10:01:08Z</time>
      </trkpt>
      <trkpt lat="45.15504" lon="5.62675">
        <ele>1294</ele>
        <time>2022-05-16T10:01:52Z</time>
      </trkpt>
      <trkpt lat="45.15501" lon="5.62689">
        <ele>1296</ele>
        <time>2022-05-16T10:01:57Z</time>
      </trkpt>
      <trkpt lat="45.155" lon="5.62718">
        <ele>1300</ele>
        <time>2022-05-16T10:02:07Z</time>
      </trkpt>
      <trkpt lat="45.15493" lon="5.62742">
        <ele>1303</ele>
        <time>2022-05-16T10:02:16Z</time>
      </trkpt>
      <trkpt lat="45.15484" lon="5.62754">
        <ele>1305</ele>
        <time>2022-05-16T10:02:22Z</time>
      </trkpt>
      <trkpt lat="45.15476" lon="5.6276">
        <ele>1306</ele>
        <time>2022-05-16T10:02:27Z</time>
      </trkpt>
      <trkpt lat="45.15457" lon="5.62768">
        <ele>1307</ele>
        <time>2022-05-16T10:02:37Z</time>
      </trkpt>
      <trkpt lat="45.15434" lon="5.62772">
        <ele>1306</ele>
        <time>2022-05-16T10:02:49Z</time>
      </trkpt>
      <trkpt lat="45.15384" lon="5.62763">
        <ele>1307</ele>
        <time>2022-05-16T10:03:14Z</time>
      </trkpt>
      <trkpt lat="45.15371" lon="5.62756">
        <ele>1306</ele>
        <time>2022-05-16T10:03:21Z</time>
      </trkpt>
      <trkpt lat="45.15362" lon="5.62745">
        <ele>1305</ele>
        <time>2022-05-16T10:03:27Z</time>
      </trkpt>
      <trkpt lat="45.15341" lon="5.62689">
        <ele>1298</ele>
        <time>2022-05-16T10:03:49Z</time>
      </trkpt>
      <trkpt lat="45.15333" lon="5.62678">
        <ele>1297</ele>
        <time>2022-05-16T10:03:55Z</time>
      </trkpt>
      <trkpt lat="45.15324" lon="5.6267">
        <ele>1297</ele>
        <time>2022-05-16T10:04:00Z</time>
      </trkpt>
      <trkpt lat="45.15301" lon="5.62657">
        <ele>1298</ele>
        <time>2022-05-16T10:04:12Z</time>
      </trkpt>
      <trkpt lat="45.1528" lon="5.62634">
        <ele>1297</ele>
        <time>2022-05-16T10:04:26Z</time>
      </trkpt>
      <trkpt lat="45.15265" lon="5.62609">
        <ele>1296</ele>
        <time>2022-05-16T10:04:37Z</time>
      </trkpt>
      <trkpt lat="45.15256" lon="5.62599">
        <ele>1296</ele>
        <time>2022-05-16T10:04:43Z</time>
      </trkpt>
      <trkpt lat="45.15246" lon="5.62593">
        <ele>1295</ele>
        <time>2022-05-16T10:04:48Z</time>
      </trkpt>
      <trkpt lat="45.15195" lon="5.62585">
        <ele>1292</ele>
        <time>2022-05-16T10:05:14Z</time>
      </trkpt>
      <trkpt lat="45.1516" lon="5.62574">
        <ele>1289</ele>
        <time>2022-05-16T10:05:32Z</time>
      </trkpt>
      <trkpt lat="45.15145" lon="5.62578">
        <ele>1288</ele>
        <time>2022-05-16T10:05:40Z</time>
      </trkpt>
      <trkpt lat="45.15114" lon="5.62603">
        <ele>1291</ele>
        <time>2022-05-16T10:05:57Z</time>
      </trkpt>
      <trkpt lat="45.15101" lon="5.62601">
        <ele>1290</ele>
        <time>2022-05-16T10:06:04Z</time>
      </trkpt>
      <trkpt lat="45.15074" lon="5.62587">
        <ele>1286</ele>
        <time>2022-05-16T10:06:18Z</time>
      </trkpt>
      <trkpt lat="45.15066" lon="5.62587">
        <ele>1286</ele>
        <time>2022-05-16T10:06:22Z</time>
      </trkpt>
      <trkpt lat="45.15059" lon="5.62589">
        <ele>1286</ele>
        <time>2022-05-16T10:06:26Z</time>
      </trkpt>
      <trkpt lat="45.15048" lon="5.62604">
        <ele>1290</ele>
        <time>2022-05-16T10:06:34Z</time>
      </trkpt>
      <trkpt lat="45.15032" lon="5.62609">
        <ele>1291</ele>
        <time>2022-05-16T10:06:42Z</time>
      </trkpt>
      <trkpt lat="45.14971" lon="5.62603">
        <ele>1290</ele>
        <time>2022-05-16T10:07:12Z</time>
      </trkpt>
      <trkpt lat="45.14963" lon="5.626">
        <ele>1289</ele>
        <time>2022-05-16T10:07:17Z</time>
      </trkpt>
      <trkpt lat="45.14945" lon="5.62585">
        <ele>1284</ele>
        <time>2022-05-16T10:07:27Z</time>
      </trkpt>
      <trkpt lat="45.14919" lon="5.62578">
        <ele>1283</ele>
        <time>2022-05-16T10:07:40Z</time>
      </trkpt>
      <trkpt lat="45.14898" lon="5.62583">
        <ele>1283</ele>
        <time>2022-05-16T10:07:51Z</time>
      </trkpt>
      <trkpt lat="45.14886" lon="5.6259">
        <ele>1284</ele>
        <time>2022-05-16T10:07:57Z</time>
      </trkpt>
      <trkpt lat="45.14861" lon="5.62613">
        <ele>1291</ele>
        <time>2022-05-16T10:08:12Z</time>
      </trkpt>
      <trkpt lat="45.14845" lon="5.62639">
        <ele>1299</ele>
        <time>2022-05-16T10:08:24Z</time>
      </trkpt>
      <trkpt lat="45.14832" lon="5.62651">
        <ele>1302</ele>
        <time>2022-05-16T10:08:32Z</time>
      </trkpt>
      <trkpt lat="45.14791" lon="5.6267">
        <ele>1309</ele>
        <time>2022-05-16T10:08:54Z</time>
      </trkpt>
      <trkpt lat="45.14778" lon="5.62679">
        <ele>1312</ele>
        <time>2022-05-16T10:09:01Z</time>
      </trkpt>
      <trkpt lat="45.14695" lon="5.62752">
        <ele>1337</ele>
        <time>2022-05-16T10:09:50Z</time>
      </trkpt>
      <trkpt lat="45.14685" lon="5.62756">
        <ele>1338</ele>
        <time>2022-05-16T10:09:55Z</time>
      </trkpt>
      <trkpt lat="45.1466" lon="5.62773">
        <ele>1344</ele>
        <time>2022-05-16T10:10:09Z</time>
      </trkpt>
      <trkpt lat="45.14607" lon="5.62793">
        <ele>1357</ele>
        <time>2022-05-16T10:10:36Z</time>
      </trkpt>
      <trkpt lat="45.14535" lon="5.62839">
        <ele>1384</ele>
        <time>2022-05-16T10:11:16Z</time>
      </trkpt>
      <trkpt lat="45.14464" lon="5.62871">
        <ele>1405</ele>
        <time>2022-05-16T10:11:53Z</time>
      </trkpt>
      <trkpt lat="45.14432" lon="5.62889">
        <ele>1413</ele>
        <time>2022-05-16T10:12:10Z</time>
      </trkpt>
      <trkpt lat="45.14424" lon="5.62891">
        <ele>1414</ele>
        <time>2022-05-16T10:12:15Z</time>
      </trkpt>
      <trkpt lat="45.14396" lon="5.62889">
        <ele>1420</ele>
        <time>2022-05-16T10:12:29Z</time>
      </trkpt>
      <trkpt lat="45.14361" lon="5.62891">
        <ele>1431</ele>
        <time>2022-05-16T10:12:46Z</time>
      </trkpt>
      <trkpt lat="45.14337" lon="5.62887">
        <ele>1436</ele>
        <time>2022-05-16T10:12:58Z</time>
      </trkpt>
      <trkpt lat="45.1427" lon="5.62899">
        <ele>1473</ele>
        <time>2022-05-16T10:13:32Z</time>
      </trkpt>
      <trkpt lat="45.14248" lon="5.62897">
        <ele>1483</ele>
        <time>2022-05-16T10:13:43Z</time>
      </trkpt>
      <trkpt lat="45.14201" lon="5.62863">
        <ele>1508</ele>
        <time>2022-05-16T10:14:09Z</time>
      </trkpt>
      <trkpt lat="45.14177" lon="5.62864">
        <ele>1526</ele>
        <time>2022-05-16T10:14:21Z</time>
      </trkpt>
      <trkpt lat="45.14152" lon="5.62859">
        <ele>1546</ele>
        <time>2022-05-16T10:14:34Z</time>
      </trkpt>
      <trkpt lat="45.14108" lon="5.62786">
        <ele>1566</ele>
        <time>2022-05-16T10:15:08Z</time>
      </trkpt>
      <trkpt lat="45.1407" lon="5.62764">
        <ele>1585</ele>
        <time>2022-05-16T10:15:28Z</time>
      </trkpt>
      <trkpt lat="45.1403" lon="5.62762">
        <ele>1596</ele>
        <time>2022-05-16T10:15:49Z</time>
      </trkpt>
      <trkpt lat="45.13986" lon="5.62765">
        <ele>1606</ele>
        <time>2022-05-16T10:16:11Z</time>
      </trkpt>
      <trkpt lat="45.13958" lon="5.62751">
        <ele>1606</ele>
        <time>2022-05-16T10:16:25Z</time>
      </trkpt>
      <trkpt lat="45.13949" lon="5.62744">
        <ele>1606</ele>
        <time>2022-05-16T10:16:31Z</time>
      </trkpt>
      <trkpt lat="45.13939" lon="5.62728">
        <ele>1607</ele>
        <time>2022-05-16T10:16:38Z</time>
      </trkpt>
      <trkpt lat="45.13925" lon="5.62722">
        <ele>1608</ele>
        <time>2022-05-16T10:16:45Z</time>
      </trkpt>
      <trkpt lat="45.13914" lon="5.62707">
        <ele>1609</ele>
        <time>2022-05-16T10:16:53Z</time>
      </trkpt>
      <trkpt lat="45.13879" lon="5.62687">
        <ele>1612</ele>
        <time>2022-05-16T10:17:12Z</time>
      </trkpt>
      <trkpt lat="45.13871" lon="5.62675">
        <ele>1613</ele>
        <time>2022-05-16T10:17:18Z</time>
      </trkpt>
      <trkpt lat="45.13865" lon="5.6263">
        <ele>1616</ele>
        <time>2022-05-16T10:17:34Z</time>
      </trkpt>
      <trkpt lat="45.13871" lon="5.62583">
        <ele>1617</ele>
        <time>2022-05-16T10:17:51Z</time>
      </trkpt>
      <trkpt lat="45.13864" lon="5.62524">
        <ele>1622</ele>
        <time>2022-05-16T10:18:12Z</time>
      </trkpt>
      <trkpt lat="45.13873" lon="5.62478">
        <ele>1613</ele>
        <time>2022-05-16T10:18:29Z</time>
      </trkpt>
      <trkpt lat="45.1388" lon="5.62421">
        <ele>1588</ele>
        <time>2022-05-16T10:18:49Z</time>
      </trkpt>
      <trkpt lat="45.13854" lon="5.62381">
        <ele>1576</ele>
        <time>2022-05-16T10:19:08Z</time>
      </trkpt>
      <trkpt lat="45.13823" lon="5.62363">
        <ele>1586</ele>
        <time>2022-05-16T10:19:25Z</time>
      </trkpt>
      <trkpt lat="45.13776" lon="5.62347">
        <ele>1608</ele>
        <time>2022-05-16T10:19:49Z</time>
      </trkpt>
      <trkpt lat="45.13761" lon="5.62286">
        <ele>1599</ele>
        <time>2022-05-16T10:20:12Z</time>
      </trkpt>
      <trkpt lat="45.13719" lon="5.62261">
        <ele>1609</ele>
        <time>2022-05-16T10:20:35Z</time>
      </trkpt>
      <trkpt lat="45.13687" lon="5.62215">
        <ele>1603</ele>
        <time>2022-05-16T10:20:58Z</time>
      </trkpt>
      <trkpt lat="45.13661" lon="5.62159">
        <ele>1604</ele>
        <time>2022-05-16T10:21:21Z</time>
      </trkpt>
      <trkpt lat="45.1362" lon="5.62036">
        <ele>1585</ele>
        <time>2022-05-16T10:22:09Z</time>
      </trkpt>
      <trkpt lat="45.13594" lon="5.61986">
        <ele>1590</ele>
        <time>2022-05-16T10:22:31Z</time>
      </trkpt>
      <trkpt lat="45.13572" lon="5.61954">
        <ele>1598</ele>
        <time>2022-05-16T10:22:47Z</time>
      </trkpt>
      <trkpt lat="45.13542" lon="5.61926">
        <ele>1601</ele>
        <time>2022-05-16T10:23:05Z</time>
      </trkpt>
      <trkpt lat="45.13494" lon="5.61902">
        <ele>1607</ele>
        <time>2022-05-16T10:23:31Z</time>
      </trkpt>
      <trkpt lat="45.13469" lon="5.61861">
        <ele>1610</ele>
        <time>2022-05-16T10:23:50Z</time>
      </trkpt>
      <trkpt lat="45.13427" lon="5.61879">
        <ele>1612</ele>
        <time>2022-05-16T10:24:12Z</time>
      </trkpt>
      <trkpt lat="45.1339" lon="5.6189">
        <ele>1615</ele>
        <time>2022-05-16T10:24:31Z</time>
      </trkpt>
      <trkpt lat="45.13353" lon="5.6187">
        <ele>1619</ele>
        <time>2022-05-16T10:24:50Z</time>
      </trkpt>
      <trkpt lat="45.13318" lon="5.61855">
        <ele>1621</ele>
        <time>2022-05-16T10:25:09Z</time>
      </trkpt>
      <trkpt lat="45.13274" lon="5.61814">
        <ele>1620</ele>
        <time>2022-05-16T10:25:35Z</time>
      </trkpt>
      <trkpt lat="45.13246" lon="5.61779">
        <ele>1618</ele>
        <time>2022-05-16T10:25:54Z</time>
      </trkpt>
      <trkpt lat="45.13237" lon="5.61731">
        <ele>1605</ele>
        <time>2022-05-16T10:26:11Z</time>
      </trkpt>
      <trkpt lat="45.13179" lon="5.61766">
        <ele>1619</ele>
        <time>2022-05-16T10:26:43Z</time>
      </trkpt>
      <trkpt lat="45.13167" lon="5.61806">
        <ele>1619</ele>
        <time>2022-05-16T10:26:58Z</time>
      </trkpt>
      <trkpt lat="45.13138" lon="5.61844">
        <ele>1615</ele>
        <time>2022-05-16T10:27:18Z</time>
      </trkpt>
      <trkpt lat="45.13131" lon="5.61841">
        <ele>1614</ele>
        <time>2022-05-16T10:27:22Z</time>
      </trkpt>
      <trkpt lat="45.13119" lon="5.61842">
        <ele>1613</ele>
        <time>2022-05-16T10:27:28Z</time>
      </trkpt>
      <trkpt lat="45.13102" lon="5.61852">
        <ele>1611</ele>
        <time>2022-05-16T10:27:37Z</time>
      </trkpt>
      <trkpt lat="45.13097" lon="5.61859">
        <ele>1611</ele>
        <time>2022-05-16T10:27:40Z</time>
      </trkpt>
      <trkpt lat="45.13086" lon="5.61859">
        <ele>1609</ele>
        <time>2022-05-16T10:27:46Z</time>
      </trkpt>
      <trkpt lat="45.13062" lon="5.61852">
        <ele>1606</ele>
        <time>2022-05-16T10:27:58Z</time>
      </trkpt>
      <trkpt lat="45.1305" lon="5.6184">
        <ele>1604</ele>
        <time>2022-05-16T10:28:05Z</time>
      </trkpt>
      <trkpt lat="45.13041" lon="5.61816">
        <ele>1601</ele>
        <time>2022-05-16T10:28:15Z</time>
      </trkpt>
      <trkpt lat="45.13028" lon="5.618">
        <ele>1597</ele>
        <time>2022-05-16T10:28:24Z</time>
      </trkpt>
      <trkpt lat="45.13016" lon="5.61801">
        <ele>1595</ele>
        <time>2022-05-16T10:28:30Z</time>
      </trkpt>
      <trkpt lat="45.12922" lon="5.61753">
        <ele>1572</ele>
        <time>2022-05-16T10:29:20Z</time>
      </trkpt>
      <trkpt lat="45.12908" lon="5.61753">
        <ele>1569</ele>
        <time>2022-05-16T10:29:27Z</time>
      </trkpt>
      <trkpt lat="45.12896" lon="5.61746">
        <ele>1564</ele>
        <time>2022-05-16T10:29:33Z</time>
      </trkpt>
      <trkpt lat="45.12874" lon="5.61747">
        <ele>1559</ele>
        <time>2022-05-16T10:29:44Z</time>
      </trkpt>
      <trkpt lat="45.12854" lon="5.61735">
        <ele>1550</ele>
        <time>2022-05-16T10:29:55Z</time>
      </trkpt>
      <trkpt lat="45.12828" lon="5.61725">
        <ele>1541</ele>
        <time>2022-05-16T10:30:09Z</time>
      </trkpt>
      <trkpt lat="45.12807" lon="5.61727">
        <ele>1538</ele>
        <time>2022-05-16T10:30:19Z</time>
      </trkpt>
      <trkpt lat="45.12794" lon="5.61724">
        <ele>1534</ele>
        <time>2022-05-16T10:30:26Z</time>
      </trkpt>
      <trkpt lat="45.12789" lon="5.61729">
        <ele>1535</ele>
        <time>2022-05-16T10:30:29Z</time>
      </trkpt>
      <trkpt lat="45.12778" lon="5.61731">
        <ele>1533</ele>
        <time>2022-05-16T10:30:34Z</time>
      </trkpt>
      <trkpt lat="45.12771" lon="5.61727">
        <ele>1531</ele>
        <time>2022-05-16T10:30:38Z</time>
      </trkpt>
      <trkpt lat="45.12764" lon="5.6173">
        <ele>1530</ele>
        <time>2022-05-16T10:30:42Z</time>
      </trkpt>
      <trkpt lat="45.12754" lon="5.61747">
        <ele>1531</ele>
        <time>2022-05-16T10:30:50Z</time>
      </trkpt>
      <trkpt lat="45.12728" lon="5.61745">
        <ele>1526</ele>
        <time>2022-05-16T10:31:03Z</time>
      </trkpt>
      <trkpt lat="45.12715" lon="5.61749">
        <ele>1524</ele>
        <time>2022-05-16T10:31:09Z</time>
      </trkpt>
      <trkpt lat="45.1271" lon="5.61742">
        <ele>1522</ele>
        <time>2022-05-16T10:31:13Z</time>
      </trkpt>
      <trkpt lat="45.12698" lon="5.61741">
        <ele>1519</ele>
        <time>2022-05-16T10:31:19Z</time>
      </trkpt>
      <trkpt lat="45.12694" lon="5.61745">
        <ele>1519</ele>
        <time>2022-05-16T10:31:21Z</time>
      </trkpt>
      <trkpt lat="45.12679" lon="5.61739">
        <ele>1515</ele>
        <time>2022-05-16T10:31:29Z</time>
      </trkpt>
      <trkpt lat="45.12668" lon="5.61741">
        <ele>1513</ele>
        <time>2022-05-16T10:31:35Z</time>
      </trkpt>
      <trkpt lat="45.12645" lon="5.61737">
        <ele>1506</ele>
        <time>2022-05-16T10:31:46Z</time>
      </trkpt>
      <trkpt lat="45.12622" lon="5.61738">
        <ele>1501</ele>
        <time>2022-05-16T10:31:58Z</time>
      </trkpt>
      <trkpt lat="45.12606" lon="5.61753">
        <ele>1499</ele>
        <time>2022-05-16T10:32:07Z</time>
      </trkpt>
      <trkpt lat="45.12598" lon="5.61757">
        <ele>1498</ele>
        <time>2022-05-16T10:32:12Z</time>
      </trkpt>
      <trkpt lat="45.12583" lon="5.61757">
        <ele>1494</ele>
        <time>2022-05-16T10:32:19Z</time>
      </trkpt>
      <trkpt lat="45.12563" lon="5.6175">
        <ele>1490</ele>
        <time>2022-05-16T10:32:29Z</time>
      </trkpt>
      <trkpt lat="45.12561" lon="5.61739">
        <ele>1487</ele>
        <time>2022-05-16T10:32:33Z</time>
      </trkpt>
      <trkpt lat="45.12537" lon="5.61722">
        <ele>1481</ele>
        <time>2022-05-16T10:32:47Z</time>
      </trkpt>
      <trkpt lat="45.125" lon="5.61671">
        <ele>1470</ele>
        <time>2022-05-16T10:33:13Z</time>
      </trkpt>
      <trkpt lat="45.1249" lon="5.61665">
        <ele>1470</ele>
        <time>2022-05-16T10:33:18Z</time>
      </trkpt>
      <trkpt lat="45.12487" lon="5.6166">
        <ele>1468</ele>
        <time>2022-05-16T10:33:20Z</time>
      </trkpt>
      <trkpt lat="45.12487" lon="5.61645">
        <ele>1464</ele>
        <time>2022-05-16T10:33:26Z</time>
      </trkpt>
      <trkpt lat="45.12474" lon="5.61631">
        <ele>1461</ele>
        <time>2022-05-16T10:33:34Z</time>
      </trkpt>
      <trkpt lat="45.12464" lon="5.61629">
        <ele>1461</ele>
        <time>2022-05-16T10:33:39Z</time>
      </trkpt>
      <trkpt lat="45.12449" lon="5.61633">
        <ele>1464</ele>
        <time>2022-05-16T10:33:46Z</time>
      </trkpt>
      <trkpt lat="45.12443" lon="5.61632">
        <ele>1464</ele>
        <time>2022-05-16T10:33:50Z</time>
      </trkpt>
      <trkpt lat="45.12365" lon="5.61598">
        <ele>1459</ele>
        <time>2022-05-16T10:34:30Z</time>
      </trkpt>
      <trkpt lat="45.12343" lon="5.61591">
        <ele>1458</ele>
        <time>2022-05-16T10:34:42Z</time>
      </trkpt>
      <trkpt lat="45.12288" lon="5.61579">
        <ele>1450</ele>
        <time>2022-05-16T10:35:09Z</time>
      </trkpt>
      <trkpt lat="45.12262" lon="5.61585">
        <ele>1447</ele>
        <time>2022-05-16T10:35:23Z</time>
      </trkpt>
      <trkpt lat="45.12254" lon="5.61593">
        <ele>1446</ele>
        <time>2022-05-16T10:35:28Z</time>
      </trkpt>
      <trkpt lat="45.12248" lon="5.61608">
        <ele>1447</ele>
        <time>2022-05-16T10:35:34Z</time>
      </trkpt>
      <trkpt lat="45.1224" lon="5.616">
        <ele>1447</ele>
        <time>2022-05-16T10:35:39Z</time>
      </trkpt>
      <trkpt lat="45.12228" lon="5.61579">
        <ele>1445</ele>
        <time>2022-05-16T10:35:48Z</time>
      </trkpt>
      <trkpt lat="45.12218" lon="5.61568">
        <ele>1444</ele>
        <time>2022-05-16T10:35:54Z</time>
      </trkpt>
      <trkpt lat="45.12164" lon="5.61556">
        <ele>1444</ele>
        <time>2022-05-16T10:36:22Z</time>
      </trkpt>
      <trkpt lat="45.12141" lon="5.61531">
        <ele>1441</ele>
        <time>2022-05-16T10:36:36Z</time>
      </trkpt>
      <trkpt lat="45.12126" lon="5.61493">
        <ele>1435</ele>
        <time>2022-05-16T10:36:52Z</time>
      </trkpt>
      <trkpt lat="45.12104" lon="5.61465">
        <ele>1428</ele>
        <time>2022-05-16T10:37:06Z</time>
      </trkpt>
      <trkpt lat="45.12078" lon="5.61444">
        <ele>1423</ele>
        <time>2022-05-16T10:37:21Z</time>
      </trkpt>
      <trkpt lat="45.1206" lon="5.61437">
        <ele>1423</ele>
        <time>2022-05-16T10:37:31Z</time>
      </trkpt>
      <trkpt lat="45.12046" lon="5.61437">
        <ele>1424</ele>
        <time>2022-05-16T10:37:38Z</time>
      </trkpt>
      <trkpt lat="45.12034" lon="5.61428">
        <ele>1422</ele>
        <time>2022-05-16T10:37:45Z</time>
      </trkpt>
      <trkpt lat="45.12033" lon="5.61418">
        <ele>1420</ele>
        <time>2022-05-16T10:37:48Z</time>
      </trkpt>
      <trkpt lat="45.12044" lon="5.61391">
        <ele>1415</ele>
        <time>2022-05-16T10:37:59Z</time>
      </trkpt>
      <trkpt lat="45.12044" lon="5.61369">
        <ele>1412</ele>
        <time>2022-05-16T10:38:07Z</time>
      </trkpt>
      <trkpt lat="45.12037" lon="5.61312">
        <ele>1402</ele>
        <time>2022-05-16T10:38:27Z</time>
      </trkpt>
      <trkpt lat="45.12" lon="5.6118">
        <ele>1387</ele>
        <time>2022-05-16T10:39:18Z</time>
      </trkpt>
      <trkpt lat="45.11993" lon="5.61166">
        <ele>1386</ele>
        <time>2022-05-16T10:39:24Z</time>
      </trkpt>
      <trkpt lat="45.11896" lon="5.61043">
        <ele>1372</ele>
        <time>2022-05-16T10:40:29Z</time>
      </trkpt>
      <trkpt lat="45.11882" lon="5.61036">
        <ele>1373</ele>
        <time>2022-05-16T10:40:36Z</time>
      </trkpt>
      <trkpt lat="45.11868" lon="5.61034">
        <ele>1374</ele>
        <time>2022-05-16T10:40:43Z</time>
      </trkpt>
      <trkpt lat="45.11856" lon="5.61028">
        <ele>1374</ele>
        <time>2022-05-16T10:40:50Z</time>
      </trkpt>
      <trkpt lat="45.11819" lon="5.61031">
        <ele>1379</ele>
        <time>2022-05-16T10:41:08Z</time>
      </trkpt>
      <trkpt lat="45.11777" lon="5.61038">
        <ele>1383</ele>
        <time>2022-05-16T10:41:29Z</time>
      </trkpt>
      <trkpt lat="45.11728" lon="5.6104">
        <ele>1388</ele>
        <time>2022-05-16T10:41:54Z</time>
      </trkpt>
      <trkpt lat="45.11685" lon="5.61047">
        <ele>1394</ele>
        <time>2022-05-16T10:42:15Z</time>
      </trkpt>
      <trkpt lat="45.11639" lon="5.61027">
        <ele>1397</ele>
        <time>2022-05-16T10:42:40Z</time>
      </trkpt>
      <trkpt lat="45.11602" lon="5.60983">
        <ele>1397</ele>
        <time>2022-05-16T10:43:04Z</time>
      </trkpt>
      <trkpt lat="45.11589" lon="5.60919">
        <ele>1394</ele>
        <time>2022-05-16T10:43:27Z</time>
      </trkpt>
      <trkpt lat="45.11559" lon="5.60875">
        <ele>1397</ele>
        <time>2022-05-16T10:43:49Z</time>
      </trkpt>
      <trkpt lat="45.11518" lon="5.60849">
        <ele>1404</ele>
        <time>2022-05-16T10:44:11Z</time>
      </trkpt>
      <trkpt lat="45.11476" lon="5.60875">
        <ele>1412</ele>
        <time>2022-05-16T10:44:34Z</time>
      </trkpt>
      <trkpt lat="45.11423" lon="5.60883">
        <ele>1417</ele>
        <time>2022-05-16T10:45:01Z</time>
      </trkpt>
      <trkpt lat="45.11381" lon="5.60901">
        <ele>1418</ele>
        <time>2022-05-16T10:45:23Z</time>
      </trkpt>
      <trkpt lat="45.11334" lon="5.60891">
        <ele>1416</ele>
        <time>2022-05-16T10:45:47Z</time>
      </trkpt>
      <trkpt lat="45.11298" lon="5.60903">
        <ele>1416</ele>
        <time>2022-05-16T10:46:05Z</time>
      </trkpt>
      <trkpt lat="45.11252" lon="5.60929">
        <ele>1417</ele>
        <time>2022-05-16T10:46:30Z</time>
      </trkpt>
      <trkpt lat="45.11198" lon="5.60952">
        <ele>1420</ele>
        <time>2022-05-16T10:46:58Z</time>
      </trkpt>
      <trkpt lat="45.11168" lon="5.60916">
        <ele>1419</ele>
        <time>2022-05-16T10:47:18Z</time>
      </trkpt>
      <trkpt lat="45.11108" lon="5.60824">
        <ele>1424</ele>
        <time>2022-05-16T10:48:02Z</time>
      </trkpt>
      <trkpt lat="45.11027" lon="5.60808">
        <ele>1438</ele>
        <time>2022-05-16T10:48:43Z</time>
      </trkpt>
      <trkpt lat="45.10987" lon="5.60795">
        <ele>1442</ele>
        <time>2022-05-16T10:49:04Z</time>
      </trkpt>
      <trkpt lat="45.1092" lon="5.60785">
        <ele>1447</ele>
        <time>2022-05-16T10:49:37Z</time>
      </trkpt>
      <trkpt lat="45.10829" lon="5.60804">
        <ele>1454</ele>
        <time>2022-05-16T10:50:23Z</time>
      </trkpt>
      <trkpt lat="45.10759" lon="5.60812">
        <ele>1458</ele>
        <time>2022-05-16T10:50:58Z</time>
      </trkpt>
      <trkpt lat="45.10717" lon="5.60837">
        <ele>1466</ele>
        <time>2022-05-16T10:51:21Z</time>
      </trkpt>
      <trkpt lat="45.10647" lon="5.60874">
        <ele>1472</ele>
        <time>2022-05-16T10:51:59Z</time>
      </trkpt>
      <trkpt lat="45.10595" lon="5.60925">
        <ele>1480</ele>
        <time>2022-05-16T10:52:30Z</time>
      </trkpt>
      <trkpt lat="45.10532" lon="5.60918">
        <ele>1480</ele>
        <time>2022-05-16T10:53:02Z</time>
      </trkpt>
      <trkpt lat="45.1047" lon="5.60901">
        <ele>1485</ele>
        <time>2022-05-16T10:53:33Z</time>
      </trkpt>
      <trkpt lat="45.10434" lon="5.60896">
        <ele>1490</ele>
        <time>2022-05-16T10:53:52Z</time>
      </trkpt>
      <trkpt lat="45.10238" lon="5.60879">
        <ele>1517</ele>
        <time>2022-05-16T10:55:30Z</time>
      </trkpt>
      <trkpt lat="45.10189" lon="5.60864">
        <ele>1521</ele>
        <time>2022-05-16T10:55:55Z</time>
      </trkpt>
      <trkpt lat="45.10134" lon="5.60885">
        <ele>1534</ele>
        <time>2022-05-16T10:56:23Z</time>
      </trkpt>
      <trkpt lat="45.10092" lon="5.60894">
        <ele>1544</ele>
        <time>2022-05-16T10:56:45Z</time>
      </trkpt>
      <trkpt lat="45.10027" lon="5.60928">
        <ele>1562</ele>
        <time>2022-05-16T10:57:19Z</time>
      </trkpt>
      <trkpt lat="45.09939" lon="5.60946">
        <ele>1583</ele>
        <time>2022-05-16T10:58:04Z</time>
      </trkpt>
      <trkpt lat="45.09857" lon="5.60969">
        <ele>1599</ele>
        <time>2022-05-16T10:58:46Z</time>
      </trkpt>
      <trkpt lat="45.09789" lon="5.60969">
        <ele>1605</ele>
        <time>2022-05-16T10:59:20Z</time>
      </trkpt>
      <trkpt lat="45.09726" lon="5.60961">
        <ele>1607</ele>
        <time>2022-05-16T10:59:51Z</time>
      </trkpt>
      <trkpt lat="45.09615" lon="5.60935">
        <ele>1611</ele>
        <time>2022-05-16T11:00:48Z</time>
      </trkpt>
      <trkpt lat="45.09668" lon="5.60898">
        <ele>1605</ele>
        <time>2022-05-16T11:01:17Z</time>
      </trkpt>
      <trkpt lat="45.09626" lon="5.60864">
        <ele>1605</ele>
        <time>2022-05-16T11:01:41Z</time>
      </trkpt>
      <trkpt lat="45.09595" lon="5.60827">
        <ele>1602</ele>
        <time>2022-05-16T11:02:02Z</time>
      </trkpt>
      <trkpt lat="45.09535" lon="5.6078">
        <ele>1586</ele>
        <time>2022-05-16T11:02:36Z</time>
      </trkpt>
      <trkpt lat="45.09409" lon="5.60654">
        <ele>1537</ele>
        <time>2022-05-16T11:03:53Z</time>
      </trkpt>
      <trkpt lat="45.09356" lon="5.60625">
        <ele>1529</ele>
        <time>2022-05-16T11:04:22Z</time>
      </trkpt>
      <trkpt lat="45.09344" lon="5.60538">
        <ele>1506</ele>
        <time>2022-05-16T11:04:53Z</time>
      </trkpt>
      <trkpt lat="45.09361" lon="5.60495">
        <ele>1496</ele>
        <time>2022-05-16T11:05:10Z</time>
      </trkpt>
      <trkpt lat="45.09407" lon="5.60318">
        <ele>1460</ele>
        <time>2022-05-16T11:06:17Z</time>
      </trkpt>
      <trkpt lat="45.09451" lon="5.60292">
        <ele>1452</ele>
        <time>2022-05-16T11:06:41Z</time>
      </trkpt>
      <trkpt lat="45.09429" lon="5.60238">
        <ele>1453</ele>
        <time>2022-05-16T11:07:03Z</time>
      </trkpt>
      <trkpt lat="45.09414" lon="5.60192">
        <ele>1454</ele>
        <time>2022-05-16T11:07:21Z</time>
      </trkpt>
      <trkpt lat="45.09401" lon="5.60181">
        <ele>1454</ele>
        <time>2022-05-16T11:07:28Z</time>
      </trkpt>
      <trkpt lat="45.09384" lon="5.60173">
        <ele>1454</ele>
        <time>2022-05-16T11:07:37Z</time>
      </trkpt>
      <trkpt lat="45.09369" lon="5.60156">
        <ele>1454</ele>
        <time>2022-05-16T11:07:47Z</time>
      </trkpt>
      <trkpt lat="45.09361" lon="5.60143">
        <ele>1455</ele>
        <time>2022-05-16T11:07:53Z</time>
      </trkpt>
      <trkpt lat="45.09301" lon="5.60101">
        <ele>1455</ele>
        <time>2022-05-16T11:08:27Z</time>
      </trkpt>
      <trkpt lat="45.09251" lon="5.6009">
        <ele>1452</ele>
        <time>2022-05-16T11:08:52Z</time>
      </trkpt>
      <trkpt lat="45.09191" lon="5.60091">
        <ele>1453</ele>
        <time>2022-05-16T11:09:22Z</time>
      </trkpt>
      <trkpt lat="45.09178" lon="5.60057">
        <ele>1452</ele>
        <time>2022-05-16T11:09:36Z</time>
      </trkpt>
      <trkpt lat="45.09177" lon="5.60065">
        <ele>1452</ele>
        <time>2022-05-16T11:09:38Z</time>
      </trkpt>
      <trkpt lat="45.09171" lon="5.60073">
        <ele>1452</ele>
        <time>2022-05-16T11:09:43Z</time>
      </trkpt>
      <trkpt lat="45.09177" lon="5.60065">
        <ele>1452</ele>
        <time>2022-05-16T11:09:47Z</time>
      </trkpt>
      <trkpt lat="45.09178" lon="5.60057">
        <ele>1452</ele>
        <time>2022-05-16T11:09:50Z</time>
      </trkpt>
      <trkpt lat="45.09178" lon="5.60049">
        <ele>1451</ele>
        <time>2022-05-16T11:09:52Z</time>
      </trkpt>
      <trkpt lat="45.09172" lon="5.60027">
        <ele>1451</ele>
        <time>2022-05-16T11:10:01Z</time>
      </trkpt>
      <trkpt lat="45.0918" lon="5.60021">
        <ele>1451</ele>
        <time>2022-05-16T11:10:05Z</time>
      </trkpt>
      <trkpt lat="45.09176" lon="5.60015">
        <ele>1451</ele>
        <time>2022-05-16T11:10:08Z</time>
      </trkpt>
      <trkpt lat="45.0917" lon="5.60016">
        <ele>1451</ele>
        <time>2022-05-16T11:10:11Z</time>
      </trkpt>
      <trkpt lat="45.09165" lon="5.60014">
        <ele>1450</ele>
        <time>2022-05-16T11:10:14Z</time>
      </trkpt>
      <trkpt lat="45.09161" lon="5.60007">
        <ele>1450</ele>
        <time>2022-05-16T11:10:17Z</time>
      </trkpt>
      <trkpt lat="45.09154" lon="5.5998">
        <ele>1449</ele>
        <time>2022-05-16T11:10:27Z</time>
      </trkpt>
      <trkpt lat="45.09137" lon="5.59941">
        <ele>1448</ele>
        <time>2022-05-16T11:10:43Z</time>
      </trkpt>
      <trkpt lat="45.09132" lon="5.59933">
        <ele>1448</ele>
        <time>2022-05-16T11:10:47Z</time>
      </trkpt>
      <trkpt lat="45.09113" lon="5.59921">
        <ele>1447</ele>
        <time>2022-05-16T11:10:57Z</time>
      </trkpt>
      <trkpt lat="45.09108" lon="5.59912">
        <ele>1446</ele>
        <time>2022-05-16T11:11:02Z</time>
      </trkpt>
      <trkpt lat="45.09107" lon="5.59854">
        <ele>1441</ele>
        <time>2022-05-16T11:11:22Z</time>
      </trkpt>
      <trkpt lat="45.09115" lon="5.59786">
        <ele>1437</ele>
        <time>2022-05-16T11:11:46Z</time>
      </trkpt>
      <trkpt lat="45.09136" lon="5.59658">
        <ele>1425</ele>
        <time>2022-05-16T11:12:33Z</time>
      </trkpt>
      <trkpt lat="45.09144" lon="5.59589">
        <ele>1415</ele>
        <time>2022-05-16T11:12:58Z</time>
      </trkpt>
      <trkpt lat="45.09146" lon="5.5959">
        <ele>1415</ele>
        <time>2022-05-16T11:12:59Z</time>
      </trkpt>
      <trkpt lat="45.09144" lon="5.59589">
        <ele>1415</ele>
        <time>2022-05-16T11:13:00Z</time>
      </trkpt>
      <trkpt lat="45.09146" lon="5.59571">
        <ele>1412</ele>
        <time>2022-05-16T11:13:06Z</time>
      </trkpt>
      <trkpt lat="45.09157" lon="5.59525">
        <ele>1404</ele>
        <time>2022-05-16T11:13:23Z</time>
      </trkpt>
      <trkpt lat="45.09185" lon="5.59459">
        <ele>1394</ele>
        <time>2022-05-16T11:13:50Z</time>
      </trkpt>
      <trkpt lat="45.09197" lon="5.59447">
        <ele>1391</ele>
        <time>2022-05-16T11:13:58Z</time>
      </trkpt>
      <trkpt lat="45.09217" lon="5.59436">
        <ele>1388</ele>
        <time>2022-05-16T11:14:09Z</time>
      </trkpt>
      <trkpt lat="45.09225" lon="5.59429">
        <ele>1386</ele>
        <time>2022-05-16T11:14:13Z</time>
      </trkpt>
      <trkpt lat="45.0924" lon="5.59406">
        <ele>1382</ele>
        <time>2022-05-16T11:14:24Z</time>
      </trkpt>
      <trkpt lat="45.09257" lon="5.59399">
        <ele>1380</ele>
        <time>2022-05-16T11:14:33Z</time>
      </trkpt>
      <trkpt lat="45.09273" lon="5.59372">
        <ele>1378</ele>
        <time>2022-05-16T11:14:46Z</time>
      </trkpt>
      <trkpt lat="45.09256" lon="5.59377">
        <ele>1379</ele>
        <time>2022-05-16T11:14:54Z</time>
      </trkpt>
      <trkpt lat="45.09247" lon="5.59384">
        <ele>1380</ele>
        <time>2022-05-16T11:14:59Z</time>
      </trkpt>
      <trkpt lat="45.09227" lon="5.59386">
        <ele>1383</ele>
        <time>2022-05-16T11:15:09Z</time>
      </trkpt>
      <trkpt lat="45.09212" lon="5.59398">
        <ele>1385</ele>
        <time>2022-05-16T11:15:18Z</time>
      </trkpt>
      <trkpt lat="45.09188" lon="5.59411">
        <ele>1388</ele>
        <time>2022-05-16T11:15:31Z</time>
      </trkpt>
      <trkpt lat="45.09178" lon="5.59414">
        <ele>1390</ele>
        <time>2022-05-16T11:15:36Z</time>
      </trkpt>
      <trkpt lat="45.09103" lon="5.5941">
        <ele>1394</ele>
        <time>2022-05-16T11:16:14Z</time>
      </trkpt>
      <trkpt lat="45.0909" lon="5.59415">
        <ele>1395</ele>
        <time>2022-05-16T11:16:20Z</time>
      </trkpt>
      <trkpt lat="45.09072" lon="5.59438">
        <ele>1399</ele>
        <time>2022-05-16T11:16:32Z</time>
      </trkpt>
      <trkpt lat="45.09073" lon="5.5944">
        <ele>1399</ele>
        <time>2022-05-16T11:16:33Z</time>
      </trkpt>
      <trkpt lat="45.09072" lon="5.59438">
        <ele>1399</ele>
        <time>2022-05-16T11:16:34Z</time>
      </trkpt>
      <trkpt lat="45.09069" lon="5.59442">
        <ele>1399</ele>
        <time>2022-05-16T11:16:36Z</time>
      </trkpt>
      <trkpt lat="45.09059" lon="5.59462">
        <ele>1402</ele>
        <time>2022-05-16T11:16:45Z</time>
      </trkpt>
      <trkpt lat="45.09047" lon="5.59469">
        <ele>1403</ele>
        <time>2022-05-16T11:16:51Z</time>
      </trkpt>
      <trkpt lat="45.09038" lon="5.59471">
        <ele>1404</ele>
        <time>2022-05-16T11:16:56Z</time>
      </trkpt>
      <trkpt lat="45.08956" lon="5.59401">
        <ele>1394</ele>
        <time>2022-05-16T11:17:44Z</time>
      </trkpt>
      <trkpt lat="45.08927" lon="5.59382">
        <ele>1391</ele>
        <time>2022-05-16T11:18:00Z</time>
      </trkpt>
      <trkpt lat="45.08894" lon="5.5941">
        <ele>1400</ele>
        <time>2022-05-16T11:18:19Z</time>
      </trkpt>
      <trkpt lat="45.08841" lon="5.59438">
        <ele>1404</ele>
        <time>2022-05-16T11:18:47Z</time>
      </trkpt>
      <trkpt lat="45.08796" lon="5.59439">
        <ele>1399</ele>
        <time>2022-05-16T11:19:10Z</time>
      </trkpt>
      <trkpt lat="45.08752" lon="5.59446">
        <ele>1393</ele>
        <time>2022-05-16T11:19:32Z</time>
      </trkpt>
      <trkpt lat="45.08718" lon="5.59464">
        <ele>1391</ele>
        <time>2022-05-16T11:19:50Z</time>
      </trkpt>
      <trkpt lat="45.0869" lon="5.59443">
        <ele>1385</ele>
        <time>2022-05-16T11:20:06Z</time>
      </trkpt>
      <trkpt lat="45.08663" lon="5.59504">
        <ele>1390</ele>
        <time>2022-05-16T11:20:32Z</time>
      </trkpt>
      <trkpt lat="45.08641" lon="5.59573">
        <ele>1394</ele>
        <time>2022-05-16T11:20:58Z</time>
      </trkpt>
      <trkpt lat="45.08606" lon="5.59608">
        <ele>1391</ele>
        <time>2022-05-16T11:21:20Z</time>
      </trkpt>
      <trkpt lat="45.08591" lon="5.59661">
        <ele>1391</ele>
        <time>2022-05-16T11:21:40Z</time>
      </trkpt>
      <trkpt lat="45.08566" lon="5.5971">
        <ele>1390</ele>
        <time>2022-05-16T11:22:01Z</time>
      </trkpt>
      <trkpt lat="45.08518" lon="5.59708">
        <ele>1378</ele>
        <time>2022-05-16T11:22:25Z</time>
      </trkpt>
      <trkpt lat="45.08481" lon="5.59722">
        <ele>1370</ele>
        <time>2022-05-16T11:22:45Z</time>
      </trkpt>
      <trkpt lat="45.08474" lon="5.59784">
        <ele>1380</ele>
        <time>2022-05-16T11:23:07Z</time>
      </trkpt>
      <trkpt lat="45.08447" lon="5.5978">
        <ele>1371</ele>
        <time>2022-05-16T11:23:20Z</time>
      </trkpt>
      <trkpt lat="45.08401" lon="5.59786">
        <ele>1361</ele>
        <time>2022-05-16T11:23:43Z</time>
      </trkpt>
      <trkpt lat="45.0836" lon="5.59775">
        <ele>1352</ele>
        <time>2022-05-16T11:24:04Z</time>
      </trkpt>
      <trkpt lat="45.08317" lon="5.5982">
        <ele>1356</ele>
        <time>2022-05-16T11:24:31Z</time>
      </trkpt>
      <trkpt lat="45.08271" lon="5.59764">
        <ele>1339</ele>
        <time>2022-05-16T11:25:01Z</time>
      </trkpt>
      <trkpt lat="45.08175" lon="5.59661">
        <ele>1319</ele>
        <time>2022-05-16T11:26:02Z</time>
      </trkpt>
      <trkpt lat="45.08009" lon="5.59572">
        <ele>1315</ele>
        <time>2022-05-16T11:27:30Z</time>
      </trkpt>
      <trkpt lat="45.07951" lon="5.59524">
        <ele>1306</ele>
        <time>2022-05-16T11:28:04Z</time>
      </trkpt>
      <trkpt lat="45.07947" lon="5.5947">
        <ele>1299</ele>
        <time>2022-05-16T11:28:23Z</time>
      </trkpt>
      <trkpt lat="45.07918" lon="5.59461">
        <ele>1295</ele>
        <time>2022-05-16T11:28:38Z</time>
      </trkpt>
      <trkpt lat="45.07893" lon="5.5941">
        <ele>1290</ele>
        <time>2022-05-16T11:29:00Z</time>
      </trkpt>
      <trkpt lat="45.07857" lon="5.59359">
        <ele>1286</ele>
        <time>2022-05-16T11:29:26Z</time>
      </trkpt>
      <trkpt lat="45.07807" lon="5.59332">
        <ele>1282</ele>
        <time>2022-05-16T11:29:52Z</time>
      </trkpt>
      <trkpt lat="45.07787" lon="5.59274">
        <ele>1279</ele>
        <time>2022-05-16T11:30:15Z</time>
      </trkpt>
      <trkpt lat="45.07778" lon="5.5919">
        <ele>1276</ele>
        <time>2022-05-16T11:30:45Z</time>
      </trkpt>
      <trkpt lat="45.07755" lon="5.59114">
        <ele>1272</ele>
        <time>2022-05-16T11:31:14Z</time>
      </trkpt>
      <trkpt lat="45.07715" lon="5.59032">
        <ele>1270</ele>
        <time>2022-05-16T11:31:50Z</time>
      </trkpt>
      <trkpt lat="45.07692" lon="5.58929">
        <ele>1262</ele>
        <time>2022-05-16T11:32:28Z</time>
      </trkpt>
      <trkpt lat="45.0767" lon="5.58882">
        <ele>1256</ele>
        <time>2022-05-16T11:32:48Z</time>
      </trkpt>
      <trkpt lat="45.07669" lon="5.58811">
        <ele>1248</ele>
        <time>2022-05-16T11:33:13Z</time>
      </trkpt>
      <trkpt lat="45.07639" lon="5.58756">
        <ele>1248</ele>
        <time>2022-05-16T11:33:37Z</time>
      </trkpt>
      <trkpt lat="45.07621" lon="5.58673">
        <ele>1247</ele>
        <time>2022-05-16T11:34:08Z</time>
      </trkpt>
      <trkpt lat="45.076" lon="5.58595">
        <ele>1244</ele>
        <time>2022-05-16T11:34:38Z</time>
      </trkpt>
      <trkpt lat="45.07573" lon="5.58526">
        <ele>1235</ele>
        <time>2022-05-16T11:35:05Z</time>
      </trkpt>
      <trkpt lat="45.07513" lon="5.58483">
        <ele>1235</ele>
        <time>2022-05-16T11:35:39Z</time>
      </trkpt>
      <trkpt lat="45.07476" lon="5.5842">
        <ele>1223</ele>
        <time>2022-05-16T11:36:08Z</time>
      </trkpt>
      <trkpt lat="45.07377" lon="5.58285">
        <ele>1214</ele>
        <time>2022-05-16T11:37:17Z</time>
      </trkpt>
      <trkpt lat="45.07335" lon="5.58206">
        <ele>1208</ele>
        <time>2022-05-16T11:37:52Z</time>
      </trkpt>
      <trkpt lat="45.073" lon="5.5812">
        <ele>1198</ele>
        <time>2022-05-16T11:38:27Z</time>
      </trkpt>
      <trkpt lat="45.0727" lon="5.58067">
        <ele>1191</ele>
        <time>2022-05-16T11:38:51Z</time>
      </trkpt>
      <trkpt lat="45.07299" lon="5.57988">
        <ele>1180</ele>
        <time>2022-05-16T11:39:22Z</time>
      </trkpt>
      <trkpt lat="45.07309" lon="5.57933">
        <ele>1175</ele>
        <time>2022-05-16T11:39:42Z</time>
      </trkpt>
      <trkpt lat="45.07289" lon="5.57921">
        <ele>1175</ele>
        <time>2022-05-16T11:39:53Z</time>
      </trkpt>
      <trkpt lat="45.07286" lon="5.57916">
        <ele>1175</ele>
        <time>2022-05-16T11:39:56Z</time>
      </trkpt>
      <trkpt lat="45.07273" lon="5.57906">
        <ele>1175</ele>
        <time>2022-05-16T11:40:03Z</time>
      </trkpt>
      <trkpt lat="45.07196" lon="5.5788">
        <ele>1177</ele>
        <time>2022-05-16T11:40:43Z</time>
      </trkpt>
      <trkpt lat="45.07162" lon="5.57894">
        <ele>1181</ele>
        <time>2022-05-16T11:41:00Z</time>
      </trkpt>
      <trkpt lat="45.07157" lon="5.57891">
        <ele>1181</ele>
        <time>2022-05-16T11:41:03Z</time>
      </trkpt>
      <trkpt lat="45.0715" lon="5.57882">
        <ele>1181</ele>
        <time>2022-05-16T11:41:08Z</time>
      </trkpt>
      <trkpt lat="45.07142" lon="5.57855">
        <ele>1178</ele>
        <time>2022-05-16T11:41:18Z</time>
      </trkpt>
      <trkpt lat="45.07123" lon="5.57821">
        <ele>1174</ele>
        <time>2022-05-16T11:41:33Z</time>
      </trkpt>
      <trkpt lat="45.07095" lon="5.57794">
        <ele>1170</ele>
        <time>2022-05-16T11:41:50Z</time>
      </trkpt>
      <trkpt lat="45.07085" lon="5.5779">
        <ele>1170</ele>
        <time>2022-05-16T11:41:56Z</time>
      </trkpt>
      <trkpt lat="45.07075" lon="5.57781">
        <ele>1169</ele>
        <time>2022-05-16T11:42:01Z</time>
      </trkpt>
      <trkpt lat="45.07065" lon="5.57779">
        <ele>1170</ele>
        <time>2022-05-16T11:42:07Z</time>
      </trkpt>
      <trkpt lat="45.07057" lon="5.57774">
        <ele>1170</ele>
        <time>2022-05-16T11:42:11Z</time>
      </trkpt>
      <trkpt lat="45.07029" lon="5.57739">
        <ele>1167</ele>
        <time>2022-05-16T11:42:30Z</time>
      </trkpt>
      <trkpt lat="45.06995" lon="5.57684">
        <ele>1164</ele>
        <time>2022-05-16T11:42:55Z</time>
      </trkpt>
      <trkpt lat="45.06988" lon="5.5768">
        <ele>1164</ele>
        <time>2022-05-16T11:42:59Z</time>
      </trkpt>
      <trkpt lat="45.06983" lon="5.57681">
        <ele>1165</ele>
        <time>2022-05-16T11:43:02Z</time>
      </trkpt>
      <trkpt lat="45.06951" lon="5.57704">
        <ele>1172</ele>
        <time>2022-05-16T11:43:20Z</time>
      </trkpt>
      <trkpt lat="45.06944" lon="5.57707">
        <ele>1173</ele>
        <time>2022-05-16T11:43:23Z</time>
      </trkpt>
      <trkpt lat="45.06937" lon="5.57705">
        <ele>1174</ele>
        <time>2022-05-16T11:43:27Z</time>
      </trkpt>
      <trkpt lat="45.06929" lon="5.57698">
        <ele>1174</ele>
        <time>2022-05-16T11:43:32Z</time>
      </trkpt>
      <trkpt lat="45.06913" lon="5.57674">
        <ele>1174</ele>
        <time>2022-05-16T11:43:43Z</time>
      </trkpt>
      <trkpt lat="45.06907" lon="5.57649">
        <ele>1174</ele>
        <time>2022-05-16T11:43:53Z</time>
      </trkpt>
      <trkpt lat="45.06898" lon="5.57638">
        <ele>1176</ele>
        <time>2022-05-16T11:43:59Z</time>
      </trkpt>
      <trkpt lat="45.06856" lon="5.57625">
        <ele>1187</ele>
        <time>2022-05-16T11:44:20Z</time>
      </trkpt>
      <trkpt lat="45.0683" lon="5.57609">
        <ele>1194</ele>
        <time>2022-05-16T11:44:34Z</time>
      </trkpt>
      <trkpt lat="45.06822" lon="5.576">
        <ele>1195</ele>
        <time>2022-05-16T11:44:39Z</time>
      </trkpt>
      <trkpt lat="45.06751" lon="5.57554">
        <ele>1210</ele>
        <time>2022-05-16T11:45:18Z</time>
      </trkpt>
      <trkpt lat="45.06712" lon="5.57534">
        <ele>1212</ele>
        <time>2022-05-16T11:45:39Z</time>
      </trkpt>
      <trkpt lat="45.06694" lon="5.57539">
        <ele>1214</ele>
        <time>2022-05-16T11:45:48Z</time>
      </trkpt>
      <trkpt lat="45.06678" lon="5.5755">
        <ele>1218</ele>
        <time>2022-05-16T11:45:57Z</time>
      </trkpt>
      <trkpt lat="45.06652" lon="5.57515">
        <ele>1210</ele>
        <time>2022-05-16T11:46:15Z</time>
      </trkpt>
      <trkpt lat="45.06594" lon="5.57548">
        <ele>1221</ele>
        <time>2022-05-16T11:46:47Z</time>
      </trkpt>
      <trkpt lat="45.06559" lon="5.57532">
        <ele>1225</ele>
        <time>2022-05-16T11:47:05Z</time>
      </trkpt>
      <trkpt lat="45.06534" lon="5.57582">
        <ele>1239</ele>
        <time>2022-05-16T11:47:27Z</time>
      </trkpt>
      <trkpt lat="45.06507" lon="5.57609">
        <ele>1248</ele>
        <time>2022-05-16T11:47:43Z</time>
      </trkpt>
      <trkpt lat="45.06478" lon="5.57618">
        <ele>1255</ele>
        <time>2022-05-16T11:47:58Z</time>
      </trkpt>
      <trkpt lat="45.0645" lon="5.57635">
        <ele>1263</ele>
        <time>2022-05-16T11:48:13Z</time>
      </trkpt>
      <trkpt lat="45.06427" lon="5.57635">
        <ele>1267</ele>
        <time>2022-05-16T11:48:25Z</time>
      </trkpt>
      <trkpt lat="45.06416" lon="5.5763">
        <ele>1269</ele>
        <time>2022-05-16T11:48:31Z</time>
      </trkpt>
      <trkpt lat="45.06397" lon="5.57629">
        <ele>1270</ele>
        <time>2022-05-16T11:48:40Z</time>
      </trkpt>
      <trkpt lat="45.06385" lon="5.57636">
        <ele>1271</ele>
        <time>2022-05-16T11:48:47Z</time>
      </trkpt>
      <trkpt lat="45.06346" lon="5.57378">
        <ele>1274</ele>
        <time>2022-05-16T11:50:20Z</time>
      </trkpt>
      <trkpt lat="45.06302" lon="5.57279">
        <ele>1268</ele>
        <time>2022-05-16T11:51:01Z</time>
      </trkpt>
      <trkpt lat="45.06299" lon="5.57194">
        <ele>1256</ele>
        <time>2022-05-16T11:51:31Z</time>
      </trkpt>
      <trkpt lat="45.06306" lon="5.57121">
        <ele>1241</ele>
        <time>2022-05-16T11:51:57Z</time>
      </trkpt>
      <trkpt lat="45.06302" lon="5.57054">
        <ele>1225</ele>
        <time>2022-05-16T11:52:21Z</time>
      </trkpt>
      <trkpt lat="45.06348" lon="5.56975">
        <ele>1204</ele>
        <time>2022-05-16T11:52:57Z</time>
      </trkpt>
      <trkpt lat="45.06362" lon="5.56899">
        <ele>1185</ele>
        <time>2022-05-16T11:53:25Z</time>
      </trkpt>
      <trkpt lat="45.06395" lon="5.56833">
        <ele>1170</ele>
        <time>2022-05-16T11:53:54Z</time>
      </trkpt>
      <trkpt lat="45.06433" lon="5.56773">
        <ele>1156</ele>
        <time>2022-05-16T11:54:22Z</time>
      </trkpt>
      <trkpt lat="45.06466" lon="5.56733">
        <ele>1143</ele>
        <time>2022-05-16T11:54:44Z</time>
      </trkpt>
      <trkpt lat="45.06448" lon="5.56694">
        <ele>1139</ele>
        <time>2022-05-16T11:55:00Z</time>
      </trkpt>
      <trkpt lat="45.06446" lon="5.56634">
        <ele>1129</ele>
        <time>2022-05-16T11:55:22Z</time>
      </trkpt>
      <trkpt lat="45.06392" lon="5.56622">
        <ele>1121</ele>
        <time>2022-05-16T11:55:49Z</time>
      </trkpt>
      <trkpt lat="45.06359" lon="5.56669">
        <ele>1123</ele>
        <time>2022-05-16T11:56:12Z</time>
      </trkpt>
      <trkpt lat="45.06322" lon="5.56672">
        <ele>1117</ele>
        <time>2022-05-16T11:56:31Z</time>
      </trkpt>
      <trkpt lat="45.06282" lon="5.56657">
        <ele>1115</ele>
        <time>2022-05-16T11:56:52Z</time>
      </trkpt>
      <trkpt lat="45.06242" lon="5.56666">
        <ele>1117</ele>
        <time>2022-05-16T11:57:12Z</time>
      </trkpt>
      <trkpt lat="45.06231" lon="5.56705">
        <ele>1124</ele>
        <time>2022-05-16T11:57:27Z</time>
      </trkpt>
      <trkpt lat="45.06157" lon="5.56733">
        <ele>1138</ele>
        <time>2022-05-16T11:58:05Z</time>
      </trkpt>
      <trkpt lat="45.06134" lon="5.56772">
        <ele>1143</ele>
        <time>2022-05-16T11:58:23Z</time>
      </trkpt>
      <trkpt lat="45.06091" lon="5.5682">
        <ele>1149</ele>
        <time>2022-05-16T11:58:50Z</time>
      </trkpt>
      <trkpt lat="45.06048" lon="5.56877">
        <ele>1157</ele>
        <time>2022-05-16T11:59:20Z</time>
      </trkpt>
      <trkpt lat="45.06025" lon="5.56979">
        <ele>1157</ele>
        <time>2022-05-16T11:59:58Z</time>
      </trkpt>
      <trkpt lat="45.05954" lon="5.57016">
        <ele>1171</ele>
        <time>2022-05-16T12:00:36Z</time>
      </trkpt>
      <trkpt lat="45.05924" lon="5.5708">
        <ele>1174</ele>
        <time>2022-05-16T12:01:03Z</time>
      </trkpt>
      <trkpt lat="45.05878" lon="5.57103">
        <ele>1184</ele>
        <time>2022-05-16T12:01:27Z</time>
      </trkpt>
      <trkpt lat="45.05837" lon="5.57135">
        <ele>1188</ele>
        <time>2022-05-16T12:01:51Z</time>
      </trkpt>
      <trkpt lat="45.05812" lon="5.5719">
        <ele>1186</ele>
        <time>2022-05-16T12:02:14Z</time>
      </trkpt>
      <trkpt lat="45.05812" lon="5.57281">
        <ele>1185</ele>
        <time>2022-05-16T12:02:46Z</time>
      </trkpt>
      <trkpt lat="45.05856" lon="5.575">
        <ele>1211</ele>
        <time>2022-05-16T12:04:06Z</time>
      </trkpt>
      <trkpt lat="45.05859" lon="5.57564">
        <ele>1219</ele>
        <time>2022-05-16T12:04:29Z</time>
      </trkpt>
      <trkpt lat="45.05804" lon="5.57601">
        <ele>1230</ele>
        <time>2022-05-16T12:04:59Z</time>
      </trkpt>
      <trkpt lat="45.05765" lon="5.57659">
        <ele>1239</ele>
        <time>2022-05-16T12:05:28Z</time>
      </trkpt>
      <trkpt lat="45.05732" lon="5.57668">
        <ele>1244</ele>
        <time>2022-05-16T12:05:45Z</time>
      </trkpt>
      <trkpt lat="45.05689" lon="5.57675">
        <ele>1248</ele>
        <time>2022-05-16T12:06:06Z</time>
      </trkpt>
      <trkpt lat="45.05689" lon="5.5767">
        <ele>1248</ele>
        <time>2022-05-16T12:06:08Z</time>
      </trkpt>
      <trkpt lat="45.05677" lon="5.57659">
        <ele>1251</ele>
        <time>2022-05-16T12:06:15Z</time>
      </trkpt>
      <trkpt lat="45.05654" lon="5.57645">
        <ele>1257</ele>
        <time>2022-05-16T12:06:28Z</time>
      </trkpt>
      <trkpt lat="45.05655" lon="5.57638">
        <ele>1258</ele>
        <time>2022-05-16T12:06:30Z</time>
      </trkpt>
      <trkpt lat="45.05618" lon="5.57648">
        <ele>1260</ele>
        <time>2022-05-16T12:06:49Z</time>
      </trkpt>
      <trkpt lat="45.05606" lon="5.57668">
        <ele>1256</ele>
        <time>2022-05-16T12:06:58Z</time>
      </trkpt>
      <trkpt lat="45.05599" lon="5.57675">
        <ele>1255</ele>
        <time>2022-05-16T12:07:03Z</time>
      </trkpt>
      <trkpt lat="45.05589" lon="5.57683">
        <ele>1254</ele>
        <time>2022-05-16T12:07:08Z</time>
      </trkpt>
      <trkpt lat="45.05566" lon="5.57695">
        <ele>1253</ele>
        <time>2022-05-16T12:07:21Z</time>
      </trkpt>
      <trkpt lat="45.05553" lon="5.57697">
        <ele>1254</ele>
        <time>2022-05-16T12:07:27Z</time>
      </trkpt>
      <trkpt lat="45.0551" lon="5.57697">
        <ele>1256</ele>
        <time>2022-05-16T12:07:49Z</time>
      </trkpt>
      <trkpt lat="45.05462" lon="5.57691">
        <ele>1259</ele>
        <time>2022-05-16T12:08:13Z</time>
      </trkpt>
      <trkpt lat="45.05426" lon="5.57679">
        <ele>1261</ele>
        <time>2022-05-16T12:08:31Z</time>
      </trkpt>
      <trkpt lat="45.05395" lon="5.57675">
        <ele>1261</ele>
        <time>2022-05-16T12:08:47Z</time>
      </trkpt>
      <trkpt lat="45.05365" lon="5.5765">
        <ele>1269</ele>
        <time>2022-05-16T12:09:04Z</time>
      </trkpt>
      <trkpt lat="45.05344" lon="5.57641">
        <ele>1272</ele>
        <time>2022-05-16T12:09:15Z</time>
      </trkpt>
      <trkpt lat="45.05257" lon="5.57612">
        <ele>1278</ele>
        <time>2022-05-16T12:10:00Z</time>
      </trkpt>
      <trkpt lat="45.05226" lon="5.57597">
        <ele>1284</ele>
        <time>2022-05-16T12:10:16Z</time>
      </trkpt>
      <trkpt lat="45.05195" lon="5.5759">
        <ele>1286</ele>
        <time>2022-05-16T12:10:32Z</time>
      </trkpt>
      <trkpt lat="45.05149" lon="5.57593">
        <ele>1285</ele>
        <time>2022-05-16T12:10:55Z</time>
      </trkpt>
      <trkpt lat="45.05072" lon="5.57611">
        <ele>1287</ele>
        <time>2022-05-16T12:11:34Z</time>
      </trkpt>
      <trkpt lat="45.05065" lon="5.57611">
        <ele>1287</ele>
        <time>2022-05-16T12:11:38Z</time>
      </trkpt>
      <trkpt lat="45.05032" lon="5.57593">
        <ele>1293</ele>
        <time>2022-05-16T12:11:55Z</time>
      </trkpt>
      <trkpt lat="45.05025" lon="5.57592">
        <ele>1294</ele>
        <time>2022-05-16T12:11:59Z</time>
      </trkpt>
      <trkpt lat="45.04997" lon="5.57602">
        <ele>1293</ele>
        <time>2022-05-16T12:12:13Z</time>
      </trkpt>
      <trkpt lat="45.04963" lon="5.57606">
        <ele>1293</ele>
        <time>2022-05-16T12:12:30Z</time>
      </trkpt>
      <trkpt lat="45.04944" lon="5.57637">
        <ele>1291</ele>
        <time>2022-05-16T12:12:45Z</time>
      </trkpt>
      <trkpt lat="45.04937" lon="5.57641">
        <ele>1291</ele>
        <time>2022-05-16T12:12:49Z</time>
      </trkpt>
      <trkpt lat="45.04896" lon="5.57648">
        <ele>1295</ele>
        <time>2022-05-16T12:13:09Z</time>
      </trkpt>
      <trkpt lat="45.04866" lon="5.57663">
        <ele>1301</ele>
        <time>2022-05-16T12:13:25Z</time>
      </trkpt>
      <trkpt lat="45.04845" lon="5.57683">
        <ele>1305</ele>
        <time>2022-05-16T12:13:38Z</time>
      </trkpt>
      <trkpt lat="45.04827" lon="5.5769">
        <ele>1308</ele>
        <time>2022-05-16T12:13:47Z</time>
      </trkpt>
      <trkpt lat="45.04795" lon="5.57689">
        <ele>1312</ele>
        <time>2022-05-16T12:14:03Z</time>
      </trkpt>
      <trkpt lat="45.04785" lon="5.57685">
        <ele>1312</ele>
        <time>2022-05-16T12:14:09Z</time>
      </trkpt>
      <trkpt lat="45.04774" lon="5.57677">
        <ele>1313</ele>
        <time>2022-05-16T12:14:15Z</time>
      </trkpt>
      <trkpt lat="45.04766" lon="5.57666">
        <ele>1313</ele>
        <time>2022-05-16T12:14:20Z</time>
      </trkpt>
      <trkpt lat="45.04745" lon="5.57648">
        <ele>1315</ele>
        <time>2022-05-16T12:14:33Z</time>
      </trkpt>
      <trkpt lat="45.04702" lon="5.57627">
        <ele>1317</ele>
        <time>2022-05-16T12:14:55Z</time>
      </trkpt>
      <trkpt lat="45.04677" lon="5.57631">
        <ele>1317</ele>
        <time>2022-05-16T12:15:08Z</time>
      </trkpt>
      <trkpt lat="45.04655" lon="5.57645">
        <ele>1317</ele>
        <time>2022-05-16T12:15:20Z</time>
      </trkpt>
      <trkpt lat="45.04642" lon="5.57658">
        <ele>1316</ele>
        <time>2022-05-16T12:15:28Z</time>
      </trkpt>
      <trkpt lat="45.04624" lon="5.57693">
        <ele>1319</ele>
        <time>2022-05-16T12:15:43Z</time>
      </trkpt>
      <trkpt lat="45.04586" lon="5.5775">
        <ele>1324</ele>
        <time>2022-05-16T12:16:11Z</time>
      </trkpt>
      <trkpt lat="45.04562" lon="5.57772">
        <ele>1328</ele>
        <time>2022-05-16T12:16:25Z</time>
      </trkpt>
      <trkpt lat="45.04531" lon="5.57789">
        <ele>1331</ele>
        <time>2022-05-16T12:16:42Z</time>
      </trkpt>
      <trkpt lat="45.04528" lon="5.57794">
        <ele>1332</ele>
        <time>2022-05-16T12:16:44Z</time>
      </trkpt>
      <trkpt lat="45.04513" lon="5.57843">
        <ele>1341</ele>
        <time>2022-05-16T12:17:03Z</time>
      </trkpt>
      <trkpt lat="45.04507" lon="5.57871">
        <ele>1343</ele>
        <time>2022-05-16T12:17:14Z</time>
      </trkpt>
      <trkpt lat="45.04506" lon="5.57913">
        <ele>1347</ele>
        <time>2022-05-16T12:17:28Z</time>
      </trkpt>
      <trkpt lat="45.0451" lon="5.57952">
        <ele>1345</ele>
        <time>2022-05-16T12:17:42Z</time>
      </trkpt>
      <trkpt lat="45.04503" lon="5.57989">
        <ele>1343</ele>
        <time>2022-05-16T12:17:56Z</time>
      </trkpt>
      <trkpt lat="45.04496" lon="5.58006">
        <ele>1342</ele>
        <time>2022-05-16T12:18:03Z</time>
      </trkpt>
      <trkpt lat="45.04473" lon="5.58041">
        <ele>1343</ele>
        <time>2022-05-16T12:18:20Z</time>
      </trkpt>
      <trkpt lat="45.04455" lon="5.58074">
        <ele>1343</ele>
        <time>2022-05-16T12:18:34Z</time>
      </trkpt>
      <trkpt lat="45.04469" lon="5.58092">
        <ele>1342</ele>
        <time>2022-05-16T12:18:44Z</time>
      </trkpt>
      <trkpt lat="45.04486" lon="5.58125">
        <ele>1342</ele>
        <time>2022-05-16T12:18:58Z</time>
      </trkpt>
      <trkpt lat="45.04493" lon="5.58128">
        <ele>1342</ele>
        <time>2022-05-16T12:19:02Z</time>
      </trkpt>
      <trkpt lat="45.04514" lon="5.58125">
        <ele>1340</ele>
        <time>2022-05-16T12:19:13Z</time>
      </trkpt>
      <trkpt lat="45.04524" lon="5.58127">
        <ele>1340</ele>
        <time>2022-05-16T12:19:18Z</time>
      </trkpt>
      <trkpt lat="45.04538" lon="5.58133">
        <ele>1339</ele>
        <time>2022-05-16T12:19:25Z</time>
      </trkpt>
      <trkpt lat="45.0456" lon="5.58147">
        <ele>1338</ele>
        <time>2022-05-16T12:19:37Z</time>
      </trkpt>
      <trkpt lat="45.04566" lon="5.58152">
        <ele>1338</ele>
        <time>2022-05-16T12:19:41Z</time>
      </trkpt>
      <trkpt lat="45.04582" lon="5.58175">
        <ele>1339</ele>
        <time>2022-05-16T12:19:52Z</time>
      </trkpt>
      <trkpt lat="45.04623" lon="5.5824">
        <ele>1359</ele>
        <time>2022-05-16T12:20:23Z</time>
      </trkpt>
      <trkpt lat="45.04655" lon="5.58254">
        <ele>1365</ele>
        <time>2022-05-16T12:20:39Z</time>
      </trkpt>
      <trkpt lat="45.04698" lon="5.58261">
        <ele>1365</ele>
        <time>2022-05-16T12:21:01Z</time>
      </trkpt>
      <trkpt lat="45.04729" lon="5.58288">
        <ele>1370</ele>
        <time>2022-05-16T12:21:19Z</time>
      </trkpt>
      <trkpt lat="45.04744" lon="5.58322">
        <ele>1378</ele>
        <time>2022-05-16T12:21:34Z</time>
      </trkpt>
      <trkpt lat="45.04751" lon="5.58325">
        <ele>1379</ele>
        <time>2022-05-16T12:21:37Z</time>
      </trkpt>
      <trkpt lat="45.04758" lon="5.58321">
        <ele>1377</ele>
        <time>2022-05-16T12:21:41Z</time>
      </trkpt>
      <trkpt lat="45.04765" lon="5.58313">
        <ele>1374</ele>
        <time>2022-05-16T12:21:45Z</time>
      </trkpt>
      <trkpt lat="45.04769" lon="5.58303">
        <ele>1371</ele>
        <time>2022-05-16T12:21:50Z</time>
      </trkpt>
      <trkpt lat="45.04781" lon="5.583">
        <ele>1368</ele>
        <time>2022-05-16T12:21:56Z</time>
      </trkpt>
      <trkpt lat="45.0479" lon="5.58307">
        <ele>1369</ele>
        <time>2022-05-16T12:22:01Z</time>
      </trkpt>
      <trkpt lat="45.04799" lon="5.58322">
        <ele>1372</ele>
        <time>2022-05-16T12:22:08Z</time>
      </trkpt>
      <trkpt lat="45.04816" lon="5.58373">
        <ele>1381</ele>
        <time>2022-05-16T12:22:28Z</time>
      </trkpt>
      <trkpt lat="45.0482" lon="5.58414">
        <ele>1390</ele>
        <time>2022-05-16T12:22:42Z</time>
      </trkpt>
      <trkpt lat="45.04829" lon="5.58455">
        <ele>1399</ele>
        <time>2022-05-16T12:22:57Z</time>
      </trkpt>
      <trkpt lat="45.04839" lon="5.58472">
        <ele>1402</ele>
        <time>2022-05-16T12:23:05Z</time>
      </trkpt>
      <trkpt lat="45.04843" lon="5.58489">
        <ele>1407</ele>
        <time>2022-05-16T12:23:12Z</time>
      </trkpt>
      <trkpt lat="45.04853" lon="5.58491">
        <ele>1409</ele>
        <time>2022-05-16T12:23:17Z</time>
      </trkpt>
      <trkpt lat="45.04864" lon="5.58482">
        <ele>1408</ele>
        <time>2022-05-16T12:23:23Z</time>
      </trkpt>
      <trkpt lat="45.04902" lon="5.58433">
        <ele>1401</ele>
        <time>2022-05-16T12:23:49Z</time>
      </trkpt>
      <trkpt lat="45.04914" lon="5.58423">
        <ele>1399</ele>
        <time>2022-05-16T12:23:56Z</time>
      </trkpt>
      <trkpt lat="45.04939" lon="5.58426">
        <ele>1405</ele>
        <time>2022-05-16T12:24:08Z</time>
      </trkpt>
      <trkpt lat="45.04955" lon="5.58436">
        <ele>1410</ele>
        <time>2022-05-16T12:24:17Z</time>
      </trkpt>
      <trkpt lat="45.04969" lon="5.58439">
        <ele>1414</ele>
        <time>2022-05-16T12:24:24Z</time>
      </trkpt>
      <trkpt lat="45.04989" lon="5.58438">
        <ele>1417</ele>
        <time>2022-05-16T12:24:34Z</time>
      </trkpt>
      <trkpt lat="45.05039" lon="5.58418">
        <ele>1422</ele>
        <time>2022-05-16T12:25:00Z</time>
      </trkpt>
      <trkpt lat="45.05061" lon="5.58418">
        <ele>1427</ele>
        <time>2022-05-16T12:25:11Z</time>
      </trkpt>
      <trkpt lat="45.05118" lon="5.58424">
        <ele>1433</ele>
        <time>2022-05-16T12:25:40Z</time>
      </trkpt>
      <trkpt lat="45.05141" lon="5.58435">
        <ele>1435</ele>
        <time>2022-05-16T12:25:52Z</time>
      </trkpt>
      <trkpt lat="45.05156" lon="5.58447">
        <ele>1435</ele>
        <time>2022-05-16T12:26:01Z</time>
      </trkpt>
      <trkpt lat="45.05162" lon="5.58457">
        <ele>1435</ele>
        <time>2022-05-16T12:26:05Z</time>
      </trkpt>
      <trkpt lat="45.05157" lon="5.58469">
        <ele>1436</ele>
        <time>2022-05-16T12:26:10Z</time>
      </trkpt>
      <trkpt lat="45.05139" lon="5.58486">
        <ele>1438</ele>
        <time>2022-05-16T12:26:21Z</time>
      </trkpt>
      <trkpt lat="45.05132" lon="5.58501">
        <ele>1440</ele>
        <time>2022-05-16T12:26:27Z</time>
      </trkpt>
      <trkpt lat="45.0511" lon="5.58529">
        <ele>1442</ele>
        <time>2022-05-16T12:26:42Z</time>
      </trkpt>
      <trkpt lat="45.05107" lon="5.58536">
        <ele>1442</ele>
        <time>2022-05-16T12:26:45Z</time>
      </trkpt>
      <trkpt lat="45.05106" lon="5.58566">
        <ele>1442</ele>
        <time>2022-05-16T12:26:56Z</time>
      </trkpt>
      <trkpt lat="45.05111" lon="5.58594">
        <ele>1442</ele>
        <time>2022-05-16T12:27:06Z</time>
      </trkpt>
      <trkpt lat="45.05113" lon="5.58598">
        <ele>1442</ele>
        <time>2022-05-16T12:27:08Z</time>
      </trkpt>
      <trkpt lat="45.0512" lon="5.58601">
        <ele>1441</ele>
        <time>2022-05-16T12:27:11Z</time>
      </trkpt>
      <trkpt lat="45.05126" lon="5.58607">
        <ele>1440</ele>
        <time>2022-05-16T12:27:15Z</time>
      </trkpt>
      <trkpt lat="45.0514" lon="5.58612">
        <ele>1438</ele>
        <time>2022-05-16T12:27:22Z</time>
      </trkpt>
      <trkpt lat="45.05148" lon="5.58618">
        <ele>1438</ele>
        <time>2022-05-16T12:27:27Z</time>
      </trkpt>
      <trkpt lat="45.05161" lon="5.58648">
        <ele>1439</ele>
        <time>2022-05-16T12:27:39Z</time>
      </trkpt>
      <trkpt lat="45.05171" lon="5.58663">
        <ele>1440</ele>
        <time>2022-05-16T12:27:46Z</time>
      </trkpt>
      <trkpt lat="45.05176" lon="5.58662">
        <ele>1440</ele>
        <time>2022-05-16T12:27:49Z</time>
      </trkpt>
      <trkpt lat="45.05183" lon="5.58665">
        <ele>1441</ele>
        <time>2022-05-16T12:27:53Z</time>
      </trkpt>
      <trkpt lat="45.05212" lon="5.58647">
        <ele>1440</ele>
        <time>2022-05-16T12:28:08Z</time>
      </trkpt>
      <trkpt lat="45.05225" lon="5.58624">
        <ele>1437</ele>
        <time>2022-05-16T12:28:19Z</time>
      </trkpt>
      <trkpt lat="45.05237" lon="5.5861">
        <ele>1435</ele>
        <time>2022-05-16T12:28:27Z</time>
      </trkpt>
      <trkpt lat="45.05286" lon="5.58585">
        <ele>1433</ele>
        <time>2022-05-16T12:28:53Z</time>
      </trkpt>
      <trkpt lat="45.05305" lon="5.58579">
        <ele>1434</ele>
        <time>2022-05-16T12:29:02Z</time>
      </trkpt>
      <trkpt lat="45.05318" lon="5.58576">
        <ele>1434</ele>
        <time>2022-05-16T12:29:09Z</time>
      </trkpt>
      <trkpt lat="45.05326" lon="5.58582">
        <ele>1436</ele>
        <time>2022-05-16T12:29:14Z</time>
      </trkpt>
      <trkpt lat="45.0532" lon="5.58588">
        <ele>1437</ele>
        <time>2022-05-16T12:29:17Z</time>
      </trkpt>
      <trkpt lat="45.05308" lon="5.5862">
        <ele>1441</ele>
        <time>2022-05-16T12:29:30Z</time>
      </trkpt>
      <trkpt lat="45.05297" lon="5.5864">
        <ele>1443</ele>
        <time>2022-05-16T12:29:39Z</time>
      </trkpt>
      <trkpt lat="45.05304" lon="5.58675">
        <ele>1449</ele>
        <time>2022-05-16T12:29:52Z</time>
      </trkpt>
      <trkpt lat="45.053" lon="5.58708">
        <ele>1453</ele>
        <time>2022-05-16T12:30:04Z</time>
      </trkpt>
      <trkpt lat="45.05296" lon="5.58731">
        <ele>1456</ele>
        <time>2022-05-16T12:30:12Z</time>
      </trkpt>
      <trkpt lat="45.05275" lon="5.58761">
        <ele>1460</ele>
        <time>2022-05-16T12:30:27Z</time>
      </trkpt>
      <trkpt lat="45.05271" lon="5.58797">
        <ele>1466</ele>
        <time>2022-05-16T12:30:40Z</time>
      </trkpt>
      <trkpt lat="45.05314" lon="5.58873">
        <ele>1471</ele>
        <time>2022-05-16T12:31:14Z</time>
      </trkpt>
      <trkpt lat="45.05351" lon="5.58981">
        <ele>1485</ele>
        <time>2022-05-16T12:31:57Z</time>
      </trkpt>
      <trkpt lat="45.05351" lon="5.58965">
        <ele>1482</ele>
        <time>2022-05-16T12:32:02Z</time>
      </trkpt>
      <trkpt lat="45.05351" lon="5.58981">
        <ele>1485</ele>
        <time>2022-05-16T12:32:08Z</time>
      </trkpt>
      <trkpt lat="45.0539" lon="5.59023">
        <ele>1487</ele>
        <time>2022-05-16T12:32:33Z</time>
      </trkpt>
      <trkpt lat="45.05418" lon="5.59036">
        <ele>1484</ele>
        <time>2022-05-16T12:32:47Z</time>
      </trkpt>
      <trkpt lat="45.05446" lon="5.59072">
        <ele>1488</ele>
        <time>2022-05-16T12:33:06Z</time>
      </trkpt>
      <trkpt lat="45.05474" lon="5.59083">
        <ele>1490</ele>
        <time>2022-05-16T12:33:21Z</time>
      </trkpt>
      <trkpt lat="45.05497" lon="5.59073">
        <ele>1488</ele>
        <time>2022-05-16T12:33:33Z</time>
      </trkpt>
      <trkpt lat="45.05507" lon="5.59076">
        <ele>1490</ele>
        <time>2022-05-16T12:33:38Z</time>
      </trkpt>
      <trkpt lat="45.05514" lon="5.59082">
        <ele>1493</ele>
        <time>2022-05-16T12:33:42Z</time>
      </trkpt>
      <trkpt lat="45.0553" lon="5.59083">
        <ele>1496</ele>
        <time>2022-05-16T12:33:50Z</time>
      </trkpt>
      <trkpt lat="45.05534" lon="5.59062">
        <ele>1493</ele>
        <time>2022-05-16T12:33:58Z</time>
      </trkpt>
      <trkpt lat="45.05546" lon="5.59032">
        <ele>1490</ele>
        <time>2022-05-16T12:34:10Z</time>
      </trkpt>
      <trkpt lat="45.05586" lon="5.58986">
        <ele>1489</ele>
        <time>2022-05-16T12:34:36Z</time>
      </trkpt>
      <trkpt lat="45.05614" lon="5.58978">
        <ele>1493</ele>
        <time>2022-05-16T12:34:50Z</time>
      </trkpt>
      <trkpt lat="45.05695" lon="5.58914">
        <ele>1491</ele>
        <time>2022-05-16T12:35:36Z</time>
      </trkpt>
      <trkpt lat="45.0571" lon="5.58907">
        <ele>1490</ele>
        <time>2022-05-16T12:35:44Z</time>
      </trkpt>
      <trkpt lat="45.05728" lon="5.58893">
        <ele>1488</ele>
        <time>2022-05-16T12:35:55Z</time>
      </trkpt>
      <trkpt lat="45.05743" lon="5.58885">
        <ele>1488</ele>
        <time>2022-05-16T12:36:03Z</time>
      </trkpt>
      <trkpt lat="45.05752" lon="5.58885">
        <ele>1489</ele>
        <time>2022-05-16T12:36:07Z</time>
      </trkpt>
      <trkpt lat="45.05759" lon="5.58903">
        <ele>1492</ele>
        <time>2022-05-16T12:36:14Z</time>
      </trkpt>
      <trkpt lat="45.05752" lon="5.58949">
        <ele>1497</ele>
        <time>2022-05-16T12:36:31Z</time>
      </trkpt>
      <trkpt lat="45.05729" lon="5.59009">
        <ele>1502</ele>
        <time>2022-05-16T12:36:55Z</time>
      </trkpt>
      <trkpt lat="45.05735" lon="5.59068">
        <ele>1502</ele>
        <time>2022-05-16T12:37:16Z</time>
      </trkpt>
      <trkpt lat="45.05739" lon="5.59076">
        <ele>1501</ele>
        <time>2022-05-16T12:37:20Z</time>
      </trkpt>
      <trkpt lat="45.05758" lon="5.59079">
        <ele>1499</ele>
        <time>2022-05-16T12:37:29Z</time>
      </trkpt>
      <trkpt lat="45.05785" lon="5.59079">
        <ele>1501</ele>
        <time>2022-05-16T12:37:43Z</time>
      </trkpt>
      <trkpt lat="45.05791" lon="5.59084">
        <ele>1503</ele>
        <time>2022-05-16T12:37:46Z</time>
      </trkpt>
      <trkpt lat="45.05794" lon="5.59091">
        <ele>1504</ele>
        <time>2022-05-16T12:37:49Z</time>
      </trkpt>
      <trkpt lat="45.05799" lon="5.5909">
        <ele>1504</ele>
        <time>2022-05-16T12:37:52Z</time>
      </trkpt>
      <trkpt lat="45.05824" lon="5.59066">
        <ele>1503</ele>
        <time>2022-05-16T12:38:07Z</time>
      </trkpt>
      <trkpt lat="45.05853" lon="5.59047">
        <ele>1503</ele>
        <time>2022-05-16T12:38:23Z</time>
      </trkpt>
      <trkpt lat="45.05866" lon="5.59031">
        <ele>1501</ele>
        <time>2022-05-16T12:38:31Z</time>
      </trkpt>
      <trkpt lat="45.05971" lon="5.58955">
        <ele>1504</ele>
        <time>2022-05-16T12:39:30Z</time>
      </trkpt>
      <trkpt lat="45.05988" lon="5.58933">
        <ele>1503</ele>
        <time>2022-05-16T12:39:42Z</time>
      </trkpt>
      <trkpt lat="45.06034" lon="5.58855">
        <ele>1495</ele>
        <time>2022-05-16T12:40:18Z</time>
      </trkpt>
      <trkpt lat="45.06043" lon="5.58844">
        <ele>1494</ele>
        <time>2022-05-16T12:40:24Z</time>
      </trkpt>
      <trkpt lat="45.06063" lon="5.58831">
        <ele>1495</ele>
        <time>2022-05-16T12:40:35Z</time>
      </trkpt>
      <trkpt lat="45.06094" lon="5.58824">
        <ele>1499</ele>
        <time>2022-05-16T12:40:51Z</time>
      </trkpt>
      <trkpt lat="45.06106" lon="5.58819">
        <ele>1500</ele>
        <time>2022-05-16T12:40:57Z</time>
      </trkpt>
      <trkpt lat="45.06173" lon="5.58782">
        <ele>1501</ele>
        <time>2022-05-16T12:41:33Z</time>
      </trkpt>
      <trkpt lat="45.06179" lon="5.58774">
        <ele>1500</ele>
        <time>2022-05-16T12:41:37Z</time>
      </trkpt>
      <trkpt lat="45.06189" lon="5.58748">
        <ele>1496</ele>
        <time>2022-05-16T12:41:47Z</time>
      </trkpt>
      <trkpt lat="45.06223" lon="5.58711">
        <ele>1497</ele>
        <time>2022-05-16T12:42:09Z</time>
      </trkpt>
      <trkpt lat="45.06258" lon="5.58657">
        <ele>1492</ele>
        <time>2022-05-16T12:42:35Z</time>
      </trkpt>
      <trkpt lat="45.06271" lon="5.5863">
        <ele>1489</ele>
        <time>2022-05-16T12:42:46Z</time>
      </trkpt>
      <trkpt lat="45.06324" lon="5.58566">
        <ele>1494</ele>
        <time>2022-05-16T12:43:21Z</time>
      </trkpt>
      <trkpt lat="45.06335" lon="5.58549">
        <ele>1495</ele>
        <time>2022-05-16T12:43:29Z</time>
      </trkpt>
      <trkpt lat="45.06347" lon="5.58526">
        <ele>1494</ele>
        <time>2022-05-16T12:43:39Z</time>
      </trkpt>
      <trkpt lat="45.06358" lon="5.58495">
        <ele>1490</ele>
        <time>2022-05-16T12:43:52Z</time>
      </trkpt>
      <trkpt lat="45.06372" lon="5.58447">
        <ele>1483</ele>
        <time>2022-05-16T12:44:10Z</time>
      </trkpt>
      <trkpt lat="45.06378" lon="5.58415">
        <ele>1477</ele>
        <time>2022-05-16T12:44:22Z</time>
      </trkpt>
      <trkpt lat="45.06407" lon="5.58415">
        <ele>1485</ele>
        <time>2022-05-16T12:44:36Z</time>
      </trkpt>
      <trkpt lat="45.06423" lon="5.58418">
        <ele>1488</ele>
        <time>2022-05-16T12:44:44Z</time>
      </trkpt>
      <trkpt lat="45.06546" lon="5.58461">
        <ele>1493</ele>
        <time>2022-05-16T12:45:48Z</time>
      </trkpt>
      <trkpt lat="45.06588" lon="5.58479">
        <ele>1494</ele>
        <time>2022-05-16T12:46:10Z</time>
      </trkpt>
      <trkpt lat="45.06615" lon="5.58504">
        <ele>1496</ele>
        <time>2022-05-16T12:46:26Z</time>
      </trkpt>
      <trkpt lat="45.06626" lon="5.58517">
        <ele>1497</ele>
        <time>2022-05-16T12:46:33Z</time>
      </trkpt>
      <trkpt lat="45.06647" lon="5.58553">
        <ele>1504</ele>
        <time>2022-05-16T12:46:49Z</time>
      </trkpt>
      <trkpt lat="45.06695" lon="5.58624">
        <ele>1507</ele>
        <time>2022-05-16T12:47:24Z</time>
      </trkpt>
      <trkpt lat="45.06739" lon="5.58706">
        <ele>1505</ele>
        <time>2022-05-16T12:48:01Z</time>
      </trkpt>
      <trkpt lat="45.06764" lon="5.58822">
        <ele>1515</ele>
        <time>2022-05-16T12:48:43Z</time>
      </trkpt>
      <trkpt lat="45.06789" lon="5.58862">
        <ele>1509</ele>
        <time>2022-05-16T12:49:02Z</time>
      </trkpt>
      <trkpt lat="45.06813" lon="5.58971">
        <ele>1519</ele>
        <time>2022-05-16T12:49:43Z</time>
      </trkpt>
      <trkpt lat="45.06838" lon="5.5899">
        <ele>1510</ele>
        <time>2022-05-16T12:49:57Z</time>
      </trkpt>
      <trkpt lat="45.06881" lon="5.59011">
        <ele>1508</ele>
        <time>2022-05-16T12:50:20Z</time>
      </trkpt>
      <trkpt lat="45.06942" lon="5.59034">
        <ele>1509</ele>
        <time>2022-05-16T12:50:51Z</time>
      </trkpt>
      <trkpt lat="45.07039" lon="5.59065">
        <ele>1501</ele>
        <time>2022-05-16T12:51:41Z</time>
      </trkpt>
      <trkpt lat="45.0705" lon="5.59074">
        <ele>1499</ele>
        <time>2022-05-16T12:51:47Z</time>
      </trkpt>
      <trkpt lat="45.07056" lon="5.59083">
        <ele>1500</ele>
        <time>2022-05-16T12:51:52Z</time>
      </trkpt>
      <trkpt lat="45.07069" lon="5.59154">
        <ele>1507</ele>
        <time>2022-05-16T12:52:18Z</time>
      </trkpt>
      <trkpt lat="45.07069" lon="5.59194">
        <ele>1511</ele>
        <time>2022-05-16T12:52:32Z</time>
      </trkpt>
      <trkpt lat="45.07062" lon="5.59219">
        <ele>1516</ele>
        <time>2022-05-16T12:52:41Z</time>
      </trkpt>
      <trkpt lat="45.07057" lon="5.59271">
        <ele>1524</ele>
        <time>2022-05-16T12:53:00Z</time>
      </trkpt>
      <trkpt lat="45.07057" lon="5.59279">
        <ele>1524</ele>
        <time>2022-05-16T12:53:03Z</time>
      </trkpt>
      <trkpt lat="45.07062" lon="5.59295">
        <ele>1523</ele>
        <time>2022-05-16T12:53:09Z</time>
      </trkpt>
      <trkpt lat="45.0706" lon="5.59311">
        <ele>1526</ele>
        <time>2022-05-16T12:53:15Z</time>
      </trkpt>
      <trkpt lat="45.07067" lon="5.59342">
        <ele>1527</ele>
        <time>2022-05-16T12:53:26Z</time>
      </trkpt>
      <trkpt lat="45.07059" lon="5.59392">
        <ele>1542</ele>
        <time>2022-05-16T12:53:44Z</time>
      </trkpt>
      <trkpt lat="45.0706" lon="5.59403">
        <ele>1544</ele>
        <time>2022-05-16T12:53:48Z</time>
      </trkpt>
      <trkpt lat="45.07064" lon="5.59409">
        <ele>1544</ele>
        <time>2022-05-16T12:53:51Z</time>
      </trkpt>
      <trkpt lat="45.0707" lon="5.5941">
        <ele>1542</ele>
        <time>2022-05-16T12:53:54Z</time>
      </trkpt>
      <trkpt lat="45.07084" lon="5.59405">
        <ele>1536</ele>
        <time>2022-05-16T12:54:01Z</time>
      </trkpt>
      <trkpt lat="45.071" lon="5.59408">
        <ele>1540</ele>
        <time>2022-05-16T12:54:09Z</time>
      </trkpt>
      <trkpt lat="45.07118" lon="5.59407">
        <ele>1543</ele>
        <time>2022-05-16T12:54:18Z</time>
      </trkpt>
      <trkpt lat="45.07146" lon="5.59393">
        <ele>1541</ele>
        <time>2022-05-16T12:54:33Z</time>
      </trkpt>
      <trkpt lat="45.07179" lon="5.59367">
        <ele>1531</ele>
        <time>2022-05-16T12:54:52Z</time>
      </trkpt>
      <trkpt lat="45.07181" lon="5.59368">
        <ele>1531</ele>
        <time>2022-05-16T12:54:53Z</time>
      </trkpt>
      <trkpt lat="45.07173" lon="5.59383">
        <ele>1539</ele>
        <time>2022-05-16T12:55:00Z</time>
      </trkpt>
      <trkpt lat="45.07181" lon="5.59379">
        <ele>1537</ele>
        <time>2022-05-16T12:55:04Z</time>
      </trkpt>
      <trkpt lat="45.07201" lon="5.59358">
        <ele>1528</ele>
        <time>2022-05-16T12:55:17Z</time>
      </trkpt>
      <trkpt lat="45.07209" lon="5.59359">
        <ele>1529</ele>
        <time>2022-05-16T12:55:21Z</time>
      </trkpt>
      <trkpt lat="45.07213" lon="5.59362">
        <ele>1530</ele>
        <time>2022-05-16T12:55:23Z</time>
      </trkpt>
      <trkpt lat="45.07232" lon="5.59395">
        <ele>1542</ele>
        <time>2022-05-16T12:55:38Z</time>
      </trkpt>
      <trkpt lat="45.07284" lon="5.59493">
        <ele>1555</ele>
        <time>2022-05-16T12:56:21Z</time>
      </trkpt>
      <trkpt lat="45.07302" lon="5.59518">
        <ele>1553</ele>
        <time>2022-05-16T12:56:34Z</time>
      </trkpt>
      <trkpt lat="45.07321" lon="5.59533">
        <ele>1547</ele>
        <time>2022-05-16T12:56:45Z</time>
      </trkpt>
      <trkpt lat="45.07329" lon="5.59544">
        <ele>1545</ele>
        <time>2022-05-16T12:56:50Z</time>
      </trkpt>
      <trkpt lat="45.07326" lon="5.59632">
        <ele>1560</ele>
        <time>2022-05-16T12:57:21Z</time>
      </trkpt>
      <trkpt lat="45.07368" lon="5.59674">
        <ele>1545</ele>
        <time>2022-05-16T12:57:47Z</time>
      </trkpt>
      <trkpt lat="45.07369" lon="5.59704">
        <ele>1553</ele>
        <time>2022-05-16T12:57:58Z</time>
      </trkpt>
      <trkpt lat="45.0739" lon="5.59711">
        <ele>1547</ele>
        <time>2022-05-16T12:58:09Z</time>
      </trkpt>
      <trkpt lat="45.074" lon="5.59717">
        <ele>1544</ele>
        <time>2022-05-16T12:58:14Z</time>
      </trkpt>
      <trkpt lat="45.07416" lon="5.59754">
        <ele>1550</ele>
        <time>2022-05-16T12:58:29Z</time>
      </trkpt>
      <trkpt lat="45.07417" lon="5.59792">
        <ele>1556</ele>
        <time>2022-05-16T12:58:43Z</time>
      </trkpt>
      <trkpt lat="45.07424" lon="5.59814">
        <ele>1554</ele>
        <time>2022-05-16T12:58:51Z</time>
      </trkpt>
      <trkpt lat="45.07433" lon="5.59834">
        <ele>1550</ele>
        <time>2022-05-16T12:59:00Z</time>
      </trkpt>
      <trkpt lat="45.07465" lon="5.59869">
        <ele>1528</ele>
        <time>2022-05-16T12:59:20Z</time>
      </trkpt>
      <trkpt lat="45.07465" lon="5.59879">
        <ele>1529</ele>
        <time>2022-05-16T12:59:23Z</time>
      </trkpt>
      <trkpt lat="45.07453" lon="5.59928">
        <ele>1543</ele>
        <time>2022-05-16T12:59:42Z</time>
      </trkpt>
      <trkpt lat="45.07452" lon="5.59946">
        <ele>1545</ele>
        <time>2022-05-16T12:59:48Z</time>
      </trkpt>
      <trkpt lat="45.07456" lon="5.59975">
        <ele>1545</ele>
        <time>2022-05-16T12:59:59Z</time>
      </trkpt>
      <trkpt lat="45.0745" lon="5.59995">
        <ele>1552</ele>
        <time>2022-05-16T13:00:06Z</time>
      </trkpt>
      <trkpt lat="45.07453" lon="5.6001">
        <ele>1552</ele>
        <time>2022-05-16T13:00:12Z</time>
      </trkpt>
      <trkpt lat="45.07479" lon="5.60039">
        <ele>1543</ele>
        <time>2022-05-16T13:00:28Z</time>
      </trkpt>
      <trkpt lat="45.07494" lon="5.60048">
        <ele>1538</ele>
        <time>2022-05-16T13:00:37Z</time>
      </trkpt>
      <trkpt lat="45.07518" lon="5.60051">
        <ele>1535</ele>
        <time>2022-05-16T13:00:49Z</time>
      </trkpt>
      <trkpt lat="45.07555" lon="5.60064">
        <ele>1539</ele>
        <time>2022-05-16T13:01:08Z</time>
      </trkpt>
      <trkpt lat="45.07571" lon="5.60053">
        <ele>1532</ele>
        <time>2022-05-16T13:01:17Z</time>
      </trkpt>
      <trkpt lat="45.07576" lon="5.60052">
        <ele>1531</ele>
        <time>2022-05-16T13:01:19Z</time>
      </trkpt>
      <trkpt lat="45.07586" lon="5.60057">
        <ele>1534</ele>
        <time>2022-05-16T13:01:24Z</time>
      </trkpt>
      <trkpt lat="45.07597" lon="5.60053">
        <ele>1532</ele>
        <time>2022-05-16T13:01:30Z</time>
      </trkpt>
      <trkpt lat="45.07623" lon="5.60051">
        <ele>1531</ele>
        <time>2022-05-16T13:01:43Z</time>
      </trkpt>
      <trkpt lat="45.07637" lon="5.60042">
        <ele>1527</ele>
        <time>2022-05-16T13:01:51Z</time>
      </trkpt>
      <trkpt lat="45.07655" lon="5.60022">
        <ele>1518</ele>
        <time>2022-05-16T13:02:02Z</time>
      </trkpt>
      <trkpt lat="45.07662" lon="5.60008">
        <ele>1511</ele>
        <time>2022-05-16T13:02:08Z</time>
      </trkpt>
      <trkpt lat="45.07666" lon="5.60005">
        <ele>1510</ele>
        <time>2022-05-16T13:02:11Z</time>
      </trkpt>
      <trkpt lat="45.07678" lon="5.6001">
        <ele>1512</ele>
        <time>2022-05-16T13:02:17Z</time>
      </trkpt>
      <trkpt lat="45.07695" lon="5.60028">
        <ele>1518</ele>
        <time>2022-05-16T13:02:27Z</time>
      </trkpt>
      <trkpt lat="45.07718" lon="5.60064">
        <ele>1531</ele>
        <time>2022-05-16T13:02:45Z</time>
      </trkpt>
      <trkpt lat="45.07732" lon="5.60068">
        <ele>1531</ele>
        <time>2022-05-16T13:02:52Z</time>
      </trkpt>
      <trkpt lat="45.07757" lon="5.60068">
        <ele>1526</ele>
        <time>2022-05-16T13:03:04Z</time>
      </trkpt>
      <trkpt lat="45.07779" lon="5.60079">
        <ele>1521</ele>
        <time>2022-05-16T13:03:16Z</time>
      </trkpt>
      <trkpt lat="45.078" lon="5.60096">
        <ele>1522</ele>
        <time>2022-05-16T13:03:28Z</time>
      </trkpt>
      <trkpt lat="45.07804" lon="5.6011">
        <ele>1528</ele>
        <time>2022-05-16T13:03:33Z</time>
      </trkpt>
      <trkpt lat="45.07833" lon="5.60131">
        <ele>1529</ele>
        <time>2022-05-16T13:03:50Z</time>
      </trkpt>
      <trkpt lat="45.07845" lon="5.60145">
        <ele>1535</ele>
        <time>2022-05-16T13:03:57Z</time>
      </trkpt>
      <trkpt lat="45.0785" lon="5.60148">
        <ele>1535</ele>
        <time>2022-05-16T13:04:00Z</time>
      </trkpt>
      <trkpt lat="45.0786" lon="5.60145">
        <ele>1531</ele>
        <time>2022-05-16T13:04:05Z</time>
      </trkpt>
      <trkpt lat="45.07903" lon="5.60172">
        <ele>1538</ele>
        <time>2022-05-16T13:04:29Z</time>
      </trkpt>
      <trkpt lat="45.07924" lon="5.60177">
        <ele>1536</ele>
        <time>2022-05-16T13:04:40Z</time>
      </trkpt>
      <trkpt lat="45.07963" lon="5.60181">
        <ele>1534</ele>
        <time>2022-05-16T13:04:59Z</time>
      </trkpt>
      <trkpt lat="45.07982" lon="5.60178">
        <ele>1530</ele>
        <time>2022-05-16T13:05:09Z</time>
      </trkpt>
      <trkpt lat="45.08007" lon="5.6017">
        <ele>1523</ele>
        <time>2022-05-16T13:05:21Z</time>
      </trkpt>
      <trkpt lat="45.08033" lon="5.60169">
        <ele>1521</ele>
        <time>2022-05-16T13:05:34Z</time>
      </trkpt>
      <trkpt lat="45.08077" lon="5.60177">
        <ele>1523</ele>
        <time>2022-05-16T13:05:57Z</time>
      </trkpt>
      <trkpt lat="45.08104" lon="5.60187">
        <ele>1525</ele>
        <time>2022-05-16T13:06:11Z</time>
      </trkpt>
      <trkpt lat="45.08159" lon="5.60202">
        <ele>1526</ele>
        <time>2022-05-16T13:06:39Z</time>
      </trkpt>
      <trkpt lat="45.08201" lon="5.6022">
        <ele>1529</ele>
        <time>2022-05-16T13:07:01Z</time>
      </trkpt>
      <trkpt lat="45.08211" lon="5.60222">
        <ele>1529</ele>
        <time>2022-05-16T13:07:06Z</time>
      </trkpt>
      <trkpt lat="45.0825" lon="5.60217">
        <ele>1524</ele>
        <time>2022-05-16T13:07:25Z</time>
      </trkpt>
      <trkpt lat="45.08271" lon="5.60221">
        <ele>1523</ele>
        <time>2022-05-16T13:07:36Z</time>
      </trkpt>
      <trkpt lat="45.08279" lon="5.60225">
        <ele>1524</ele>
        <time>2022-05-16T13:07:40Z</time>
      </trkpt>
      <trkpt lat="45.08284" lon="5.60238">
        <ele>1529</ele>
        <time>2022-05-16T13:07:45Z</time>
      </trkpt>
      <trkpt lat="45.08292" lon="5.60242">
        <ele>1530</ele>
        <time>2022-05-16T13:07:50Z</time>
      </trkpt>
      <trkpt lat="45.08302" lon="5.60229">
        <ele>1524</ele>
        <time>2022-05-16T13:07:56Z</time>
      </trkpt>
      <trkpt lat="45.08308" lon="5.60225">
        <ele>1522</ele>
        <time>2022-05-16T13:08:00Z</time>
      </trkpt>
      <trkpt lat="45.08318" lon="5.60224">
        <ele>1520</ele>
        <time>2022-05-16T13:08:05Z</time>
      </trkpt>
      <trkpt lat="45.08341" lon="5.60229">
        <ele>1520</ele>
        <time>2022-05-16T13:08:16Z</time>
      </trkpt>
      <trkpt lat="45.08352" lon="5.60236">
        <ele>1521</ele>
        <time>2022-05-16T13:08:22Z</time>
      </trkpt>
      <trkpt lat="45.08365" lon="5.60251">
        <ele>1525</ele>
        <time>2022-05-16T13:08:31Z</time>
      </trkpt>
      <trkpt lat="45.08385" lon="5.6026">
        <ele>1526</ele>
        <time>2022-05-16T13:08:41Z</time>
      </trkpt>
      <trkpt lat="45.08399" lon="5.6027">
        <ele>1527</ele>
        <time>2022-05-16T13:08:49Z</time>
      </trkpt>
      <trkpt lat="45.08423" lon="5.60295">
        <ele>1530</ele>
        <time>2022-05-16T13:09:04Z</time>
      </trkpt>
      <trkpt lat="45.08444" lon="5.60305">
        <ele>1526</ele>
        <time>2022-05-16T13:09:15Z</time>
      </trkpt>
      <trkpt lat="45.08463" lon="5.6032">
        <ele>1524</ele>
        <time>2022-05-16T13:09:26Z</time>
      </trkpt>
      <trkpt lat="45.0848" lon="5.60329">
        <ele>1520</ele>
        <time>2022-05-16T13:09:35Z</time>
      </trkpt>
      <trkpt lat="45.08491" lon="5.60339">
        <ele>1519</ele>
        <time>2022-05-16T13:09:42Z</time>
      </trkpt>
      <trkpt lat="45.08495" lon="5.60354">
        <ele>1520</ele>
        <time>2022-05-16T13:09:47Z</time>
      </trkpt>
      <trkpt lat="45.08491" lon="5.60377">
        <ele>1527</ele>
        <time>2022-05-16T13:09:56Z</time>
      </trkpt>
      <trkpt lat="45.08498" lon="5.60393">
        <ele>1528</ele>
        <time>2022-05-16T13:10:02Z</time>
      </trkpt>
      <trkpt lat="45.08508" lon="5.60403">
        <ele>1527</ele>
        <time>2022-05-16T13:10:08Z</time>
      </trkpt>
      <trkpt lat="45.08511" lon="5.6041">
        <ele>1528</ele>
        <time>2022-05-16T13:10:11Z</time>
      </trkpt>
      <trkpt lat="45.08512" lon="5.60433">
        <ele>1530</ele>
        <time>2022-05-16T13:10:20Z</time>
      </trkpt>
      <trkpt lat="45.08515" lon="5.6044">
        <ele>1530</ele>
        <time>2022-05-16T13:10:22Z</time>
      </trkpt>
      <trkpt lat="45.08525" lon="5.60451">
        <ele>1529</ele>
        <time>2022-05-16T13:10:29Z</time>
      </trkpt>
      <trkpt lat="45.08523" lon="5.60466">
        <ele>1531</ele>
        <time>2022-05-16T13:10:34Z</time>
      </trkpt>
      <trkpt lat="45.08516" lon="5.60483">
        <ele>1535</ele>
        <time>2022-05-16T13:10:41Z</time>
      </trkpt>
      <trkpt lat="45.08516" lon="5.60489">
        <ele>1535</ele>
        <time>2022-05-16T13:10:43Z</time>
      </trkpt>
      <trkpt lat="45.08535" lon="5.60491">
        <ele>1531</ele>
        <time>2022-05-16T13:10:53Z</time>
      </trkpt>
      <trkpt lat="45.08556" lon="5.60504">
        <ele>1528</ele>
        <time>2022-05-16T13:11:04Z</time>
      </trkpt>
      <trkpt lat="45.08578" lon="5.60503">
        <ele>1523</ele>
        <time>2022-05-16T13:11:15Z</time>
      </trkpt>
      <trkpt lat="45.08609" lon="5.60509">
        <ele>1520</ele>
        <time>2022-05-16T13:11:31Z</time>
      </trkpt>
      <trkpt lat="45.08619" lon="5.60506">
        <ele>1518</ele>
        <time>2022-05-16T13:11:36Z</time>
      </trkpt>
      <trkpt lat="45.08616" lon="5.60551">
        <ele>1528</ele>
        <time>2022-05-16T13:11:52Z</time>
      </trkpt>
      <trkpt lat="45.08608" lon="5.60559">
        <ele>1530</ele>
        <time>2022-05-16T13:11:57Z</time>
      </trkpt>
      <trkpt lat="45.08607" lon="5.60567">
        <ele>1532</ele>
        <time>2022-05-16T13:12:00Z</time>
      </trkpt>
      <trkpt lat="45.08615" lon="5.60584">
        <ele>1535</ele>
        <time>2022-05-16T13:12:07Z</time>
      </trkpt>
      <trkpt lat="45.08612" lon="5.60587">
        <ele>1535</ele>
        <time>2022-05-16T13:12:09Z</time>
      </trkpt>
      <trkpt lat="45.08586" lon="5.60586">
        <ele>1538</ele>
        <time>2022-05-16T13:12:22Z</time>
      </trkpt>
      <trkpt lat="45.08572" lon="5.60596">
        <ele>1542</ele>
        <time>2022-05-16T13:12:30Z</time>
      </trkpt>
      <trkpt lat="45.08538" lon="5.60637">
        <ele>1554</ele>
        <time>2022-05-16T13:12:52Z</time>
      </trkpt>
      <trkpt lat="45.08526" lon="5.60645">
        <ele>1558</ele>
        <time>2022-05-16T13:12:59Z</time>
      </trkpt>
      <trkpt lat="45.08513" lon="5.60645">
        <ele>1560</ele>
        <time>2022-05-16T13:13:05Z</time>
      </trkpt>
      <trkpt lat="45.0849" lon="5.60655">
        <ele>1565</ele>
        <time>2022-05-16T13:13:17Z</time>
      </trkpt>
      <trkpt lat="45.08475" lon="5.60656">
        <ele>1568</ele>
        <time>2022-05-16T13:13:25Z</time>
      </trkpt>
      <trkpt lat="45.08467" lon="5.60659">
        <ele>1570</ele>
        <time>2022-05-16T13:13:29Z</time>
      </trkpt>
      <trkpt lat="45.0845" lon="5.60676">
        <ele>1575</ele>
        <time>2022-05-16T13:13:39Z</time>
      </trkpt>
      <trkpt lat="45.08423" lon="5.60717">
        <ele>1584</ele>
        <time>2022-05-16T13:13:59Z</time>
      </trkpt>
      <trkpt lat="45.08403" lon="5.60762">
        <ele>1593</ele>
        <time>2022-05-16T13:14:18Z</time>
      </trkpt>
      <trkpt lat="45.08402" lon="5.60795">
        <ele>1596</ele>
        <time>2022-05-16T13:14:30Z</time>
      </trkpt>
      <trkpt lat="45.08361" lon="5.60825">
        <ele>1601</ele>
        <time>2022-05-16T13:14:53Z</time>
      </trkpt>
      <trkpt lat="45.0833" lon="5.60877">
        <ele>1612</ele>
        <time>2022-05-16T13:15:17Z</time>
      </trkpt>
      <trkpt lat="45.08323" lon="5.60905">
        <ele>1619</ele>
        <time>2022-05-16T13:15:27Z</time>
      </trkpt>
      <trkpt lat="45.08324" lon="5.60921">
        <ele>1623</ele>
        <time>2022-05-16T13:15:33Z</time>
      </trkpt>
      <trkpt lat="45.08321" lon="5.60928">
        <ele>1627</ele>
        <time>2022-05-16T13:15:36Z</time>
      </trkpt>
      <trkpt lat="45.08298" lon="5.60953">
        <ele>1640</ele>
        <time>2022-05-16T13:15:50Z</time>
      </trkpt>
      <trkpt lat="45.08288" lon="5.60992">
        <ele>1657</ele>
        <time>2022-05-16T13:16:05Z</time>
      </trkpt>
      <trkpt lat="45.08278" lon="5.60997">
        <ele>1659</ele>
        <time>2022-05-16T13:16:10Z</time>
      </trkpt>
      <trkpt lat="45.0828" lon="5.61014">
        <ele>1666</ele>
        <time>2022-05-16T13:16:16Z</time>
      </trkpt>
      <trkpt lat="45.08285" lon="5.61022">
        <ele>1669</ele>
        <time>2022-05-16T13:16:20Z</time>
      </trkpt>
      <trkpt lat="45.08282" lon="5.61028">
        <ele>1671</ele>
        <time>2022-05-16T13:16:23Z</time>
      </trkpt>
      <trkpt lat="45.0827" lon="5.61033">
        <ele>1674</ele>
        <time>2022-05-16T13:16:29Z</time>
      </trkpt>
      <trkpt lat="45.08226" lon="5.61042">
        <ele>1687</ele>
        <time>2022-05-16T13:16:51Z</time>
      </trkpt>
      <trkpt lat="45.08226" lon="5.61059">
        <ele>1695</ele>
        <time>2022-05-16T13:16:57Z</time>
      </trkpt>
      <trkpt lat="45.08236" lon="5.6108">
        <ele>1701</ele>
        <time>2022-05-16T13:17:06Z</time>
      </trkpt>
      <trkpt lat="45.08264" lon="5.61078">
        <ele>1693</ele>
        <time>2022-05-16T13:17:20Z</time>
      </trkpt>
      <trkpt lat="45.08281" lon="5.61068">
        <ele>1687</ele>
        <time>2022-05-16T13:17:29Z</time>
      </trkpt>
      <trkpt lat="45.08292" lon="5.61065">
        <ele>1685</ele>
        <time>2022-05-16T13:17:35Z</time>
      </trkpt>
      <trkpt lat="45.08305" lon="5.61066">
        <ele>1684</ele>
        <time>2022-05-16T13:17:41Z</time>
      </trkpt>
      <trkpt lat="45.08311" lon="5.61071">
        <ele>1685</ele>
        <time>2022-05-16T13:17:45Z</time>
      </trkpt>
      <trkpt lat="45.08314" lon="5.61079">
        <ele>1688</ele>
        <time>2022-05-16T13:17:48Z</time>
      </trkpt>
      <trkpt lat="45.08322" lon="5.61083">
        <ele>1688</ele>
        <time>2022-05-16T13:17:52Z</time>
      </trkpt>
      <trkpt lat="45.08326" lon="5.61089">
        <ele>1689</ele>
        <time>2022-05-16T13:17:55Z</time>
      </trkpt>
      <trkpt lat="45.08341" lon="5.6115">
        <ele>1701</ele>
        <time>2022-05-16T13:18:18Z</time>
      </trkpt>
      <trkpt lat="45.08341" lon="5.61171">
        <ele>1706</ele>
        <time>2022-05-16T13:18:26Z</time>
      </trkpt>
      <trkpt lat="45.08345" lon="5.61198">
        <ele>1710</ele>
        <time>2022-05-16T13:18:35Z</time>
      </trkpt>
      <trkpt lat="45.08344" lon="5.61235">
        <ele>1717</ele>
        <time>2022-05-16T13:18:48Z</time>
      </trkpt>
      <trkpt lat="45.08337" lon="5.61254">
        <ele>1721</ele>
        <time>2022-05-16T13:18:56Z</time>
      </trkpt>
      <trkpt lat="45.0833" lon="5.61285">
        <ele>1726</ele>
        <time>2022-05-16T13:19:07Z</time>
      </trkpt>
      <trkpt lat="45.0833" lon="5.61314">
        <ele>1730</ele>
        <time>2022-05-16T13:19:18Z</time>
      </trkpt>
      <trkpt lat="45.08351" lon="5.61349">
        <ele>1733</ele>
        <time>2022-05-16T13:19:34Z</time>
      </trkpt>
      <trkpt lat="45.08354" lon="5.61346">
        <ele>1734</ele>
        <time>2022-05-16T13:19:36Z</time>
      </trkpt>
      <trkpt lat="45.08351" lon="5.61349">
        <ele>1733</ele>
        <time>2022-05-16T13:19:38Z</time>
      </trkpt>
      <trkpt lat="45.08357" lon="5.61358">
        <ele>1733</ele>
        <time>2022-05-16T13:19:42Z</time>
      </trkpt>
      <trkpt lat="45.08344" lon="5.61337">
        <ele>1734</ele>
        <time>2022-05-16T13:19:52Z</time>
      </trkpt>
      <trkpt lat="45.08357" lon="5.61358">
        <ele>1733</ele>
        <time>2022-05-16T13:20:02Z</time>
      </trkpt>
      <trkpt lat="45.08366" lon="5.61359">
        <ele>1735</ele>
        <time>2022-05-16T13:20:06Z</time>
      </trkpt>
      <trkpt lat="45.08375" lon="5.61355">
        <ele>1737</ele>
        <time>2022-05-16T13:20:11Z</time>
      </trkpt>
      <trkpt lat="45.08378" lon="5.61356">
        <ele>1738</ele>
        <time>2022-05-16T13:20:13Z</time>
      </trkpt>
      <trkpt lat="45.0838" lon="5.61365">
        <ele>1738</ele>
        <time>2022-05-16T13:20:16Z</time>
      </trkpt>
      <trkpt lat="45.0839" lon="5.61376">
        <ele>1741</ele>
        <time>2022-05-16T13:20:22Z</time>
      </trkpt>
      <trkpt lat="45.08393" lon="5.61386">
        <ele>1742</ele>
        <time>2022-05-16T13:20:26Z</time>
      </trkpt>
      <trkpt lat="45.0841" lon="5.61398">
        <ele>1748</ele>
        <time>2022-05-16T13:20:36Z</time>
      </trkpt>
      <trkpt lat="45.08457" lon="5.61409">
        <ele>1765</ele>
        <time>2022-05-16T13:20:59Z</time>
      </trkpt>
      <trkpt lat="45.08468" lon="5.61419">
        <ele>1770</ele>
        <time>2022-05-16T13:21:06Z</time>
      </trkpt>
      <trkpt lat="45.0849" lon="5.61416">
        <ele>1777</ele>
        <time>2022-05-16T13:21:17Z</time>
      </trkpt>
      <trkpt lat="45.08487" lon="5.61427">
        <ele>1774</ele>
        <time>2022-05-16T13:21:21Z</time>
      </trkpt>
      <trkpt lat="45.08488" lon="5.61443">
        <ele>1772</ele>
        <time>2022-05-16T13:21:27Z</time>
      </trkpt>
      <trkpt lat="45.08499" lon="5.61449">
        <ele>1775</ele>
        <time>2022-05-16T13:21:33Z</time>
      </trkpt>
      <trkpt lat="45.08554" lon="5.61446">
        <ele>1802</ele>
        <time>2022-05-16T13:22:00Z</time>
      </trkpt>
      <trkpt lat="45.08581" lon="5.61434">
        <ele>1811</ele>
        <time>2022-05-16T13:22:14Z</time>
      </trkpt>
      <trkpt lat="45.08589" lon="5.61437">
        <ele>1813</ele>
        <time>2022-05-16T13:22:19Z</time>
      </trkpt>
      <trkpt lat="45.08592" lon="5.61451">
        <ele>1818</ele>
        <time>2022-05-16T13:22:24Z</time>
      </trkpt>
      <trkpt lat="45.08598" lon="5.61456">
        <ele>1820</ele>
        <time>2022-05-16T13:22:27Z</time>
      </trkpt>
      <trkpt lat="45.08617" lon="5.61461">
        <ele>1824</ele>
        <time>2022-05-16T13:22:37Z</time>
      </trkpt>
      <trkpt lat="45.08621" lon="5.61467">
        <ele>1827</ele>
        <time>2022-05-16T13:22:40Z</time>
      </trkpt>
      <trkpt lat="45.0862" lon="5.61472">
        <ele>1828</ele>
        <time>2022-05-16T13:22:42Z</time>
      </trkpt>
      <trkpt lat="45.0861" lon="5.61475">
        <ele>1828</ele>
        <time>2022-05-16T13:22:47Z</time>
      </trkpt>
      <trkpt lat="45.08599" lon="5.61483">
        <ele>1829</ele>
        <time>2022-05-16T13:22:53Z</time>
      </trkpt>
      <trkpt lat="45.08604" lon="5.61496">
        <ele>1834</ele>
        <time>2022-05-16T13:22:58Z</time>
      </trkpt>
      <trkpt lat="45.08599" lon="5.61513">
        <ele>1830</ele>
        <time>2022-05-16T13:23:05Z</time>
      </trkpt>
      <trkpt lat="45.08601" lon="5.61515">
        <ele>1830</ele>
        <time>2022-05-16T13:23:06Z</time>
      </trkpt>
      <trkpt lat="45.08599" lon="5.61523">
        <ele>1827</ele>
        <time>2022-05-16T13:23:09Z</time>
      </trkpt>
      <trkpt lat="45.08611" lon="5.61524">
        <ele>1831</ele>
        <time>2022-05-16T13:23:15Z</time>
      </trkpt>
      <trkpt lat="45.08613" lon="5.61528">
        <ele>1831</ele>
        <time>2022-05-16T13:23:17Z</time>
      </trkpt>
      <trkpt lat="45.08612" lon="5.6154">
        <ele>1829</ele>
        <time>2022-05-16T13:23:21Z</time>
      </trkpt>
      <trkpt lat="45.08623" lon="5.61546">
        <ele>1834</ele>
        <time>2022-05-16T13:23:27Z</time>
      </trkpt>
      <trkpt lat="45.08629" lon="5.61561">
        <ele>1837</ele>
        <time>2022-05-16T13:23:33Z</time>
      </trkpt>
      <trkpt lat="45.08641" lon="5.6157">
        <ele>1847</ele>
        <time>2022-05-16T13:23:40Z</time>
      </trkpt>
      <trkpt lat="45.08642" lon="5.61575">
        <ele>1848</ele>
        <time>2022-05-16T13:23:42Z</time>
      </trkpt>
      <trkpt lat="45.08656" lon="5.61579">
        <ele>1862</ele>
        <time>2022-05-16T13:23:49Z</time>
      </trkpt>
      <trkpt lat="45.08683" lon="5.61594">
        <ele>1871</ele>
        <time>2022-05-16T13:24:03Z</time>
      </trkpt>
      <trkpt lat="45.08696" lon="5.61596">
        <ele>1873</ele>
        <time>2022-05-16T13:24:10Z</time>
      </trkpt>
      <trkpt lat="45.08699" lon="5.61601">
        <ele>1872</ele>
        <time>2022-05-16T13:24:12Z</time>
      </trkpt>
      <trkpt lat="45.0871" lon="5.61607">
        <ele>1874</ele>
        <time>2022-05-16T13:24:18Z</time>
      </trkpt>
      <trkpt lat="45.08717" lon="5.61607">
        <ele>1876</ele>
        <time>2022-05-16T13:24:21Z</time>
      </trkpt>
      <trkpt lat="45.08724" lon="5.61613">
        <ele>1878</ele>
        <time>2022-05-16T13:24:26Z</time>
      </trkpt>
      <trkpt lat="45.08726" lon="5.61621">
        <ele>1879</ele>
        <time>2022-05-16T13:24:29Z</time>
      </trkpt>
      <trkpt lat="45.08739" lon="5.61627">
        <ele>1885</ele>
        <time>2022-05-16T13:24:35Z</time>
      </trkpt>
      <trkpt lat="45.08743" lon="5.61659">
        <ele>1889</ele>
        <time>2022-05-16T13:24:47Z</time>
      </trkpt>
      <trkpt lat="45.08744" lon="5.61661">
        <ele>1890</ele>
        <time>2022-05-16T13:24:48Z</time>
      </trkpt>
      <trkpt lat="45.0875" lon="5.61661">
        <ele>1895</ele>
        <time>2022-05-16T13:24:51Z</time>
      </trkpt>
      <trkpt lat="45.08762" lon="5.61666">
        <ele>1894</ele>
        <time>2022-05-16T13:24:57Z</time>
      </trkpt>
      <trkpt lat="45.08774" lon="5.61687">
        <ele>1891</ele>
        <time>2022-05-16T13:25:07Z</time>
      </trkpt>
      <trkpt lat="45.08786" lon="5.61732">
        <ele>1891</ele>
        <time>2022-05-16T13:25:24Z</time>
      </trkpt>
      <trkpt lat="45.08794" lon="5.61746">
        <ele>1892</ele>
        <time>2022-05-16T13:25:30Z</time>
      </trkpt>
      <trkpt lat="45.08799" lon="5.61761">
        <ele>1892</ele>
        <time>2022-05-16T13:25:36Z</time>
      </trkpt>
      <trkpt lat="45.08806" lon="5.6177">
        <ele>1893</ele>
        <time>2022-05-16T13:25:41Z</time>
      </trkpt>
      <trkpt lat="45.08815" lon="5.61789">
        <ele>1896</ele>
        <time>2022-05-16T13:25:49Z</time>
      </trkpt>
      <trkpt lat="45.08819" lon="5.61809">
        <ele>1898</ele>
        <time>2022-05-16T13:25:56Z</time>
      </trkpt>
      <trkpt lat="45.08845" lon="5.6183">
        <ele>1909</ele>
        <time>2022-05-16T13:26:11Z</time>
      </trkpt>
      <trkpt lat="45.08857" lon="5.61836">
        <ele>1908</ele>
        <time>2022-05-16T13:26:17Z</time>
      </trkpt>
      <trkpt lat="45.08866" lon="5.61854">
        <ele>1899</ele>
        <time>2022-05-16T13:26:25Z</time>
      </trkpt>
      <trkpt lat="45.08872" lon="5.61859">
        <ele>1899</ele>
        <time>2022-05-16T13:26:29Z</time>
      </trkpt>
      <trkpt lat="45.08881" lon="5.6188">
        <ele>1896</ele>
        <time>2022-05-16T13:26:37Z</time>
      </trkpt>
      <trkpt lat="45.08883" lon="5.61903">
        <ele>1892</ele>
        <time>2022-05-16T13:26:45Z</time>
      </trkpt>
      <trkpt lat="45.08896" lon="5.61924">
        <ele>1896</ele>
        <time>2022-05-16T13:26:55Z</time>
      </trkpt>
      <trkpt lat="45.08903" lon="5.61944">
        <ele>1886</ele>
        <time>2022-05-16T13:27:03Z</time>
      </trkpt>
      <trkpt lat="45.08921" lon="5.61963">
        <ele>1888</ele>
        <time>2022-05-16T13:27:14Z</time>
      </trkpt>
      <trkpt lat="45.08939" lon="5.61969">
        <ele>1893</ele>
        <time>2022-05-16T13:27:24Z</time>
      </trkpt>
      <trkpt lat="45.08965" lon="5.61985">
        <ele>1901</ele>
        <time>2022-05-16T13:27:38Z</time>
      </trkpt>
      <trkpt lat="45.08985" lon="5.61977">
        <ele>1916</ele>
        <time>2022-05-16T13:27:48Z</time>
      </trkpt>
      <trkpt lat="45.08989" lon="5.61978">
        <ele>1919</ele>
        <time>2022-05-16T13:27:50Z</time>
      </trkpt>
      <trkpt lat="45.09014" lon="5.61998">
        <ele>1920</ele>
        <time>2022-05-16T13:28:05Z</time>
      </trkpt>
      <trkpt lat="45.09027" lon="5.62004">
        <ele>1909</ele>
        <time>2022-05-16T13:28:11Z</time>
      </trkpt>
      <trkpt lat="45.09039" lon="5.62004">
        <ele>1905</ele>
        <time>2022-05-16T13:28:18Z</time>
      </trkpt>
      <trkpt lat="45.09053" lon="5.62002">
        <ele>1902</ele>
        <time>2022-05-16T13:28:25Z</time>
      </trkpt>
      <trkpt lat="45.09057" lon="5.62">
        <ele>1903</ele>
        <time>2022-05-16T13:28:27Z</time>
      </trkpt>
      <trkpt lat="45.09059" lon="5.61994">
        <ele>1902</ele>
        <time>2022-05-16T13:28:29Z</time>
      </trkpt>
      <trkpt lat="45.0907" lon="5.62001">
        <ele>1896</ele>
        <time>2022-05-16T13:28:35Z</time>
      </trkpt>
      <trkpt lat="45.09072" lon="5.61994">
        <ele>1897</ele>
        <time>2022-05-16T13:28:38Z</time>
      </trkpt>
      <trkpt lat="45.09086" lon="5.6199">
        <ele>1891</ele>
        <time>2022-05-16T13:28:45Z</time>
      </trkpt>
      <trkpt lat="45.09096" lon="5.61983">
        <ele>1884</ele>
        <time>2022-05-16T13:28:50Z</time>
      </trkpt>
      <trkpt lat="45.091" lon="5.61979">
        <ele>1882</ele>
        <time>2022-05-16T13:28:53Z</time>
      </trkpt>
      <trkpt lat="45.09096" lon="5.6195">
        <ele>1889</ele>
        <time>2022-05-16T13:29:03Z</time>
      </trkpt>
      <trkpt lat="45.09118" lon="5.61948">
        <ele>1880</ele>
        <time>2022-05-16T13:29:14Z</time>
      </trkpt>
      <trkpt lat="45.09145" lon="5.61935">
        <ele>1874</ele>
        <time>2022-05-16T13:29:29Z</time>
      </trkpt>
      <trkpt lat="45.09161" lon="5.61922">
        <ele>1876</ele>
        <time>2022-05-16T13:29:38Z</time>
      </trkpt>
      <trkpt lat="45.09162" lon="5.6192">
        <ele>1877</ele>
        <time>2022-05-16T13:29:39Z</time>
      </trkpt>
      <trkpt lat="45.09155" lon="5.61912">
        <ele>1880</ele>
        <time>2022-05-16T13:29:43Z</time>
      </trkpt>
      <trkpt lat="45.09159" lon="5.61907">
        <ele>1878</ele>
        <time>2022-05-16T13:29:46Z</time>
      </trkpt>
      <trkpt lat="45.09157" lon="5.61902">
        <ele>1877</ele>
        <time>2022-05-16T13:29:48Z</time>
      </trkpt>
      <trkpt lat="45.09159" lon="5.61889">
        <ele>1873</ele>
        <time>2022-05-16T13:29:53Z</time>
      </trkpt>
      <trkpt lat="45.09157" lon="5.61877">
        <ele>1871</ele>
        <time>2022-05-16T13:29:57Z</time>
      </trkpt>
      <trkpt lat="45.09163" lon="5.61865">
        <ele>1868</ele>
        <time>2022-05-16T13:30:02Z</time>
      </trkpt>
      <trkpt lat="45.09165" lon="5.61853">
        <ele>1865</ele>
        <time>2022-05-16T13:30:07Z</time>
      </trkpt>
      <trkpt lat="45.09176" lon="5.61839">
        <ele>1864</ele>
        <time>2022-05-16T13:30:14Z</time>
      </trkpt>
      <trkpt lat="45.0919" lon="5.6181">
        <ele>1857</ele>
        <time>2022-05-16T13:30:26Z</time>
      </trkpt>
      <trkpt lat="45.09199" lon="5.61785">
        <ele>1850</ele>
        <time>2022-05-16T13:30:36Z</time>
      </trkpt>
      <trkpt lat="45.09263" lon="5.61757">
        <ele>1848</ele>
        <time>2022-05-16T13:31:10Z</time>
      </trkpt>
      <trkpt lat="45.09274" lon="5.61729">
        <ele>1837</ele>
        <time>2022-05-16T13:31:21Z</time>
      </trkpt>
      <trkpt lat="45.09274" lon="5.61723">
        <ele>1834</ele>
        <time>2022-05-16T13:31:23Z</time>
      </trkpt>
      <trkpt lat="45.09287" lon="5.61707">
        <ele>1828</ele>
        <time>2022-05-16T13:31:32Z</time>
      </trkpt>
      <trkpt lat="45.09315" lon="5.61705">
        <ele>1826</ele>
        <time>2022-05-16T13:31:46Z</time>
      </trkpt>
      <trkpt lat="45.09319" lon="5.617">
        <ele>1824</ele>
        <time>2022-05-16T13:31:49Z</time>
      </trkpt>
      <trkpt lat="45.09321" lon="5.61692">
        <ele>1820</ele>
        <time>2022-05-16T13:31:52Z</time>
      </trkpt>
      <trkpt lat="45.09331" lon="5.61693">
        <ele>1821</ele>
        <time>2022-05-16T13:31:57Z</time>
      </trkpt>
      <trkpt lat="45.09333" lon="5.61691">
        <ele>1820</ele>
        <time>2022-05-16T13:31:58Z</time>
      </trkpt>
      <trkpt lat="45.09332" lon="5.61687">
        <ele>1818</ele>
        <time>2022-05-16T13:31:59Z</time>
      </trkpt>
      <trkpt lat="45.09327" lon="5.61685">
        <ele>1817</ele>
        <time>2022-05-16T13:32:02Z</time>
      </trkpt>
      <trkpt lat="45.09326" lon="5.61682">
        <ele>1816</ele>
        <time>2022-05-16T13:32:03Z</time>
      </trkpt>
      <trkpt lat="45.09341" lon="5.61677">
        <ele>1814</ele>
        <time>2022-05-16T13:32:11Z</time>
      </trkpt>
      <trkpt lat="45.09346" lon="5.61671">
        <ele>1811</ele>
        <time>2022-05-16T13:32:14Z</time>
      </trkpt>
      <trkpt lat="45.09362" lon="5.61666">
        <ele>1809</ele>
        <time>2022-05-16T13:32:22Z</time>
      </trkpt>
      <trkpt lat="45.09372" lon="5.61667">
        <ele>1809</ele>
        <time>2022-05-16T13:32:27Z</time>
      </trkpt>
      <trkpt lat="45.09379" lon="5.61663">
        <ele>1808</ele>
        <time>2022-05-16T13:32:31Z</time>
      </trkpt>
      <trkpt lat="45.09386" lon="5.61656">
        <ele>1807</ele>
        <time>2022-05-16T13:32:35Z</time>
      </trkpt>
      <trkpt lat="45.0939" lon="5.61644">
        <ele>1804</ele>
        <time>2022-05-16T13:32:40Z</time>
      </trkpt>
      <trkpt lat="45.09401" lon="5.61631">
        <ele>1801</ele>
        <time>2022-05-16T13:32:47Z</time>
      </trkpt>
      <trkpt lat="45.09412" lon="5.61612">
        <ele>1798</ele>
        <time>2022-05-16T13:32:56Z</time>
      </trkpt>
      <trkpt lat="45.09418" lon="5.61609">
        <ele>1797</ele>
        <time>2022-05-16T13:32:59Z</time>
      </trkpt>
      <trkpt lat="45.09425" lon="5.616">
        <ele>1795</ele>
        <time>2022-05-16T13:33:04Z</time>
      </trkpt>
      <trkpt lat="45.09436" lon="5.61592">
        <ele>1793</ele>
        <time>2022-05-16T13:33:10Z</time>
      </trkpt>
      <trkpt lat="45.09448" lon="5.61588">
        <ele>1791</ele>
        <time>2022-05-16T13:33:16Z</time>
      </trkpt>
      <trkpt lat="45.09458" lon="5.6159">
        <ele>1791</ele>
        <time>2022-05-16T13:33:21Z</time>
      </trkpt>
      <trkpt lat="45.09478" lon="5.6157">
        <ele>1785</ele>
        <time>2022-05-16T13:33:33Z</time>
      </trkpt>
      <trkpt lat="45.09478" lon="5.61556">
        <ele>1781</ele>
        <time>2022-05-16T13:33:38Z</time>
      </trkpt>
      <trkpt lat="45.09481" lon="5.61551">
        <ele>1780</ele>
        <time>2022-05-16T13:33:41Z</time>
      </trkpt>
      <trkpt lat="45.09496" lon="5.61549">
        <ele>1778</ele>
        <time>2022-05-16T13:33:48Z</time>
      </trkpt>
      <trkpt lat="45.09508" lon="5.61543">
        <ele>1775</ele>
        <time>2022-05-16T13:33:55Z</time>
      </trkpt>
      <trkpt lat="45.09525" lon="5.6153">
        <ele>1771</ele>
        <time>2022-05-16T13:34:04Z</time>
      </trkpt>
      <trkpt lat="45.09527" lon="5.61526">
        <ele>1769</ele>
        <time>2022-05-16T13:34:06Z</time>
      </trkpt>
      <trkpt lat="45.0952" lon="5.61533">
        <ele>1772</ele>
        <time>2022-05-16T13:34:10Z</time>
      </trkpt>
      <trkpt lat="45.09525" lon="5.6153">
        <ele>1771</ele>
        <time>2022-05-16T13:34:13Z</time>
      </trkpt>
      <trkpt lat="45.09529" lon="5.61523">
        <ele>1768</ele>
        <time>2022-05-16T13:34:16Z</time>
      </trkpt>
      <trkpt lat="45.09535" lon="5.6152">
        <ele>1767</ele>
        <time>2022-05-16T13:34:19Z</time>
      </trkpt>
      <trkpt lat="45.09541" lon="5.61507">
        <ele>1763</ele>
        <time>2022-05-16T13:34:25Z</time>
      </trkpt>
      <trkpt lat="45.09553" lon="5.615">
        <ele>1760</ele>
        <time>2022-05-16T13:34:31Z</time>
      </trkpt>
      <trkpt lat="45.09557" lon="5.61487">
        <ele>1757</ele>
        <time>2022-05-16T13:34:36Z</time>
      </trkpt>
      <trkpt lat="45.09562" lon="5.6148">
        <ele>1755</ele>
        <time>2022-05-16T13:34:40Z</time>
      </trkpt>
      <trkpt lat="45.0956" lon="5.61471">
        <ele>1753</ele>
        <time>2022-05-16T13:34:43Z</time>
      </trkpt>
      <trkpt lat="45.09562" lon="5.61454">
        <ele>1748</ele>
        <time>2022-05-16T13:34:49Z</time>
      </trkpt>
      <trkpt lat="45.09564" lon="5.61452">
        <ele>1748</ele>
        <time>2022-05-16T13:34:51Z</time>
      </trkpt>
      <trkpt lat="45.09567" lon="5.61453">
        <ele>1748</ele>
        <time>2022-05-16T13:34:52Z</time>
      </trkpt>
      <trkpt lat="45.09571" lon="5.61448">
        <ele>1746</ele>
        <time>2022-05-16T13:34:55Z</time>
      </trkpt>
      <trkpt lat="45.09577" lon="5.61448">
        <ele>1745</ele>
        <time>2022-05-16T13:34:58Z</time>
      </trkpt>
      <trkpt lat="45.09583" lon="5.61441">
        <ele>1743</ele>
        <time>2022-05-16T13:35:02Z</time>
      </trkpt>
      <trkpt lat="45.0959" lon="5.6144">
        <ele>1742</ele>
        <time>2022-05-16T13:35:05Z</time>
      </trkpt>
      <trkpt lat="45.09602" lon="5.61427">
        <ele>1738</ele>
        <time>2022-05-16T13:35:13Z</time>
      </trkpt>
      <trkpt lat="45.09618" lon="5.61418">
        <ele>1734</ele>
        <time>2022-05-16T13:35:21Z</time>
      </trkpt>
      <trkpt lat="45.09644" lon="5.61445">
        <ele>1740</ele>
        <time>2022-05-16T13:35:37Z</time>
      </trkpt>
      <trkpt lat="45.09672" lon="5.61485">
        <ele>1750</ele>
        <time>2022-05-16T13:35:57Z</time>
      </trkpt>
      <trkpt lat="45.09695" lon="5.61506">
        <ele>1754</ele>
        <time>2022-05-16T13:36:11Z</time>
      </trkpt>
      <trkpt lat="45.09737" lon="5.61534">
        <ele>1758</ele>
        <time>2022-05-16T13:36:34Z</time>
      </trkpt>
      <trkpt lat="45.09775" lon="5.6157">
        <ele>1766</ele>
        <time>2022-05-16T13:36:57Z</time>
      </trkpt>
      <trkpt lat="45.09784" lon="5.61574">
        <ele>1767</ele>
        <time>2022-05-16T13:37:02Z</time>
      </trkpt>
      <trkpt lat="45.0983" lon="5.61579">
        <ele>1765</ele>
        <time>2022-05-16T13:37:25Z</time>
      </trkpt>
      <trkpt lat="45.0984" lon="5.61593">
        <ele>1769</ele>
        <time>2022-05-16T13:37:32Z</time>
      </trkpt>
      <trkpt lat="45.09856" lon="5.61604">
        <ele>1773</ele>
        <time>2022-05-16T13:37:41Z</time>
      </trkpt>
      <trkpt lat="45.09865" lon="5.61605">
        <ele>1773</ele>
        <time>2022-05-16T13:37:45Z</time>
      </trkpt>
      <trkpt lat="45.09889" lon="5.61597">
        <ele>1770</ele>
        <time>2022-05-16T13:37:58Z</time>
      </trkpt>
      <trkpt lat="45.09907" lon="5.61594">
        <ele>1769</ele>
        <time>2022-05-16T13:38:07Z</time>
      </trkpt>
      <trkpt lat="45.09933" lon="5.61607">
        <ele>1771</ele>
        <time>2022-05-16T13:38:21Z</time>
      </trkpt>
      <trkpt lat="45.09938" lon="5.61605">
        <ele>1770</ele>
        <time>2022-05-16T13:38:23Z</time>
      </trkpt>
      <trkpt lat="45.09958" lon="5.61586">
        <ele>1764</ele>
        <time>2022-05-16T13:38:35Z</time>
      </trkpt>
      <trkpt lat="45.0997" lon="5.61582">
        <ele>1762</ele>
        <time>2022-05-16T13:38:41Z</time>
      </trkpt>
      <trkpt lat="45.10006" lon="5.61574">
        <ele>1756</ele>
        <time>2022-05-16T13:39:00Z</time>
      </trkpt>
      <trkpt lat="45.10035" lon="5.61573">
        <ele>1752</ele>
        <time>2022-05-16T13:39:14Z</time>
      </trkpt>
      <trkpt lat="45.10079" lon="5.61593">
        <ele>1752</ele>
        <time>2022-05-16T13:39:37Z</time>
      </trkpt>
      <trkpt lat="45.10132" lon="5.61649">
        <ele>1760</ele>
        <time>2022-05-16T13:40:10Z</time>
      </trkpt>
      <trkpt lat="45.10139" lon="5.61652">
        <ele>1760</ele>
        <time>2022-05-16T13:40:14Z</time>
      </trkpt>
      <trkpt lat="45.10165" lon="5.61656">
        <ele>1757</ele>
        <time>2022-05-16T13:40:27Z</time>
      </trkpt>
      <trkpt lat="45.10188" lon="5.61666">
        <ele>1757</ele>
        <time>2022-05-16T13:40:39Z</time>
      </trkpt>
      <trkpt lat="45.10212" lon="5.61661">
        <ele>1753</ele>
        <time>2022-05-16T13:40:51Z</time>
      </trkpt>
      <trkpt lat="45.10252" lon="5.61663">
        <ele>1749</ele>
        <time>2022-05-16T13:41:11Z</time>
      </trkpt>
      <trkpt lat="45.10276" lon="5.61669">
        <ele>1748</ele>
        <time>2022-05-16T13:41:24Z</time>
      </trkpt>
      <trkpt lat="45.10312" lon="5.61682">
        <ele>1748</ele>
        <time>2022-05-16T13:41:42Z</time>
      </trkpt>
      <trkpt lat="45.10314" lon="5.61676">
        <ele>1746</ele>
        <time>2022-05-16T13:41:45Z</time>
      </trkpt>
      <trkpt lat="45.10312" lon="5.61682">
        <ele>1748</ele>
        <time>2022-05-16T13:41:47Z</time>
      </trkpt>
      <trkpt lat="45.10328" lon="5.61689">
        <ele>1748</ele>
        <time>2022-05-16T13:41:55Z</time>
      </trkpt>
      <trkpt lat="45.10381" lon="5.61688">
        <ele>1742</ele>
        <time>2022-05-16T13:42:22Z</time>
      </trkpt>
      <trkpt lat="45.10442" lon="5.6171">
        <ele>1736</ele>
        <time>2022-05-16T13:42:53Z</time>
      </trkpt>
      <trkpt lat="45.10446" lon="5.61715">
        <ele>1735</ele>
        <time>2022-05-16T13:42:56Z</time>
      </trkpt>
      <trkpt lat="45.10454" lon="5.6174">
        <ele>1738</ele>
        <time>2022-05-16T13:43:06Z</time>
      </trkpt>
      <trkpt lat="45.10456" lon="5.61797">
        <ele>1752</ele>
        <time>2022-05-16T13:43:26Z</time>
      </trkpt>
      <trkpt lat="45.10462" lon="5.61807">
        <ele>1753</ele>
        <time>2022-05-16T13:43:30Z</time>
      </trkpt>
      <trkpt lat="45.10428" lon="5.61888">
        <ele>1779</ele>
        <time>2022-05-16T13:44:04Z</time>
      </trkpt>
      <trkpt lat="45.10424" lon="5.61916">
        <ele>1785</ele>
        <time>2022-05-16T13:44:14Z</time>
      </trkpt>
      <trkpt lat="45.10426" lon="5.61933">
        <ele>1787</ele>
        <time>2022-05-16T13:44:20Z</time>
      </trkpt>
      <trkpt lat="45.10444" lon="5.61979">
        <ele>1791</ele>
        <time>2022-05-16T13:44:38Z</time>
      </trkpt>
      <trkpt lat="45.10498" lon="5.62003">
        <ele>1790</ele>
        <time>2022-05-16T13:45:07Z</time>
      </trkpt>
      <trkpt lat="45.10515" lon="5.62046">
        <ele>1790</ele>
        <time>2022-05-16T13:45:24Z</time>
      </trkpt>
      <trkpt lat="45.10513" lon="5.6206">
        <ele>1791</ele>
        <time>2022-05-16T13:45:29Z</time>
      </trkpt>
      <trkpt lat="45.10501" lon="5.62077">
        <ele>1794</ele>
        <time>2022-05-16T13:45:38Z</time>
      </trkpt>
      <trkpt lat="45.105" lon="5.62083">
        <ele>1794</ele>
        <time>2022-05-16T13:45:40Z</time>
      </trkpt>
      <trkpt lat="45.10504" lon="5.62093">
        <ele>1795</ele>
        <time>2022-05-16T13:45:44Z</time>
      </trkpt>
      <trkpt lat="45.10509" lon="5.62098">
        <ele>1795</ele>
        <time>2022-05-16T13:45:47Z</time>
      </trkpt>
      <trkpt lat="45.10547" lon="5.62112">
        <ele>1791</ele>
        <time>2022-05-16T13:46:07Z</time>
      </trkpt>
      <trkpt lat="45.10557" lon="5.62122">
        <ele>1791</ele>
        <time>2022-05-16T13:46:13Z</time>
      </trkpt>
      <trkpt lat="45.10575" lon="5.62134">
        <ele>1790</ele>
        <time>2022-05-16T13:46:23Z</time>
      </trkpt>
      <trkpt lat="45.10586" lon="5.62137">
        <ele>1789</ele>
        <time>2022-05-16T13:46:28Z</time>
      </trkpt>
      <trkpt lat="45.10619" lon="5.62141">
        <ele>1787</ele>
        <time>2022-05-16T13:46:45Z</time>
      </trkpt>
      <trkpt lat="45.10672" lon="5.62133">
        <ele>1781</ele>
        <time>2022-05-16T13:47:12Z</time>
      </trkpt>
      <trkpt lat="45.1074" lon="5.62133">
        <ele>1776</ele>
        <time>2022-05-16T13:47:46Z</time>
      </trkpt>
      <trkpt lat="45.10759" lon="5.62136">
        <ele>1775</ele>
        <time>2022-05-16T13:47:55Z</time>
      </trkpt>
      <trkpt lat="45.10788" lon="5.62153">
        <ele>1778</ele>
        <time>2022-05-16T13:48:11Z</time>
      </trkpt>
      <trkpt lat="45.10798" lon="5.62162">
        <ele>1779</ele>
        <time>2022-05-16T13:48:17Z</time>
      </trkpt>
      <trkpt lat="45.10827" lon="5.62176">
        <ele>1781</ele>
        <time>2022-05-16T13:48:32Z</time>
      </trkpt>
      <trkpt lat="45.10872" lon="5.62182">
        <ele>1773</ele>
        <time>2022-05-16T13:48:55Z</time>
      </trkpt>
      <trkpt lat="45.10891" lon="5.62189">
        <ele>1771</ele>
        <time>2022-05-16T13:49:05Z</time>
      </trkpt>
      <trkpt lat="45.1098" lon="5.62233">
        <ele>1765</ele>
        <time>2022-05-16T13:49:52Z</time>
      </trkpt>
      <trkpt lat="45.11014" lon="5.62257">
        <ele>1763</ele>
        <time>2022-05-16T13:50:11Z</time>
      </trkpt>
      <trkpt lat="45.11067" lon="5.62317">
        <ele>1761</ele>
        <time>2022-05-16T13:50:45Z</time>
      </trkpt>
      <trkpt lat="45.1108" lon="5.62329">
        <ele>1759</ele>
        <time>2022-05-16T13:50:52Z</time>
      </trkpt>
      <trkpt lat="45.11094" lon="5.62337">
        <ele>1758</ele>
        <time>2022-05-16T13:51:00Z</time>
      </trkpt>
      <trkpt lat="45.11135" lon="5.62339">
        <ele>1756</ele>
        <time>2022-05-16T13:51:21Z</time>
      </trkpt>
      <trkpt lat="45.11153" lon="5.62327">
        <ele>1757</ele>
        <time>2022-05-16T13:51:31Z</time>
      </trkpt>
      <trkpt lat="45.11164" lon="5.62323">
        <ele>1756</ele>
        <time>2022-05-16T13:51:36Z</time>
      </trkpt>
      <trkpt lat="45.11199" lon="5.62318">
        <ele>1747</ele>
        <time>2022-05-16T13:51:54Z</time>
      </trkpt>
      <trkpt lat="45.11205" lon="5.62319">
        <ele>1746</ele>
        <time>2022-05-16T13:51:57Z</time>
      </trkpt>
      <trkpt lat="45.11231" lon="5.62344">
        <ele>1740</ele>
        <time>2022-05-16T13:52:13Z</time>
      </trkpt>
      <trkpt lat="45.11264" lon="5.62368">
        <ele>1730</ele>
        <time>2022-05-16T13:52:31Z</time>
      </trkpt>
      <trkpt lat="45.1129" lon="5.62373">
        <ele>1723</ele>
        <time>2022-05-16T13:52:44Z</time>
      </trkpt>
      <trkpt lat="45.11313" lon="5.62369">
        <ele>1717</ele>
        <time>2022-05-16T13:52:56Z</time>
      </trkpt>
      <trkpt lat="45.11386" lon="5.62401">
        <ele>1711</ele>
        <time>2022-05-16T13:53:34Z</time>
      </trkpt>
      <trkpt lat="45.11431" lon="5.62433">
        <ele>1709</ele>
        <time>2022-05-16T13:53:59Z</time>
      </trkpt>
      <trkpt lat="45.115" lon="5.62455">
        <ele>1708</ele>
        <time>2022-05-16T13:54:35Z</time>
      </trkpt>
      <trkpt lat="45.1155" lon="5.62457">
        <ele>1694</ele>
        <time>2022-05-16T13:55:00Z</time>
      </trkpt>
      <trkpt lat="45.11595" lon="5.62468">
        <ele>1679</ele>
        <time>2022-05-16T13:55:23Z</time>
      </trkpt>
      <trkpt lat="45.11627" lon="5.62472">
        <ele>1668</ele>
        <time>2022-05-16T13:55:39Z</time>
      </trkpt>
      <trkpt lat="45.11716" lon="5.62468">
        <ele>1650</ele>
        <time>2022-05-16T13:56:23Z</time>
      </trkpt>
      <trkpt lat="45.11733" lon="5.62423">
        <ele>1648</ele>
        <time>2022-05-16T13:56:41Z</time>
      </trkpt>
      <trkpt lat="45.11777" lon="5.62344">
        <ele>1641</ele>
        <time>2022-05-16T13:57:17Z</time>
      </trkpt>
      <trkpt lat="45.11842" lon="5.62353">
        <ele>1643</ele>
        <time>2022-05-16T13:57:49Z</time>
      </trkpt>
      <trkpt lat="45.11898" lon="5.62355">
        <ele>1639</ele>
        <time>2022-05-16T13:58:17Z</time>
      </trkpt>
      <trkpt lat="45.11914" lon="5.62351">
        <ele>1638</ele>
        <time>2022-05-16T13:58:26Z</time>
      </trkpt>
      <trkpt lat="45.11975" lon="5.62347">
        <ele>1634</ele>
        <time>2022-05-16T13:58:56Z</time>
      </trkpt>
      <trkpt lat="45.12017" lon="5.62338">
        <ele>1632</ele>
        <time>2022-05-16T13:59:17Z</time>
      </trkpt>
      <trkpt lat="45.12029" lon="5.62338">
        <ele>1631</ele>
        <time>2022-05-16T13:59:23Z</time>
      </trkpt>
      <trkpt lat="45.12046" lon="5.62342">
        <ele>1629</ele>
        <time>2022-05-16T13:59:32Z</time>
      </trkpt>
      <trkpt lat="45.12057" lon="5.62338">
        <ele>1629</ele>
        <time>2022-05-16T13:59:38Z</time>
      </trkpt>
      <trkpt lat="45.12078" lon="5.62335">
        <ele>1627</ele>
        <time>2022-05-16T13:59:48Z</time>
      </trkpt>
      <trkpt lat="45.12105" lon="5.62345">
        <ele>1622</ele>
        <time>2022-05-16T14:00:02Z</time>
      </trkpt>
      <trkpt lat="45.12128" lon="5.62344">
        <ele>1617</ele>
        <time>2022-05-16T14:00:14Z</time>
      </trkpt>
      <trkpt lat="45.12162" lon="5.62357">
        <ele>1611</ele>
        <time>2022-05-16T14:00:31Z</time>
      </trkpt>
      <trkpt lat="45.12173" lon="5.62357">
        <ele>1609</ele>
        <time>2022-05-16T14:00:37Z</time>
      </trkpt>
      <trkpt lat="45.12197" lon="5.62346">
        <ele>1606</ele>
        <time>2022-05-16T14:00:50Z</time>
      </trkpt>
      <trkpt lat="45.12227" lon="5.62344">
        <ele>1603</ele>
        <time>2022-05-16T14:01:05Z</time>
      </trkpt>
      <trkpt lat="45.12258" lon="5.62335">
        <ele>1600</ele>
        <time>2022-05-16T14:01:20Z</time>
      </trkpt>
      <trkpt lat="45.12277" lon="5.62312">
        <ele>1596</ele>
        <time>2022-05-16T14:01:33Z</time>
      </trkpt>
      <trkpt lat="45.12303" lon="5.62296">
        <ele>1591</ele>
        <time>2022-05-16T14:01:47Z</time>
      </trkpt>
      <trkpt lat="45.12333" lon="5.62299">
        <ele>1591</ele>
        <time>2022-05-16T14:02:02Z</time>
      </trkpt>
      <trkpt lat="45.12369" lon="5.62289">
        <ele>1589</ele>
        <time>2022-05-16T14:02:20Z</time>
      </trkpt>
      <trkpt lat="45.1239" lon="5.62277">
        <ele>1587</ele>
        <time>2022-05-16T14:02:32Z</time>
      </trkpt>
      <trkpt lat="45.12398" lon="5.62275">
        <ele>1586</ele>
        <time>2022-05-16T14:02:36Z</time>
      </trkpt>
      <trkpt lat="45.12409" lon="5.62279">
        <ele>1587</ele>
        <time>2022-05-16T14:02:42Z</time>
      </trkpt>
      <trkpt lat="45.1247" lon="5.62319">
        <ele>1599</ele>
        <time>2022-05-16T14:03:15Z</time>
      </trkpt>
      <trkpt lat="45.12509" lon="5.62335">
        <ele>1604</ele>
        <time>2022-05-16T14:03:36Z</time>
      </trkpt>
      <trkpt lat="45.12527" lon="5.62338">
        <ele>1607</ele>
        <time>2022-05-16T14:03:45Z</time>
      </trkpt>
      <trkpt lat="45.12544" lon="5.62348">
        <ele>1610</ele>
        <time>2022-05-16T14:03:54Z</time>
      </trkpt>
      <trkpt lat="45.12554" lon="5.62346">
        <ele>1611</ele>
        <time>2022-05-16T14:03:59Z</time>
      </trkpt>
      <trkpt lat="45.1257" lon="5.62336">
        <ele>1613</ele>
        <time>2022-05-16T14:04:08Z</time>
      </trkpt>
      <trkpt lat="45.12609" lon="5.62336">
        <ele>1617</ele>
        <time>2022-05-16T14:04:27Z</time>
      </trkpt>
      <trkpt lat="45.12616" lon="5.62334">
        <ele>1617</ele>
        <time>2022-05-16T14:04:31Z</time>
      </trkpt>
      <trkpt lat="45.12625" lon="5.62331">
        <ele>1617</ele>
        <time>2022-05-16T14:04:35Z</time>
      </trkpt>
      <trkpt lat="45.12657" lon="5.62312">
        <ele>1619</ele>
        <time>2022-05-16T14:04:53Z</time>
      </trkpt>
      <trkpt lat="45.12661" lon="5.62312">
        <ele>1619</ele>
        <time>2022-05-16T14:04:55Z</time>
      </trkpt>
      <trkpt lat="45.12669" lon="5.62316">
        <ele>1620</ele>
        <time>2022-05-16T14:04:59Z</time>
      </trkpt>
      <trkpt lat="45.12702" lon="5.62361">
        <ele>1624</ele>
        <time>2022-05-16T14:05:22Z</time>
      </trkpt>
      <trkpt lat="45.12713" lon="5.62369">
        <ele>1625</ele>
        <time>2022-05-16T14:05:28Z</time>
      </trkpt>
      <trkpt lat="45.1273" lon="5.62368">
        <ele>1627</ele>
        <time>2022-05-16T14:05:37Z</time>
      </trkpt>
      <trkpt lat="45.12743" lon="5.62361">
        <ele>1627</ele>
        <time>2022-05-16T14:05:44Z</time>
      </trkpt>
      <trkpt lat="45.12755" lon="5.62345">
        <ele>1628</ele>
        <time>2022-05-16T14:05:52Z</time>
      </trkpt>
      <trkpt lat="45.12743" lon="5.62361">
        <ele>1627</ele>
        <time>2022-05-16T14:06:00Z</time>
      </trkpt>
      <trkpt lat="45.12749" lon="5.62308">
        <ele>1628</ele>
        <time>2022-05-16T14:06:19Z</time>
      </trkpt>
      <trkpt lat="45.12739" lon="5.62247">
        <ele>1628</ele>
        <time>2022-05-16T14:06:41Z</time>
      </trkpt>
      <trkpt lat="45.12732" lon="5.62231">
        <ele>1627</ele>
        <time>2022-05-16T14:06:48Z</time>
      </trkpt>
      <trkpt lat="45.1273" lon="5.62214">
        <ele>1626</ele>
        <time>2022-05-16T14:06:54Z</time>
      </trkpt>
      <trkpt lat="45.12732" lon="5.62202">
        <ele>1626</ele>
        <time>2022-05-16T14:06:58Z</time>
      </trkpt>
      <trkpt lat="45.12747" lon="5.62184">
        <ele>1629</ele>
        <time>2022-05-16T14:07:08Z</time>
      </trkpt>
      <trkpt lat="45.12761" lon="5.62153">
        <ele>1627</ele>
        <time>2022-05-16T14:07:21Z</time>
      </trkpt>
      <trkpt lat="45.12781" lon="5.62145">
        <ele>1626</ele>
        <time>2022-05-16T14:07:31Z</time>
      </trkpt>
      <trkpt lat="45.12794" lon="5.62144">
        <ele>1627</ele>
        <time>2022-05-16T14:07:38Z</time>
      </trkpt>
      <trkpt lat="45.12829" lon="5.62148">
        <ele>1631</ele>
        <time>2022-05-16T14:07:55Z</time>
      </trkpt>
      <trkpt lat="45.12857" lon="5.62158">
        <ele>1634</ele>
        <time>2022-05-16T14:08:10Z</time>
      </trkpt>
      <trkpt lat="45.12875" lon="5.62169">
        <ele>1636</ele>
        <time>2022-05-16T14:08:20Z</time>
      </trkpt>
      <trkpt lat="45.12922" lon="5.62209">
        <ele>1640</ele>
        <time>2022-05-16T14:08:47Z</time>
      </trkpt>
      <trkpt lat="45.12932" lon="5.62231">
        <ele>1644</ele>
        <time>2022-05-16T14:08:56Z</time>
      </trkpt>
      <trkpt lat="45.12945" lon="5.62241">
        <ele>1646</ele>
        <time>2022-05-16T14:09:04Z</time>
      </trkpt>
      <trkpt lat="45.12952" lon="5.6225">
        <ele>1647</ele>
        <time>2022-05-16T14:09:09Z</time>
      </trkpt>
      <trkpt lat="45.13023" lon="5.62244">
        <ele>1651</ele>
        <time>2022-05-16T14:09:44Z</time>
      </trkpt>
      <trkpt lat="45.13057" lon="5.62236">
        <ele>1653</ele>
        <time>2022-05-16T14:10:01Z</time>
      </trkpt>
      <trkpt lat="45.13077" lon="5.62234">
        <ele>1655</ele>
        <time>2022-05-16T14:10:11Z</time>
      </trkpt>
      <trkpt lat="45.13114" lon="5.62223">
        <ele>1654</ele>
        <time>2022-05-16T14:10:30Z</time>
      </trkpt>
      <trkpt lat="45.13145" lon="5.62225">
        <ele>1656</ele>
        <time>2022-05-16T14:10:46Z</time>
      </trkpt>
      <trkpt lat="45.13164" lon="5.62213">
        <ele>1654</ele>
        <time>2022-05-16T14:10:56Z</time>
      </trkpt>
      <trkpt lat="45.13187" lon="5.62212">
        <ele>1652</ele>
        <time>2022-05-16T14:11:08Z</time>
      </trkpt>
      <trkpt lat="45.13211" lon="5.62199">
        <ele>1648</ele>
        <time>2022-05-16T14:11:21Z</time>
      </trkpt>
      <trkpt lat="45.13231" lon="5.62194">
        <ele>1646</ele>
        <time>2022-05-16T14:11:31Z</time>
      </trkpt>
      <trkpt lat="45.13233" lon="5.6221">
        <ele>1649</ele>
        <time>2022-05-16T14:11:37Z</time>
      </trkpt>
      <trkpt lat="45.13231" lon="5.62194">
        <ele>1646</ele>
        <time>2022-05-16T14:11:42Z</time>
      </trkpt>
      <trkpt lat="45.13237" lon="5.62192">
        <ele>1645</ele>
        <time>2022-05-16T14:11:45Z</time>
      </trkpt>
      <trkpt lat="45.13246" lon="5.62192">
        <ele>1644</ele>
        <time>2022-05-16T14:11:50Z</time>
      </trkpt>
      <trkpt lat="45.13266" lon="5.62197">
        <ele>1644</ele>
        <time>2022-05-16T14:12:00Z</time>
      </trkpt>
      <trkpt lat="45.13283" lon="5.62204">
        <ele>1644</ele>
        <time>2022-05-16T14:12:09Z</time>
      </trkpt>
      <trkpt lat="45.13293" lon="5.62211">
        <ele>1645</ele>
        <time>2022-05-16T14:12:14Z</time>
      </trkpt>
      <trkpt lat="45.1332" lon="5.62214">
        <ele>1644</ele>
        <time>2022-05-16T14:12:28Z</time>
      </trkpt>
      <trkpt lat="45.13354" lon="5.62264">
        <ele>1648</ele>
        <time>2022-05-16T14:12:53Z</time>
      </trkpt>
      <trkpt lat="45.13384" lon="5.62328">
        <ele>1653</ele>
        <time>2022-05-16T14:13:20Z</time>
      </trkpt>
      <trkpt lat="45.13384" lon="5.62347">
        <ele>1656</ele>
        <time>2022-05-16T14:13:26Z</time>
      </trkpt>
      <trkpt lat="45.1338" lon="5.62371">
        <ele>1661</ele>
        <time>2022-05-16T14:13:35Z</time>
      </trkpt>
      <trkpt lat="45.13382" lon="5.62383">
        <ele>1663</ele>
        <time>2022-05-16T14:13:39Z</time>
      </trkpt>
      <trkpt lat="45.1339" lon="5.62401">
        <ele>1664</ele>
        <time>2022-05-16T14:13:47Z</time>
      </trkpt>
      <trkpt lat="45.13465" lon="5.62472">
        <ele>1668</ele>
        <time>2022-05-16T14:14:32Z</time>
      </trkpt>
      <trkpt lat="45.13477" lon="5.62487">
        <ele>1670</ele>
        <time>2022-05-16T14:14:40Z</time>
      </trkpt>
      <trkpt lat="45.13481" lon="5.62481">
        <ele>1668</ele>
        <time>2022-05-16T14:14:43Z</time>
      </trkpt>
      <trkpt lat="45.13477" lon="5.62487">
        <ele>1670</ele>
        <time>2022-05-16T14:14:46Z</time>
      </trkpt>
      <trkpt lat="45.13501" lon="5.62521">
        <ele>1673</ele>
        <time>2022-05-16T14:15:03Z</time>
      </trkpt>
      <trkpt lat="45.13525" lon="5.62562">
        <ele>1680</ele>
        <time>2022-05-16T14:15:22Z</time>
      </trkpt>
      <trkpt lat="45.13543" lon="5.62583">
        <ele>1683</ele>
        <time>2022-05-16T14:15:33Z</time>
      </trkpt>
      <trkpt lat="45.13554" lon="5.62606">
        <ele>1683</ele>
        <time>2022-05-16T14:15:43Z</time>
      </trkpt>
      <trkpt lat="45.13556" lon="5.62631">
        <ele>1684</ele>
        <time>2022-05-16T14:15:52Z</time>
      </trkpt>
      <trkpt lat="45.1355" lon="5.62674">
        <ele>1686</ele>
        <time>2022-05-16T14:16:08Z</time>
      </trkpt>
      <trkpt lat="45.13547" lon="5.62723">
        <ele>1686</ele>
        <time>2022-05-16T14:16:25Z</time>
      </trkpt>
      <trkpt lat="45.13529" lon="5.62795">
        <ele>1692</ele>
        <time>2022-05-16T14:16:52Z</time>
      </trkpt>
      <trkpt lat="45.13534" lon="5.62796">
        <ele>1691</ele>
        <time>2022-05-16T14:16:54Z</time>
      </trkpt>
      <trkpt lat="45.13529" lon="5.62795">
        <ele>1692</ele>
        <time>2022-05-16T14:16:57Z</time>
      </trkpt>
      <trkpt lat="45.13522" lon="5.62841">
        <ele>1697</ele>
        <time>2022-05-16T14:17:14Z</time>
      </trkpt>
      <trkpt lat="45.13511" lon="5.62884">
        <ele>1707</ele>
        <time>2022-05-16T14:17:30Z</time>
      </trkpt>
      <trkpt lat="45.13503" lon="5.62945">
        <ele>1715</ele>
        <time>2022-05-16T14:17:52Z</time>
      </trkpt>
      <trkpt lat="45.13508" lon="5.6301">
        <ele>1716</ele>
        <time>2022-05-16T14:18:15Z</time>
      </trkpt>
      <trkpt lat="45.13514" lon="5.6303">
        <ele>1717</ele>
        <time>2022-05-16T14:18:22Z</time>
      </trkpt>
      <trkpt lat="45.13529" lon="5.6305">
        <ele>1718</ele>
        <time>2022-05-16T14:18:33Z</time>
      </trkpt>
      <trkpt lat="45.13589" lon="5.63101">
        <ele>1723</ele>
        <time>2022-05-16T14:19:08Z</time>
      </trkpt>
      <trkpt lat="45.13623" lon="5.63123">
        <ele>1724</ele>
        <time>2022-05-16T14:19:26Z</time>
      </trkpt>
      <trkpt lat="45.13649" lon="5.63146">
        <ele>1727</ele>
        <time>2022-05-16T14:19:42Z</time>
      </trkpt>
      <trkpt lat="45.13675" lon="5.63178">
        <ele>1732</ele>
        <time>2022-05-16T14:19:59Z</time>
      </trkpt>
      <trkpt lat="45.13698" lon="5.63223">
        <ele>1742</ele>
        <time>2022-05-16T14:20:19Z</time>
      </trkpt>
      <trkpt lat="45.13696" lon="5.63225">
        <ele>1743</ele>
        <time>2022-05-16T14:20:20Z</time>
      </trkpt>
      <trkpt lat="45.13699" lon="5.63224">
        <ele>1742</ele>
        <time>2022-05-16T14:20:21Z</time>
      </trkpt>
      <trkpt lat="45.13738" lon="5.63282">
        <ele>1749</ele>
        <time>2022-05-16T14:20:50Z</time>
      </trkpt>
      <trkpt lat="45.13782" lon="5.63326">
        <ele>1755</ele>
        <time>2022-05-16T14:21:17Z</time>
      </trkpt>
      <trkpt lat="45.13805" lon="5.63353">
        <ele>1758</ele>
        <time>2022-05-16T14:21:31Z</time>
      </trkpt>
      <trkpt lat="45.1382" lon="5.63366">
        <ele>1758</ele>
        <time>2022-05-16T14:21:40Z</time>
      </trkpt>
      <trkpt lat="45.13839" lon="5.63377">
        <ele>1758</ele>
        <time>2022-05-16T14:21:51Z</time>
      </trkpt>
      <trkpt lat="45.13909" lon="5.63448">
        <ele>1768</ele>
        <time>2022-05-16T14:22:34Z</time>
      </trkpt>
      <trkpt lat="45.13985" lon="5.63495">
        <ele>1774</ele>
        <time>2022-05-16T14:23:15Z</time>
      </trkpt>
      <trkpt lat="45.13999" lon="5.63532">
        <ele>1783</ele>
        <time>2022-05-16T14:23:30Z</time>
      </trkpt>
      <trkpt lat="45.14005" lon="5.63537">
        <ele>1784</ele>
        <time>2022-05-16T14:23:33Z</time>
      </trkpt>
      <trkpt lat="45.1402" lon="5.63539">
        <ele>1784</ele>
        <time>2022-05-16T14:23:41Z</time>
      </trkpt>
      <trkpt lat="45.14029" lon="5.63545">
        <ele>1785</ele>
        <time>2022-05-16T14:23:46Z</time>
      </trkpt>
      <trkpt lat="45.14088" lon="5.63606">
        <ele>1781</ele>
        <time>2022-05-16T14:24:22Z</time>
      </trkpt>
      <trkpt lat="45.14097" lon="5.63611">
        <ele>1781</ele>
        <time>2022-05-16T14:24:27Z</time>
      </trkpt>
      <trkpt lat="45.14127" lon="5.63618">
        <ele>1787</ele>
        <time>2022-05-16T14:24:43Z</time>
      </trkpt>
      <trkpt lat="45.1415" lon="5.63632">
        <ele>1796</ele>
        <time>2022-05-16T14:24:55Z</time>
      </trkpt>
      <trkpt lat="45.14215" lon="5.63655">
        <ele>1808</ele>
        <time>2022-05-16T14:25:29Z</time>
      </trkpt>
      <trkpt lat="45.14233" lon="5.63664">
        <ele>1810</ele>
        <time>2022-05-16T14:25:38Z</time>
      </trkpt>
      <trkpt lat="45.14308" lon="5.63714">
        <ele>1820</ele>
        <time>2022-05-16T14:26:20Z</time>
      </trkpt>
      <trkpt lat="45.14396" lon="5.63765">
        <ele>1824</ele>
        <time>2022-05-16T14:27:07Z</time>
      </trkpt>
      <trkpt lat="45.1443" lon="5.63788">
        <ele>1828</ele>
        <time>2022-05-16T14:27:26Z</time>
      </trkpt>
      <trkpt lat="45.14451" lon="5.63807">
        <ele>1833</ele>
        <time>2022-05-16T14:27:38Z</time>
      </trkpt>
      <trkpt lat="45.14461" lon="5.63812">
        <ele>1835</ele>
        <time>2022-05-16T14:27:44Z</time>
      </trkpt>
      <trkpt lat="45.14499" lon="5.63814">
        <ele>1837</ele>
        <time>2022-05-16T14:28:03Z</time>
      </trkpt>
      <trkpt lat="45.14529" lon="5.63809">
        <ele>1842</ele>
        <time>2022-05-16T14:28:18Z</time>
      </trkpt>
      <trkpt lat="45.14557" lon="5.63797">
        <ele>1843</ele>
        <time>2022-05-16T14:28:33Z</time>
      </trkpt>
      <trkpt lat="45.14583" lon="5.63791">
        <ele>1846</ele>
        <time>2022-05-16T14:28:46Z</time>
      </trkpt>
      <trkpt lat="45.14641" lon="5.63799">
        <ele>1851</ele>
        <time>2022-05-16T14:29:15Z</time>
      </trkpt>
      <trkpt lat="45.1469" lon="5.63813">
        <ele>1854</ele>
        <time>2022-05-16T14:29:40Z</time>
      </trkpt>
      <trkpt lat="45.14719" lon="5.63829">
        <ele>1856</ele>
        <time>2022-05-16T14:29:56Z</time>
      </trkpt>
      <trkpt lat="45.14742" lon="5.63831">
        <ele>1853</ele>
        <time>2022-05-16T14:30:07Z</time>
      </trkpt>
      <trkpt lat="45.14765" lon="5.63837">
        <ele>1852</ele>
        <time>2022-05-16T14:30:19Z</time>
      </trkpt>
      <trkpt lat="45.14777" lon="5.63857">
        <ele>1857</ele>
        <time>2022-05-16T14:30:28Z</time>
      </trkpt>
      <trkpt lat="45.1481" lon="5.63879">
        <ele>1860</ele>
        <time>2022-05-16T14:30:46Z</time>
      </trkpt>
      <trkpt lat="45.1485" lon="5.63922">
        <ele>1865</ele>
        <time>2022-05-16T14:31:11Z</time>
      </trkpt>
      <trkpt lat="45.1486" lon="5.63903">
        <ele>1862</ele>
        <time>2022-05-16T14:31:20Z</time>
      </trkpt>
      <trkpt lat="45.1485" lon="5.63922">
        <ele>1865</ele>
        <time>2022-05-16T14:31:28Z</time>
      </trkpt>
      <trkpt lat="45.1486" lon="5.63929">
        <ele>1864</ele>
        <time>2022-05-16T14:31:34Z</time>
      </trkpt>
      <trkpt lat="45.14879" lon="5.63924">
        <ele>1863</ele>
        <time>2022-05-16T14:31:43Z</time>
      </trkpt>
      <trkpt lat="45.14882" lon="5.63915">
        <ele>1863</ele>
        <time>2022-05-16T14:31:47Z</time>
      </trkpt>
      <trkpt lat="45.14881" lon="5.639">
        <ele>1860</ele>
        <time>2022-05-16T14:31:52Z</time>
      </trkpt>
      <trkpt lat="45.14868" lon="5.63866">
        <ele>1855</ele>
        <time>2022-05-16T14:32:06Z</time>
      </trkpt>
      <trkpt lat="45.14868" lon="5.63848">
        <ele>1851</ele>
        <time>2022-05-16T14:32:12Z</time>
      </trkpt>
      <trkpt lat="45.14875" lon="5.63833">
        <ele>1849</ele>
        <time>2022-05-16T14:32:19Z</time>
      </trkpt>
      <trkpt lat="45.14873" lon="5.63771">
        <ele>1837</ele>
        <time>2022-05-16T14:32:40Z</time>
      </trkpt>
      <trkpt lat="45.14831" lon="5.63731">
        <ele>1820</ele>
        <time>2022-05-16T14:33:06Z</time>
      </trkpt>
      <trkpt lat="45.14778" lon="5.63719">
        <ele>1814</ele>
        <time>2022-05-16T14:33:33Z</time>
      </trkpt>
      <trkpt lat="45.14739" lon="5.637">
        <ele>1807</ele>
        <time>2022-05-16T14:33:53Z</time>
      </trkpt>
      <trkpt lat="45.14671" lon="5.63664">
        <ele>1793</ele>
        <time>2022-05-16T14:34:30Z</time>
      </trkpt>
      <trkpt lat="45.14631" lon="5.6363">
        <ele>1780</ele>
        <time>2022-05-16T14:34:53Z</time>
      </trkpt>
      <trkpt lat="45.14653" lon="5.63592">
        <ele>1764</ele>
        <time>2022-05-16T14:35:10Z</time>
      </trkpt>
      <trkpt lat="45.14672" lon="5.63584">
        <ele>1761</ele>
        <time>2022-05-16T14:35:20Z</time>
      </trkpt>
      <trkpt lat="45.14662" lon="5.63553">
        <ele>1749</ele>
        <time>2022-05-16T14:35:32Z</time>
      </trkpt>
      <trkpt lat="45.14721" lon="5.63535">
        <ele>1748</ele>
        <time>2022-05-16T14:36:02Z</time>
      </trkpt>
      <trkpt lat="45.14764" lon="5.63503">
        <ele>1740</ele>
        <time>2022-05-16T14:36:27Z</time>
      </trkpt>
      <trkpt lat="45.14813" lon="5.63455">
        <ele>1726</ele>
        <time>2022-05-16T14:36:57Z</time>
      </trkpt>
      <trkpt lat="45.1484" lon="5.63452">
        <ele>1726</ele>
        <time>2022-05-16T14:37:10Z</time>
      </trkpt>
      <trkpt lat="45.14863" lon="5.63424">
        <ele>1716</ele>
        <time>2022-05-16T14:37:25Z</time>
      </trkpt>
      <trkpt lat="45.14906" lon="5.63407">
        <ele>1707</ele>
        <time>2022-05-16T14:37:48Z</time>
      </trkpt>
      <trkpt lat="45.14919" lon="5.63389">
        <ele>1700</ele>
        <time>2022-05-16T14:37:57Z</time>
      </trkpt>
      <trkpt lat="45.15023" lon="5.63375">
        <ele>1688</ele>
        <time>2022-05-16T14:38:49Z</time>
      </trkpt>
      <trkpt lat="45.15077" lon="5.63382">
        <ele>1683</ele>
        <time>2022-05-16T14:39:16Z</time>
      </trkpt>
      <trkpt lat="45.15208" lon="5.63338">
        <ele>1654</ele>
        <time>2022-05-16T14:40:23Z</time>
      </trkpt>
      <trkpt lat="45.15258" lon="5.63342">
        <ele>1647</ele>
        <time>2022-05-16T14:40:49Z</time>
      </trkpt>
      <trkpt lat="45.15289" lon="5.63355">
        <ele>1648</ele>
        <time>2022-05-16T14:41:05Z</time>
      </trkpt>
      <trkpt lat="45.15335" lon="5.63381">
        <ele>1651</ele>
        <time>2022-05-16T14:41:29Z</time>
      </trkpt>
      <trkpt lat="45.15374" lon="5.63393">
        <ele>1649</ele>
        <time>2022-05-16T14:41:49Z</time>
      </trkpt>
      <trkpt lat="45.15426" lon="5.63396">
        <ele>1643</ele>
        <time>2022-05-16T14:42:15Z</time>
      </trkpt>
      <trkpt lat="45.15475" lon="5.63387">
        <ele>1634</ele>
        <time>2022-05-16T14:42:40Z</time>
      </trkpt>
      <trkpt lat="45.15509" lon="5.63397">
        <ele>1631</ele>
        <time>2022-05-16T14:42:58Z</time>
      </trkpt>
      <trkpt lat="45.15554" lon="5.63415">
        <ele>1624</ele>
        <time>2022-05-16T14:43:21Z</time>
      </trkpt>
      <trkpt lat="45.15586" lon="5.63423">
        <ele>1616</ele>
        <time>2022-05-16T14:43:37Z</time>
      </trkpt>
      <trkpt lat="45.15629" lon="5.63429">
        <ele>1603</ele>
        <time>2022-05-16T14:43:59Z</time>
      </trkpt>
      <trkpt lat="45.15663" lon="5.6343">
        <ele>1592</ele>
        <time>2022-05-16T14:44:16Z</time>
      </trkpt>
      <trkpt lat="45.15711" lon="5.63457">
        <ele>1579</ele>
        <time>2022-05-16T14:44:42Z</time>
      </trkpt>
      <trkpt lat="45.15745" lon="5.63516">
        <ele>1575</ele>
        <time>2022-05-16T14:45:09Z</time>
      </trkpt>
      <trkpt lat="45.15765" lon="5.63528">
        <ele>1568</ele>
        <time>2022-05-16T14:45:19Z</time>
      </trkpt>
      <trkpt lat="45.15789" lon="5.63532">
        <ele>1562</ele>
        <time>2022-05-16T14:45:32Z</time>
      </trkpt>
      <trkpt lat="45.1583" lon="5.63578">
        <ele>1559</ele>
        <time>2022-05-16T14:45:58Z</time>
      </trkpt>
      <trkpt lat="45.15848" lon="5.63617">
        <ele>1550</ele>
        <time>2022-05-16T14:46:14Z</time>
      </trkpt>
      <trkpt lat="45.15867" lon="5.63624">
        <ele>1543</ele>
        <time>2022-05-16T14:46:24Z</time>
      </trkpt>
      <trkpt lat="45.15904" lon="5.63615">
        <ele>1532</ele>
        <time>2022-05-16T14:46:43Z</time>
      </trkpt>
      <trkpt lat="45.15919" lon="5.63593">
        <ele>1527</ele>
        <time>2022-05-16T14:46:54Z</time>
      </trkpt>
      <trkpt lat="45.15941" lon="5.63633">
        <ele>1518</ele>
        <time>2022-05-16T14:47:12Z</time>
      </trkpt>
      <trkpt lat="45.15965" lon="5.63653">
        <ele>1510</ele>
        <time>2022-05-16T14:47:25Z</time>
      </trkpt>
      <trkpt lat="45.16004" lon="5.63692">
        <ele>1496</ele>
        <time>2022-05-16T14:47:49Z</time>
      </trkpt>
      <trkpt lat="45.16018" lon="5.637">
        <ele>1488</ele>
        <time>2022-05-16T14:47:57Z</time>
      </trkpt>
      <trkpt lat="45.16024" lon="5.63701">
        <ele>1484</ele>
        <time>2022-05-16T14:48:00Z</time>
      </trkpt>
      <trkpt lat="45.16035" lon="5.63698">
        <ele>1477</ele>
        <time>2022-05-16T14:48:06Z</time>
      </trkpt>
      <trkpt lat="45.1604" lon="5.63703">
        <ele>1474</ele>
        <time>2022-05-16T14:48:09Z</time>
      </trkpt>
      <trkpt lat="45.16039" lon="5.6371">
        <ele>1475</ele>
        <time>2022-05-16T14:48:11Z</time>
      </trkpt>
      <trkpt lat="45.1603" lon="5.63726">
        <ele>1481</ele>
        <time>2022-05-16T14:48:18Z</time>
      </trkpt>
      <trkpt lat="45.16032" lon="5.63733">
        <ele>1480</ele>
        <time>2022-05-16T14:48:21Z</time>
      </trkpt>
      <trkpt lat="45.16038" lon="5.63737">
        <ele>1477</ele>
        <time>2022-05-16T14:48:24Z</time>
      </trkpt>
      <trkpt lat="45.16046" lon="5.63737">
        <ele>1473</ele>
        <time>2022-05-16T14:48:28Z</time>
      </trkpt>
      <trkpt lat="45.16054" lon="5.63733">
        <ele>1469</ele>
        <time>2022-05-16T14:48:33Z</time>
      </trkpt>
      <trkpt lat="45.1606" lon="5.6375">
        <ele>1467</ele>
        <time>2022-05-16T14:48:39Z</time>
      </trkpt>
      <trkpt lat="45.1607" lon="5.63759">
        <ele>1462</ele>
        <time>2022-05-16T14:48:45Z</time>
      </trkpt>
      <trkpt lat="45.16066" lon="5.63768">
        <ele>1463</ele>
        <time>2022-05-16T14:48:49Z</time>
      </trkpt>
      <trkpt lat="45.16069" lon="5.63775">
        <ele>1461</ele>
        <time>2022-05-16T14:48:52Z</time>
      </trkpt>
      <trkpt lat="45.16075" lon="5.63778">
        <ele>1459</ele>
        <time>2022-05-16T14:48:55Z</time>
      </trkpt>
      <trkpt lat="45.1608" lon="5.63777">
        <ele>1457</ele>
        <time>2022-05-16T14:48:58Z</time>
      </trkpt>
      <trkpt lat="45.16089" lon="5.63784">
        <ele>1452</ele>
        <time>2022-05-16T14:49:03Z</time>
      </trkpt>
      <trkpt lat="45.161" lon="5.63795">
        <ele>1446</ele>
        <time>2022-05-16T14:49:09Z</time>
      </trkpt>
      <trkpt lat="45.1612" lon="5.63823">
        <ele>1437</ele>
        <time>2022-05-16T14:49:23Z</time>
      </trkpt>
      <trkpt lat="45.16128" lon="5.63824">
        <ele>1434</ele>
        <time>2022-05-16T14:49:27Z</time>
      </trkpt>
      <trkpt lat="45.16118" lon="5.63793">
        <ele>1435</ele>
        <time>2022-05-16T14:49:40Z</time>
      </trkpt>
      <trkpt lat="45.16117" lon="5.63766">
        <ele>1433</ele>
        <time>2022-05-16T14:49:49Z</time>
      </trkpt>
      <trkpt lat="45.16125" lon="5.6376">
        <ele>1427</ele>
        <time>2022-05-16T14:49:54Z</time>
      </trkpt>
      <trkpt lat="45.16127" lon="5.63769">
        <ele>1427</ele>
        <time>2022-05-16T14:49:57Z</time>
      </trkpt>
      <trkpt lat="45.16133" lon="5.6376">
        <ele>1421</ele>
        <time>2022-05-16T14:50:01Z</time>
      </trkpt>
      <trkpt lat="45.16135" lon="5.63734">
        <ele>1416</ele>
        <time>2022-05-16T14:50:11Z</time>
      </trkpt>
      <trkpt lat="45.1612" lon="5.63663">
        <ele>1417</ele>
        <time>2022-05-16T14:50:37Z</time>
      </trkpt>
      <trkpt lat="45.1612" lon="5.63633">
        <ele>1411</ele>
        <time>2022-05-16T14:50:47Z</time>
      </trkpt>
      <trkpt lat="45.16124" lon="5.63599">
        <ele>1402</ele>
        <time>2022-05-16T14:50:59Z</time>
      </trkpt>
      <trkpt lat="45.16124" lon="5.63573">
        <ele>1400</ele>
        <time>2022-05-16T14:51:09Z</time>
      </trkpt>
      <trkpt lat="45.1613" lon="5.63562">
        <ele>1398</ele>
        <time>2022-05-16T14:51:13Z</time>
      </trkpt>
      <trkpt lat="45.16137" lon="5.63536">
        <ele>1399</ele>
        <time>2022-05-16T14:51:23Z</time>
      </trkpt>
      <trkpt lat="45.16143" lon="5.6353">
        <ele>1397</ele>
        <time>2022-05-16T14:51:27Z</time>
      </trkpt>
      <trkpt lat="45.16151" lon="5.63554">
        <ele>1390</ele>
        <time>2022-05-16T14:51:36Z</time>
      </trkpt>
      <trkpt lat="45.16155" lon="5.63582">
        <ele>1382</ele>
        <time>2022-05-16T14:51:46Z</time>
      </trkpt>
      <trkpt lat="45.16165" lon="5.63595">
        <ele>1378</ele>
        <time>2022-05-16T14:51:53Z</time>
      </trkpt>
      <trkpt lat="45.16172" lon="5.63621">
        <ele>1378</ele>
        <time>2022-05-16T14:52:03Z</time>
      </trkpt>
      <trkpt lat="45.16183" lon="5.63629">
        <ele>1372</ele>
        <time>2022-05-16T14:52:09Z</time>
      </trkpt>
      <trkpt lat="45.16215" lon="5.63663">
        <ele>1355</ele>
        <time>2022-05-16T14:52:29Z</time>
      </trkpt>
      <trkpt lat="45.16229" lon="5.63682">
        <ele>1346</ele>
        <time>2022-05-16T14:52:39Z</time>
      </trkpt>
      <trkpt lat="45.16246" lon="5.63738">
        <ele>1333</ele>
        <time>2022-05-16T14:53:00Z</time>
      </trkpt>
      <trkpt lat="45.16241" lon="5.63775">
        <ele>1340</ele>
        <time>2022-05-16T14:53:14Z</time>
      </trkpt>
      <trkpt lat="45.16241" lon="5.63791">
        <ele>1343</ele>
        <time>2022-05-16T14:53:19Z</time>
      </trkpt>
      <trkpt lat="45.16244" lon="5.638">
        <ele>1341</ele>
        <time>2022-05-16T14:53:23Z</time>
      </trkpt>
      <trkpt lat="45.16257" lon="5.63769">
        <ele>1327</ele>
        <time>2022-05-16T14:53:36Z</time>
      </trkpt>
      <trkpt lat="45.16287" lon="5.63677">
        <ele>1306</ele>
        <time>2022-05-16T14:54:11Z</time>
      </trkpt>
      <trkpt lat="45.16297" lon="5.63685">
        <ele>1298</ele>
        <time>2022-05-16T14:54:17Z</time>
      </trkpt>
      <trkpt lat="45.16318" lon="5.63638">
        <ele>1288</ele>
        <time>2022-05-16T14:54:37Z</time>
      </trkpt>
      <trkpt lat="45.16321" lon="5.63584">
        <ele>1291</ele>
        <time>2022-05-16T14:54:56Z</time>
      </trkpt>
      <trkpt lat="45.1634" lon="5.63546">
        <ele>1288</ele>
        <time>2022-05-16T14:55:12Z</time>
      </trkpt>
      <trkpt lat="45.16347" lon="5.63477">
        <ele>1297</ele>
        <time>2022-05-16T14:55:37Z</time>
      </trkpt>
      <trkpt lat="45.16355" lon="5.63451">
        <ele>1295</ele>
        <time>2022-05-16T14:55:47Z</time>
      </trkpt>
      <trkpt lat="45.16379" lon="5.63427">
        <ele>1284</ele>
        <time>2022-05-16T14:56:02Z</time>
      </trkpt>
      <trkpt lat="45.16395" lon="5.63406">
        <ele>1277</ele>
        <time>2022-05-16T14:56:13Z</time>
      </trkpt>
      <trkpt lat="45.16403" lon="5.6338">
        <ele>1276</ele>
        <time>2022-05-16T14:56:23Z</time>
      </trkpt>
      <trkpt lat="45.16398" lon="5.63324">
        <ele>1284</ele>
        <time>2022-05-16T14:56:42Z</time>
      </trkpt>
      <trkpt lat="45.16401" lon="5.63303">
        <ele>1282</ele>
        <time>2022-05-16T14:56:50Z</time>
      </trkpt>
      <trkpt lat="45.1642" lon="5.63277">
        <ele>1275</ele>
        <time>2022-05-16T14:57:03Z</time>
      </trkpt>
      <trkpt lat="45.16428" lon="5.63273">
        <ele>1272</ele>
        <time>2022-05-16T14:57:07Z</time>
      </trkpt>
      <trkpt lat="45.16452" lon="5.6328">
        <ele>1264</ele>
        <time>2022-05-16T14:57:20Z</time>
      </trkpt>
      <trkpt lat="45.16475" lon="5.63277">
        <ele>1256</ele>
        <time>2022-05-16T14:57:31Z</time>
      </trkpt>
      <trkpt lat="45.16487" lon="5.6329">
        <ele>1251</ele>
        <time>2022-05-16T14:57:39Z</time>
      </trkpt>
      <trkpt lat="45.16529" lon="5.6328">
        <ele>1241</ele>
        <time>2022-05-16T14:58:00Z</time>
      </trkpt>
      <trkpt lat="45.16541" lon="5.6328">
        <ele>1238</ele>
        <time>2022-05-16T14:58:06Z</time>
      </trkpt>
      <trkpt lat="45.16545" lon="5.63282">
        <ele>1237</ele>
        <time>2022-05-16T14:58:08Z</time>
      </trkpt>
      <trkpt lat="45.16553" lon="5.63297">
        <ele>1235</ele>
        <time>2022-05-16T14:58:15Z</time>
      </trkpt>
      <trkpt lat="45.16575" lon="5.63274">
        <ele>1231</ele>
        <time>2022-05-16T14:58:29Z</time>
      </trkpt>
      <trkpt lat="45.1666" lon="5.63305">
        <ele>1223</ele>
        <time>2022-05-16T14:59:13Z</time>
      </trkpt>
      <trkpt lat="45.16709" lon="5.63327">
        <ele>1222</ele>
        <time>2022-05-16T14:59:38Z</time>
      </trkpt>
      <trkpt lat="45.16771" lon="5.63351">
        <ele>1219</ele>
        <time>2022-05-16T15:00:10Z</time>
      </trkpt>
      <trkpt lat="45.1682" lon="5.63366">
        <ele>1214</ele>
        <time>2022-05-16T15:00:35Z</time>
      </trkpt>
      <trkpt lat="45.16826" lon="5.63363">
        <ele>1213</ele>
        <time>2022-05-16T15:00:39Z</time>
      </trkpt>
      <trkpt lat="45.16829" lon="5.63356">
        <ele>1212</ele>
        <time>2022-05-16T15:00:42Z</time>
      </trkpt>
      <trkpt lat="45.16826" lon="5.63345">
        <ele>1212</ele>
        <time>2022-05-16T15:00:46Z</time>
      </trkpt>
      <trkpt lat="45.16839" lon="5.63309">
        <ele>1204</ele>
        <time>2022-05-16T15:01:00Z</time>
      </trkpt>
      <trkpt lat="45.16886" lon="5.63206">
        <ele>1181</ele>
        <time>2022-05-16T15:01:43Z</time>
      </trkpt>
      <trkpt lat="45.16924" lon="5.63092">
        <ele>1173</ele>
        <time>2022-05-16T15:02:28Z</time>
        <extensions>
          <visugpx:TrkExtension xmlns:visugpx="https://www.visugpx.com/editgpx/">
            <visugpx:node>1</visugpx:node>
            </visugpx:TrkExtension>
        </extensions>
      </trkpt>
    </trkseg>
  </trk>
  <trk>
    <name><![CDATA[TDM 45km 2022 _2]]></name>
    <desc><![CDATA[Quentin
]]></desc>
    <extensions>
      <line xmlns="http://www.topografix.com/GPX/gpx_style/0/2">
        <color>c800ff</color>
        <width>4</width>
      </line>
    </extensions>
    <trkseg>
      <trkpt lat="45.11248" lon="5.60901">
        <ele>1407.9</ele>
        <extensions>
          <visugpx:TrkExtension xmlns:visugpx="https://www.visugpx.com/editgpx/">
            <visugpx:node>5</visugpx:node>
            </visugpx:TrkExtension>
        </extensions>
      </trkpt>
      <trkpt lat="45.11238" lon="5.60914">
        <ele>1409.2</ele>
      </trkpt>
      <trkpt lat="45.11233" lon="5.60927">
        <ele>1410.5</ele>
      </trkpt>
      <trkpt lat="45.11203" lon="5.60947">
        <ele>1412.9</ele>
      </trkpt>
      <trkpt lat="45.11193" lon="5.60925">
        <ele>1411.8</ele>
      </trkpt>
      <trkpt lat="45.11174" lon="5.60902">
        <ele>1412.2</ele>
      </trkpt>
      <trkpt lat="45.11135" lon="5.60874">
        <ele>1415.6</ele>
      </trkpt>
      <trkpt lat="45.11128" lon="5.60859">
        <ele>1415.8</ele>
      </trkpt>
      <trkpt lat="45.1112" lon="5.60829">
        <ele>1414.9</ele>
      </trkpt>
      <trkpt lat="45.11114" lon="5.60816">
        <ele>1414.6</ele>
      </trkpt>
      <trkpt lat="45.11102" lon="5.60812">
        <ele>1416.3</ele>
      </trkpt>
      <trkpt lat="45.11064" lon="5.60813">
        <ele>1422.8</ele>
      </trkpt>
      <trkpt lat="45.11033" lon="5.60809">
        <ele>1428.4</ele>
      </trkpt>
      <trkpt lat="45.10999" lon="5.60791">
        <ele>1430.5</ele>
      </trkpt>
      <trkpt lat="45.10986" lon="5.60787">
        <ele>1431.3</ele>
      </trkpt>
      <trkpt lat="45.10943" lon="5.60772">
        <ele>1432</ele>
      </trkpt>
      <trkpt lat="45.10879" lon="5.60786">
        <ele>1441.7</ele>
        <extensions>
          <visugpx:TrkExtension xmlns:visugpx="https://www.visugpx.com/editgpx/">
            <visugpx:node>1</visugpx:node>
            </visugpx:TrkExtension>
        </extensions>
      </trkpt>
      <trkpt lat="45.10862" lon="5.6079">
        <ele>1444.3</ele>
      </trkpt>
      <trkpt lat="45.10825" lon="5.60797">
        <ele>1450.3</ele>
      </trkpt>
      <trkpt lat="45.10779" lon="5.60807">
        <ele>1455.4</ele>
      </trkpt>
      <trkpt lat="45.10714" lon="5.60831">
        <ele>1459.2</ele>
      </trkpt>
      <trkpt lat="45.10663" lon="5.60861">
        <ele>1463.8</ele>
      </trkpt>
      <trkpt lat="45.10601" lon="5.6093">
        <ele>1474.7</ele>
      </trkpt>
      <trkpt lat="45.10594" lon="5.60935">
        <ele>1475.6</ele>
      </trkpt>
      <trkpt lat="45.10582" lon="5.60934">
        <ele>1475.1</ele>
      </trkpt>
      <trkpt lat="45.10527" lon="5.60914">
        <ele>1473.6</ele>
      </trkpt>
      <trkpt lat="45.10442" lon="5.609">
        <ele>1483.2</ele>
      </trkpt>
      <trkpt lat="45.10406" lon="5.60899">
        <ele>1489.1</ele>
      </trkpt>
      <trkpt lat="45.10387" lon="5.60897">
        <ele>1491.4</ele>
        <extensions>
          <visugpx:TrkExtension xmlns:visugpx="https://www.visugpx.com/editgpx/">
            <visugpx:node>2</visugpx:node>
            </visugpx:TrkExtension>
        </extensions>
      </trkpt>
      <trkpt lat="45.10271" lon="5.60886">
        <ele>1504.1</ele>
      </trkpt>
      <trkpt lat="45.10198" lon="5.60871">
        <ele>1510.3</ele>
      </trkpt>
      <trkpt lat="45.10207" lon="5.60845">
        <ele>1506.4</ele>
      </trkpt>
      <trkpt lat="45.10214" lon="5.60837">
        <ele>1504.4</ele>
      </trkpt>
      <trkpt lat="45.10221" lon="5.60831">
        <ele>1502.4</ele>
      </trkpt>
      <trkpt lat="45.10178" lon="5.60842">
        <ele>1512.8</ele>
      </trkpt>
      <trkpt lat="45.10159" lon="5.60863">
        <ele>1516.3</ele>
      </trkpt>
      <trkpt lat="45.10142" lon="5.60856">
        <ele>1521.6</ele>
      </trkpt>
      <trkpt lat="45.10102" lon="5.60874">
        <ele>1532.9</ele>
      </trkpt>
      <trkpt lat="45.10062" lon="5.60877">
        <ele>1547.3</ele>
      </trkpt>
      <trkpt lat="45.09986" lon="5.60901">
        <ele>1568.1</ele>
      </trkpt>
      <trkpt lat="45.09969" lon="5.60896">
        <ele>1572.6</ele>
      </trkpt>
      <trkpt lat="45.09945" lon="5.60897">
        <ele>1578.9</ele>
      </trkpt>
      <trkpt lat="45.0993" lon="5.60913">
        <ele>1582.2</ele>
      </trkpt>
      <trkpt lat="45.09903" lon="5.60904">
        <ele>1588.1</ele>
      </trkpt>
      <trkpt lat="45.09884" lon="5.60887">
        <ele>1592.5</ele>
      </trkpt>
      <trkpt lat="45.0986" lon="5.60877">
        <ele>1595.3</ele>
      </trkpt>
      <trkpt lat="45.09833" lon="5.60884">
        <ele>1599.5</ele>
      </trkpt>
      <trkpt lat="45.09805" lon="5.60872">
        <ele>1600.8</ele>
      </trkpt>
      <trkpt lat="45.09791" lon="5.60878">
        <ele>1602.3</ele>
      </trkpt>
      <trkpt lat="45.09768" lon="5.60881">
        <ele>1604.1</ele>
      </trkpt>
      <trkpt lat="45.09704" lon="5.60886">
        <ele>1608.2</ele>
      </trkpt>
      <trkpt lat="45.09684" lon="5.60885">
        <ele>1609.3</ele>
      </trkpt>
      <trkpt lat="45.09671" lon="5.60885">
        <ele>1609.8</ele>
      </trkpt>
      <trkpt lat="45.09659" lon="5.6088">
        <ele>1610.6</ele>
      </trkpt>
      <trkpt lat="45.09647" lon="5.60866">
        <ele>1611.4</ele>
      </trkpt>
      <trkpt lat="45.09631" lon="5.60868">
        <ele>1612.6</ele>
      </trkpt>
      <trkpt lat="45.09624" lon="5.60861">
        <ele>1613.1</ele>
      </trkpt>
      <trkpt lat="45.09614" lon="5.60856">
        <ele>1612.9</ele>
      </trkpt>
      <trkpt lat="45.0957" lon="5.60806">
        <ele>1602.6</ele>
      </trkpt>
      <trkpt lat="45.09546" lon="5.60791">
        <ele>1597.4</ele>
      </trkpt>
      <trkpt lat="45.09511" lon="5.6075">
        <ele>1579.6</ele>
      </trkpt>
      <trkpt lat="45.09488" lon="5.60736">
        <ele>1572.9</ele>
      </trkpt>
      <trkpt lat="45.09403" lon="5.60657">
        <ele>1539.3</ele>
      </trkpt>
      <trkpt lat="45.09353" lon="5.60603">
        <ele>1519.7</ele>
      </trkpt>
      <trkpt lat="45.09342" lon="5.6058">
        <ele>1513.5</ele>
      </trkpt>
      <trkpt lat="45.09344" lon="5.60544">
        <ele>1504.7</ele>
      </trkpt>
      <trkpt lat="45.09356" lon="5.60512">
        <ele>1497</ele>
      </trkpt>
      <trkpt lat="45.0938" lon="5.60408">
        <ele>1474.5</ele>
      </trkpt>
      <trkpt lat="45.09405" lon="5.60313">
        <ele>1456.1</ele>
      </trkpt>
      <trkpt lat="45.09429" lon="5.60304">
        <ele>1450.7</ele>
      </trkpt>
      <trkpt lat="45.09443" lon="5.60292">
        <ele>1447.3</ele>
      </trkpt>
      <trkpt lat="45.09455" lon="5.60282">
        <ele>1444.3</ele>
      </trkpt>
      <trkpt lat="45.09448" lon="5.60281">
        <ele>1445.6</ele>
      </trkpt>
      <trkpt lat="45.09444" lon="5.60269">
        <ele>1446.1</ele>
      </trkpt>
      <trkpt lat="45.09436" lon="5.60257">
        <ele>1447.3</ele>
      </trkpt>
      <trkpt lat="45.09431" lon="5.60244">
        <ele>1447.9</ele>
      </trkpt>
      <trkpt lat="45.09424" lon="5.60225">
        <ele>1448.5</ele>
      </trkpt>
      <trkpt lat="45.0942" lon="5.60209">
        <ele>1449.3</ele>
      </trkpt>
      <trkpt lat="45.09411" lon="5.60187">
        <ele>1450.1</ele>
      </trkpt>
      <trkpt lat="45.09406" lon="5.60183">
        <ele>1450.1</ele>
      </trkpt>
      <trkpt lat="45.09397" lon="5.6018">
        <ele>1450</ele>
      </trkpt>
      <trkpt lat="45.09384" lon="5.60172">
        <ele>1449.4</ele>
      </trkpt>
      <trkpt lat="45.0936" lon="5.60144">
        <ele>1448.2</ele>
      </trkpt>
      <trkpt lat="45.09348" lon="5.60134">
        <ele>1448.3</ele>
      </trkpt>
      <trkpt lat="45.09318" lon="5.60116">
        <ele>1448.4</ele>
      </trkpt>
      <trkpt lat="45.09289" lon="5.60096">
        <ele>1448.2</ele>
      </trkpt>
      <trkpt lat="45.09268" lon="5.60095">
        <ele>1447.8</ele>
      </trkpt>
      <trkpt lat="45.09249" lon="5.6009">
        <ele>1447.2</ele>
      </trkpt>
      <trkpt lat="45.09202" lon="5.60089">
        <ele>1445.1</ele>
      </trkpt>
      <trkpt lat="45.09188" lon="5.60091">
        <ele>1444.4</ele>
      </trkpt>
      <trkpt lat="45.09174" lon="5.60099">
        <ele>1444.6</ele>
      </trkpt>
      <trkpt lat="45.09177" lon="5.60073">
        <ele>1442.1</ele>
      </trkpt>
      <trkpt lat="45.09171" lon="5.60029">
        <ele>1440.5</ele>
      </trkpt>
      <trkpt lat="45.0918" lon="5.6002">
        <ele>1441.6</ele>
      </trkpt>
      <trkpt lat="45.09165" lon="5.60013">
        <ele>1439.8</ele>
      </trkpt>
      <trkpt lat="45.09156" lon="5.59987">
        <ele>1439.1</ele>
      </trkpt>
      <trkpt lat="45.09149" lon="5.59963">
        <ele>1438.5</ele>
      </trkpt>
      <trkpt lat="45.09139" lon="5.59939">
        <ele>1437</ele>
      </trkpt>
      <trkpt lat="45.09132" lon="5.59933">
        <ele>1436</ele>
      </trkpt>
      <trkpt lat="45.09125" lon="5.59917">
        <ele>1435</ele>
      </trkpt>
      <trkpt lat="45.09116" lon="5.59894">
        <ele>1432.1</ele>
      </trkpt>
      <trkpt lat="45.09112" lon="5.59867">
        <ele>1428.8</ele>
      </trkpt>
      <trkpt lat="45.09118" lon="5.59839">
        <ele>1426.1</ele>
      </trkpt>
      <trkpt lat="45.09118" lon="5.59823">
        <ele>1423.7</ele>
      </trkpt>
      <trkpt lat="45.09112" lon="5.59788">
        <ele>1418.2</ele>
      </trkpt>
      <trkpt lat="45.09112" lon="5.59756">
        <ele>1415.5</ele>
      </trkpt>
      <trkpt lat="45.09108" lon="5.59717">
        <ele>1412.6</ele>
      </trkpt>
      <trkpt lat="45.0911" lon="5.59698">
        <ele>1411.3</ele>
      </trkpt>
      <trkpt lat="45.0911" lon="5.59673">
        <ele>1409.5</ele>
      </trkpt>
      <trkpt lat="45.09114" lon="5.59658">
        <ele>1408.5</ele>
      </trkpt>
      <trkpt lat="45.09123" lon="5.59648">
        <ele>1408.1</ele>
      </trkpt>
      <trkpt lat="45.09129" lon="5.59634">
        <ele>1407.1</ele>
      </trkpt>
      <trkpt lat="45.09155" lon="5.59547">
        <ele>1398.3</ele>
      </trkpt>
      <trkpt lat="45.09165" lon="5.59517">
        <ele>1394</ele>
      </trkpt>
      <trkpt lat="45.09182" lon="5.59462">
        <ele>1384.1</ele>
      </trkpt>
      <trkpt lat="45.09212" lon="5.59437">
        <ele>1378.8</ele>
      </trkpt>
      <trkpt lat="45.0923" lon="5.59427">
        <ele>1375.8</ele>
      </trkpt>
      <trkpt lat="45.09244" lon="5.59407">
        <ele>1371.4</ele>
      </trkpt>
      <trkpt lat="45.09263" lon="5.59398">
        <ele>1368.2</ele>
      </trkpt>
      <trkpt lat="45.09269" lon="5.59372">
        <ele>1364.7</ele>
      </trkpt>
      <trkpt lat="45.09238" lon="5.59378">
        <ele>1370.2</ele>
      </trkpt>
      <trkpt lat="45.09182" lon="5.59416">
        <ele>1378.9</ele>
      </trkpt>
      <trkpt lat="45.09139" lon="5.59422">
        <ele>1381.6</ele>
      </trkpt>
      <trkpt lat="45.09124" lon="5.59412">
        <ele>1380.7</ele>
      </trkpt>
      <trkpt lat="45.09091" lon="5.59421">
        <ele>1382.2</ele>
      </trkpt>
      <trkpt lat="45.09088" lon="5.59423">
        <ele>1382.5</ele>
        <extensions>
          <visugpx:TrkExtension xmlns:visugpx="https://www.visugpx.com/editgpx/">
            <visugpx:node>3</visugpx:node>
            </visugpx:TrkExtension>
        </extensions>
      </trkpt>
      <trkpt lat="45.09067" lon="5.59444">
        <ele>1385.5</ele>
      </trkpt>
      <trkpt lat="45.09062" lon="5.59461">
        <ele>1388</ele>
      </trkpt>
      <trkpt lat="45.09023" lon="5.59477">
        <ele>1393</ele>
      </trkpt>
      <trkpt lat="45.0899" lon="5.5944">
        <ele>1389.7</ele>
      </trkpt>
      <trkpt lat="45.08982" lon="5.59422">
        <ele>1387.4</ele>
      </trkpt>
      <trkpt lat="45.08947" lon="5.59406">
        <ele>1387.3</ele>
      </trkpt>
      <trkpt lat="45.08942" lon="5.59403">
        <ele>1387.2</ele>
      </trkpt>
      <trkpt lat="45.08939" lon="5.59419">
        <ele>1389.7</ele>
      </trkpt>
      <trkpt lat="45.08939" lon="5.5942">
        <ele>1389.9</ele>
      </trkpt>
      <trkpt lat="45.08922" lon="5.5943">
        <ele>1392.5</ele>
      </trkpt>
      <trkpt lat="45.08877" lon="5.59462">
        <ele>1399.6</ele>
      </trkpt>
      <trkpt lat="45.08861" lon="5.59472">
        <ele>1401</ele>
      </trkpt>
      <trkpt lat="45.08843" lon="5.59479">
        <ele>1399.8</ele>
      </trkpt>
      <trkpt lat="45.08813" lon="5.59498">
        <ele>1396.8</ele>
      </trkpt>
      <trkpt lat="45.08794" lon="5.59506">
        <ele>1395.2</ele>
      </trkpt>
      <trkpt lat="45.08782" lon="5.59506">
        <ele>1393.9</ele>
      </trkpt>
      <trkpt lat="45.08765" lon="5.59502">
        <ele>1391.3</ele>
      </trkpt>
      <trkpt lat="45.08752" lon="5.59495">
        <ele>1388.9</ele>
      </trkpt>
      <trkpt lat="45.08723" lon="5.59471">
        <ele>1383</ele>
      </trkpt>
      <trkpt lat="45.08705" lon="5.59462">
        <ele>1380.2</ele>
      </trkpt>
      <trkpt lat="45.08692" lon="5.5946">
        <ele>1378.5</ele>
      </trkpt>
      <trkpt lat="45.08679" lon="5.59462">
        <ele>1377.8</ele>
      </trkpt>
      <trkpt lat="45.08673" lon="5.59471">
        <ele>1378.3</ele>
      </trkpt>
      <trkpt lat="45.08666" lon="5.59484">
        <ele>1378.8</ele>
      </trkpt>
      <trkpt lat="45.08661" lon="5.59503">
        <ele>1379.8</ele>
      </trkpt>
      <trkpt lat="45.08659" lon="5.59509">
        <ele>1380.2</ele>
      </trkpt>
      <trkpt lat="45.08651" lon="5.59538">
        <ele>1382.5</ele>
      </trkpt>
      <trkpt lat="45.08641" lon="5.59567">
        <ele>1384.9</ele>
      </trkpt>
      <trkpt lat="45.08638" lon="5.5958">
        <ele>1386.4</ele>
      </trkpt>
      <trkpt lat="45.08626" lon="5.59586">
        <ele>1385</ele>
      </trkpt>
      <trkpt lat="45.08605" lon="5.59615">
        <ele>1382.5</ele>
      </trkpt>
      <trkpt lat="45.0859" lon="5.59643">
        <ele>1379.3</ele>
      </trkpt>
      <trkpt lat="45.08576" lon="5.5969">
        <ele>1378.5</ele>
      </trkpt>
      <trkpt lat="45.08571" lon="5.59698">
        <ele>1378.6</ele>
      </trkpt>
      <trkpt lat="45.08532" lon="5.59694">
        <ele>1368</ele>
      </trkpt>
      <trkpt lat="45.08506" lon="5.597">
        <ele>1363.4</ele>
      </trkpt>
      <trkpt lat="45.0849" lon="5.59709">
        <ele>1360.7</ele>
      </trkpt>
      <trkpt lat="45.0848" lon="5.59717">
        <ele>1359.3</ele>
      </trkpt>
      <trkpt lat="45.08473" lon="5.59749">
        <ele>1362.1</ele>
      </trkpt>
      <trkpt lat="45.08468" lon="5.59764">
        <ele>1363.3</ele>
      </trkpt>
      <trkpt lat="45.0846" lon="5.59774">
        <ele>1362.8</ele>
      </trkpt>
      <trkpt lat="45.08453" lon="5.59779">
        <ele>1361.7</ele>
      </trkpt>
      <trkpt lat="45.08395" lon="5.59768">
        <ele>1350.6</ele>
      </trkpt>
      <trkpt lat="45.08384" lon="5.59771">
        <ele>1349.7</ele>
      </trkpt>
      <trkpt lat="45.08367" lon="5.5978">
        <ele>1348.5</ele>
      </trkpt>
      <trkpt lat="45.08316" lon="5.59812">
        <ele>1346.7</ele>
      </trkpt>
      <trkpt lat="45.08308" lon="5.59816">
        <ele>1346.9</ele>
      </trkpt>
      <trkpt lat="45.08152" lon="5.59654">
        <ele>1316</ele>
      </trkpt>
      <trkpt lat="45.08003" lon="5.59576">
        <ele>1310.3</ele>
      </trkpt>
      <trkpt lat="45.07982" lon="5.59556">
        <ele>1306.1</ele>
        <extensions>
          <visugpx:TrkExtension xmlns:visugpx="https://www.visugpx.com/editgpx/">
            <visugpx:node>4</visugpx:node>
            </visugpx:TrkExtension>
        </extensions>
      </trkpt>
      <trkpt lat="45.07961" lon="5.59537">
        <ele>1301.9</ele>
      </trkpt>
      <trkpt lat="45.07951" lon="5.59523">
        <ele>1299.2</ele>
      </trkpt>
      <trkpt lat="45.07943" lon="5.59478">
        <ele>1293.6</ele>
      </trkpt>
      <trkpt lat="45.07916" lon="5.59459">
        <ele>1290.1</ele>
      </trkpt>
      <trkpt lat="45.07891" lon="5.59406">
        <ele>1283.8</ele>
      </trkpt>
      <trkpt lat="45.07859" lon="5.59368">
        <ele>1279.7</ele>
      </trkpt>
      <trkpt lat="45.07817" lon="5.5935">
        <ele>1276.4</ele>
      </trkpt>
      <trkpt lat="45.07787" lon="5.59302">
        <ele>1269.4</ele>
      </trkpt>
      <trkpt lat="45.07777" lon="5.59174">
        <ele>1264</ele>
      </trkpt>
      <trkpt lat="45.07735" lon="5.59063">
        <ele>1259.7</ele>
      </trkpt>
      <trkpt lat="45.07723" lon="5.59044">
        <ele>1257.2</ele>
      </trkpt>
      <trkpt lat="45.07715" lon="5.59007">
        <ele>1253.5</ele>
      </trkpt>
      <trkpt lat="45.07686" lon="5.58924">
        <ele>1247</ele>
      </trkpt>
      <trkpt lat="45.07678" lon="5.58839">
        <ele>1243.4</ele>
      </trkpt>
      <trkpt lat="45.07666" lon="5.5879">
        <ele>1241.9</ele>
      </trkpt>
      <trkpt lat="45.07646" lon="5.58749">
        <ele>1240.2</ele>
      </trkpt>
      <trkpt lat="45.07615" lon="5.5862">
        <ele>1233.8</ele>
      </trkpt>
      <trkpt lat="45.07599" lon="5.58576">
        <ele>1230.4</ele>
      </trkpt>
      <trkpt lat="45.07587" lon="5.58554">
        <ele>1226.7</ele>
      </trkpt>
      <trkpt lat="45.07575" lon="5.58537">
        <ele>1224.4</ele>
      </trkpt>
      <trkpt lat="45.07508" lon="5.58471">
        <ele>1220.3</ele>
      </trkpt>
      <trkpt lat="45.07449" lon="5.58375">
        <ele>1212.8</ele>
      </trkpt>
      <trkpt lat="45.07432" lon="5.58351">
        <ele>1212.4</ele>
      </trkpt>
      <trkpt lat="45.07412" lon="5.58332">
        <ele>1213.4</ele>
      </trkpt>
      <trkpt lat="45.07393" lon="5.58311">
        <ele>1214.8</ele>
      </trkpt>
      <trkpt lat="45.07376" lon="5.5829">
        <ele>1214.9</ele>
      </trkpt>
      <trkpt lat="45.07371" lon="5.58299">
        <ele>1215.3</ele>
        <extensions>
          <visugpx:TrkExtension xmlns:visugpx="https://www.visugpx.com/editgpx/">
            <visugpx:node>33</visugpx:node>
            </visugpx:TrkExtension>
        </extensions>
      </trkpt>
      <trkpt lat="45.07318" lon="5.58383">
        <ele>1223.9</ele>
      </trkpt>
      <trkpt lat="45.0731" lon="5.58398">
        <ele>1226</ele>
      </trkpt>
      <trkpt lat="45.07299" lon="5.58413">
        <ele>1228.9</ele>
      </trkpt>
      <trkpt lat="45.07293" lon="5.5842">
        <ele>1230.7</ele>
      </trkpt>
      <trkpt lat="45.07287" lon="5.58423">
        <ele>1232.2</ele>
      </trkpt>
      <trkpt lat="45.07281" lon="5.58423">
        <ele>1233.3</ele>
      </trkpt>
      <trkpt lat="45.07256" lon="5.58417">
        <ele>1237</ele>
      </trkpt>
      <trkpt lat="45.07251" lon="5.58418">
        <ele>1238</ele>
      </trkpt>
      <trkpt lat="45.07221" lon="5.58444">
        <ele>1248.3</ele>
      </trkpt>
      <trkpt lat="45.07201" lon="5.58452">
        <ele>1254.5</ele>
      </trkpt>
      <trkpt lat="45.07133" lon="5.58448">
        <ele>1270</ele>
      </trkpt>
      <trkpt lat="45.071" lon="5.58466">
        <ele>1281.2</ele>
      </trkpt>
      <trkpt lat="45.07088" lon="5.58505">
        <ele>1291.6</ele>
      </trkpt>
      <trkpt lat="45.07053" lon="5.58552">
        <ele>1311.1</ele>
      </trkpt>
      <trkpt lat="45.07021" lon="5.5861">
        <ele>1333.2</ele>
      </trkpt>
      <trkpt lat="45.07015" lon="5.58643">
        <ele>1342.1</ele>
      </trkpt>
      <trkpt lat="45.07016" lon="5.58683">
        <ele>1351.8</ele>
      </trkpt>
      <trkpt lat="45.07041" lon="5.58735">
        <ele>1361.3</ele>
      </trkpt>
      <trkpt lat="45.07076" lon="5.58791">
        <ele>1373.7</ele>
      </trkpt>
      <trkpt lat="45.07171" lon="5.589">
        <ele>1396.7</ele>
      </trkpt>
      <trkpt lat="45.0718" lon="5.58934">
        <ele>1402.2</ele>
      </trkpt>
      <trkpt lat="45.0718" lon="5.5896">
        <ele>1408.5</ele>
      </trkpt>
      <trkpt lat="45.0718" lon="5.58978">
        <ele>1412.7</ele>
      </trkpt>
      <trkpt lat="45.07177" lon="5.59009">
        <ele>1421.2</ele>
      </trkpt>
      <trkpt lat="45.07181" lon="5.59031">
        <ele>1422.2</ele>
      </trkpt>
      <trkpt lat="45.07186" lon="5.5905">
        <ele>1421.7</ele>
      </trkpt>
      <trkpt lat="45.07182" lon="5.59062">
        <ele>1425.8</ele>
      </trkpt>
      <trkpt lat="45.07181" lon="5.59072">
        <ele>1427.5</ele>
      </trkpt>
      <trkpt lat="45.07185" lon="5.59084">
        <ele>1426.5</ele>
      </trkpt>
      <trkpt lat="45.07187" lon="5.59109">
        <ele>1428.7</ele>
      </trkpt>
      <trkpt lat="45.07174" lon="5.5916">
        <ele>1446.5</ele>
      </trkpt>
      <trkpt lat="45.07174" lon="5.59167">
        <ele>1448.2</ele>
      </trkpt>
      <trkpt lat="45.07176" lon="5.59172">
        <ele>1448.8</ele>
      </trkpt>
      <trkpt lat="45.07174" lon="5.59181">
        <ele>1452</ele>
      </trkpt>
      <trkpt lat="45.07168" lon="5.59186">
        <ele>1455.4</ele>
      </trkpt>
      <trkpt lat="45.07166" lon="5.59199">
        <ele>1459.3</ele>
      </trkpt>
      <trkpt lat="45.07172" lon="5.59202">
        <ele>1458.2</ele>
      </trkpt>
      <trkpt lat="45.07172" lon="5.59206">
        <ele>1459.2</ele>
      </trkpt>
      <trkpt lat="45.07152" lon="5.59251">
        <ele>1476.5</ele>
      </trkpt>
      <trkpt lat="45.07146" lon="5.59255">
        <ele>1479.1</ele>
      </trkpt>
      <trkpt lat="45.07143" lon="5.59267">
        <ele>1482.4</ele>
      </trkpt>
      <trkpt lat="45.07144" lon="5.59274">
        <ele>1483.8</ele>
      </trkpt>
      <trkpt lat="45.07143" lon="5.5928">
        <ele>1485.4</ele>
      </trkpt>
      <trkpt lat="45.07134" lon="5.59299">
        <ele>1491.8</ele>
      </trkpt>
      <trkpt lat="45.07137" lon="5.59305">
        <ele>1493.1</ele>
      </trkpt>
      <trkpt lat="45.07136" lon="5.59311">
        <ele>1495.4</ele>
      </trkpt>
      <trkpt lat="45.07126" lon="5.59331">
        <ele>1502.3</ele>
      </trkpt>
      <trkpt lat="45.0712" lon="5.59336">
        <ele>1503.7</ele>
      </trkpt>
      <trkpt lat="45.07117" lon="5.59347">
        <ele>1507.4</ele>
      </trkpt>
      <trkpt lat="45.07109" lon="5.59361">
        <ele>1511.1</ele>
      </trkpt>
      <trkpt lat="45.0711" lon="5.59368">
        <ele>1513.8</ele>
      </trkpt>
      <trkpt lat="45.07098" lon="5.59395">
        <ele>1523.9</ele>
      </trkpt>
      <trkpt lat="45.0709" lon="5.59404">
        <ele>1527</ele>
      </trkpt>
      <trkpt lat="45.07094" lon="5.59406">
        <ele>1528.5</ele>
      </trkpt>
      <trkpt lat="45.07104" lon="5.59411">
        <ele>1532.6</ele>
      </trkpt>
      <trkpt lat="45.07105" lon="5.59408">
        <ele>1531.3</ele>
      </trkpt>
      <trkpt lat="45.0711" lon="5.59406">
        <ele>1531.1</ele>
      </trkpt>
      <trkpt lat="45.07135" lon="5.59401">
        <ele>1537.9</ele>
      </trkpt>
      <trkpt lat="45.07146" lon="5.59393">
        <ele>1539</ele>
      </trkpt>
      <trkpt lat="45.07149" lon="5.59389">
        <ele>1538.6</ele>
      </trkpt>
      <trkpt lat="45.07158" lon="5.59384">
        <ele>1541.7</ele>
      </trkpt>
      <trkpt lat="45.07164" lon="5.59377">
        <ele>1541.5</ele>
      </trkpt>
      <trkpt lat="45.07181" lon="5.59366">
        <ele>1543.6</ele>
      </trkpt>
      <trkpt lat="45.07178" lon="5.59375">
        <ele>1546.7</ele>
      </trkpt>
      <trkpt lat="45.07172" lon="5.59384">
        <ele>1549.1</ele>
      </trkpt>
      <trkpt lat="45.07185" lon="5.59374">
        <ele>1549.1</ele>
      </trkpt>
      <trkpt lat="45.07187" lon="5.59373">
        <ele>1549.5</ele>
      </trkpt>
      <trkpt lat="45.07187" lon="5.5938">
        <ele>1552.6</ele>
      </trkpt>
      <trkpt lat="45.0719" lon="5.59393">
        <ele>1559</ele>
      </trkpt>
      <trkpt lat="45.07183" lon="5.59426">
        <ele>1569.7</ele>
      </trkpt>
      <trkpt lat="45.07165" lon="5.59467">
        <ele>1588.1</ele>
      </trkpt>
      <trkpt lat="45.07157" lon="5.59481">
        <ele>1593.1</ele>
      </trkpt>
      <trkpt lat="45.07151" lon="5.59503">
        <ele>1600.8</ele>
      </trkpt>
      <trkpt lat="45.07142" lon="5.59519">
        <ele>1604.8</ele>
      </trkpt>
      <trkpt lat="45.0714" lon="5.59557">
        <ele>1614.4</ele>
      </trkpt>
      <trkpt lat="45.07138" lon="5.59572">
        <ele>1619.3</ele>
      </trkpt>
      <trkpt lat="45.07144" lon="5.59587">
        <ele>1623.7</ele>
      </trkpt>
      <trkpt lat="45.07138" lon="5.59615">
        <ele>1634.3</ele>
      </trkpt>
      <trkpt lat="45.07126" lon="5.59645">
        <ele>1645.8</ele>
      </trkpt>
      <trkpt lat="45.07122" lon="5.59664">
        <ele>1654</ele>
      </trkpt>
      <trkpt lat="45.07114" lon="5.5968">
        <ele>1661.2</ele>
      </trkpt>
      <trkpt lat="45.0711" lon="5.597">
        <ele>1669.1</ele>
      </trkpt>
      <trkpt lat="45.07096" lon="5.59718">
        <ele>1677.4</ele>
      </trkpt>
      <trkpt lat="45.07076" lon="5.59734">
        <ele>1683</ele>
      </trkpt>
      <trkpt lat="45.07072" lon="5.59756">
        <ele>1692</ele>
      </trkpt>
      <trkpt lat="45.07068" lon="5.59762">
        <ele>1694.6</ele>
      </trkpt>
      <trkpt lat="45.07068" lon="5.59781">
        <ele>1703.3</ele>
      </trkpt>
      <trkpt lat="45.07064" lon="5.5979">
        <ele>1707.2</ele>
      </trkpt>
      <trkpt lat="45.07027" lon="5.59837">
        <ele>1727.8</ele>
      </trkpt>
      <trkpt lat="45.07026" lon="5.59852">
        <ele>1732.5</ele>
      </trkpt>
      <trkpt lat="45.07019" lon="5.59864">
        <ele>1735.3</ele>
      </trkpt>
      <trkpt lat="45.07017" lon="5.59873">
        <ele>1738.9</ele>
      </trkpt>
      <trkpt lat="45.07017" lon="5.59885">
        <ele>1744.2</ele>
      </trkpt>
      <trkpt lat="45.07" lon="5.59901">
        <ele>1753.4</ele>
      </trkpt>
      <trkpt lat="45.06997" lon="5.59909">
        <ele>1755.3</ele>
      </trkpt>
      <trkpt lat="45.0699" lon="5.59922">
        <ele>1758.4</ele>
      </trkpt>
      <trkpt lat="45.06983" lon="5.5995">
        <ele>1768.4</ele>
      </trkpt>
      <trkpt lat="45.06977" lon="5.5996">
        <ele>1772.1</ele>
      </trkpt>
      <trkpt lat="45.06965" lon="5.59968">
        <ele>1771.4</ele>
      </trkpt>
      <trkpt lat="45.06958" lon="5.59975">
        <ele>1771.3</ele>
      </trkpt>
      <trkpt lat="45.06958" lon="5.5998">
        <ele>1773.9</ele>
      </trkpt>
      <trkpt lat="45.0697" lon="5.6">
        <ele>1788.3</ele>
      </trkpt>
      <trkpt lat="45.06969" lon="5.60007">
        <ele>1790.8</ele>
      </trkpt>
      <trkpt lat="45.06957" lon="5.60037">
        <ele>1800.8</ele>
      </trkpt>
      <trkpt lat="45.0695" lon="5.60047">
        <ele>1804.3</ele>
      </trkpt>
      <trkpt lat="45.06939" lon="5.60072">
        <ele>1811.9</ele>
      </trkpt>
      <trkpt lat="45.06935" lon="5.60101">
        <ele>1821.9</ele>
      </trkpt>
      <trkpt lat="45.06929" lon="5.60124">
        <ele>1829.1</ele>
      </trkpt>
      <trkpt lat="45.06929" lon="5.60153">
        <ele>1841.1</ele>
      </trkpt>
      <trkpt lat="45.06922" lon="5.60173">
        <ele>1847.6</ele>
      </trkpt>
      <trkpt lat="45.06935" lon="5.60191">
        <ele>1857.4</ele>
      </trkpt>
      <trkpt lat="45.06946" lon="5.60228">
        <ele>1869.9</ele>
      </trkpt>
      <trkpt lat="45.06952" lon="5.6026">
        <ele>1881.4</ele>
      </trkpt>
      <trkpt lat="45.06954" lon="5.60289">
        <ele>1893.9</ele>
      </trkpt>
      <trkpt lat="45.0694" lon="5.6031">
        <ele>1903.4</ele>
      </trkpt>
      <trkpt lat="45.06957" lon="5.60352">
        <ele>1926.2</ele>
      </trkpt>
      <trkpt lat="45.06938" lon="5.60367">
        <ele>1935.8</ele>
      </trkpt>
      <trkpt lat="45.06955" lon="5.60396">
        <ele>1948.7</ele>
      </trkpt>
      <trkpt lat="45.06962" lon="5.60423">
        <ele>1958.9</ele>
      </trkpt>
      <trkpt lat="45.06949" lon="5.60428">
        <ele>1966.8</ele>
      </trkpt>
      <trkpt lat="45.06937" lon="5.60428">
        <ele>1971.3</ele>
      </trkpt>
      <trkpt lat="45.06909" lon="5.60445">
        <ele>1991.6</ele>
      </trkpt>
      <trkpt lat="45.06885" lon="5.60453">
        <ele>2006.4</ele>
      </trkpt>
      <trkpt lat="45.06874" lon="5.60478">
        <ele>2022.7</ele>
      </trkpt>
      <trkpt lat="45.06857" lon="5.60484">
        <ele>2027.5</ele>
      </trkpt>
      <trkpt lat="45.06872" lon="5.60525">
        <ele>2032.7</ele>
        <extensions>
          <visugpx:TrkExtension xmlns:visugpx="https://www.visugpx.com/editgpx/">
            <visugpx:node>38</visugpx:node>
            </visugpx:TrkExtension>
        </extensions>
      </trkpt>
      <trkpt lat="45.06883" lon="5.60554">
        <ele>2032</ele>
      </trkpt>
      <trkpt lat="45.06906" lon="5.60567">
        <ele>2027.1</ele>
      </trkpt>
      <trkpt lat="45.06914" lon="5.60566">
        <ele>2026.4</ele>
      </trkpt>
      <trkpt lat="45.06945" lon="5.6059">
        <ele>2012.2</ele>
      </trkpt>
      <trkpt lat="45.06952" lon="5.6059">
        <ele>2010.1</ele>
      </trkpt>
      <trkpt lat="45.06968" lon="5.60609">
        <ele>2001.8</ele>
      </trkpt>
      <trkpt lat="45.06978" lon="5.60613">
        <ele>1999.1</ele>
      </trkpt>
      <trkpt lat="45.06998" lon="5.60629">
        <ele>1991.9</ele>
      </trkpt>
      <trkpt lat="45.0701" lon="5.60644">
        <ele>1986.3</ele>
      </trkpt>
      <trkpt lat="45.07028" lon="5.60649">
        <ele>1982.1</ele>
      </trkpt>
      <trkpt lat="45.07036" lon="5.60654">
        <ele>1978.9</ele>
      </trkpt>
      <trkpt lat="45.07043" lon="5.60666">
        <ele>1976.8</ele>
      </trkpt>
      <trkpt lat="45.07062" lon="5.60673">
        <ele>1970.3</ele>
      </trkpt>
      <trkpt lat="45.07103" lon="5.60713">
        <ele>1953.7</ele>
      </trkpt>
      <trkpt lat="45.07127" lon="5.60727">
        <ele>1947.6</ele>
      </trkpt>
      <trkpt lat="45.0714" lon="5.60743">
        <ele>1944.4</ele>
      </trkpt>
      <trkpt lat="45.0716" lon="5.60766">
        <ele>1942.7</ele>
      </trkpt>
      <trkpt lat="45.07182" lon="5.60781">
        <ele>1946.4</ele>
      </trkpt>
      <trkpt lat="45.07205" lon="5.60792">
        <ele>1950.3</ele>
      </trkpt>
      <trkpt lat="45.07225" lon="5.60795">
        <ele>1952.9</ele>
      </trkpt>
      <trkpt lat="45.07236" lon="5.60801">
        <ele>1953.8</ele>
      </trkpt>
      <trkpt lat="45.07243" lon="5.60803">
        <ele>1954.3</ele>
      </trkpt>
      <trkpt lat="45.07264" lon="5.60803">
        <ele>1955</ele>
      </trkpt>
      <trkpt lat="45.07306" lon="5.60811">
        <ele>1958.5</ele>
      </trkpt>
      <trkpt lat="45.07328" lon="5.60807">
        <ele>1962.9</ele>
      </trkpt>
      <trkpt lat="45.07342" lon="5.60809">
        <ele>1965</ele>
      </trkpt>
      <trkpt lat="45.07353" lon="5.60805">
        <ele>1966.6</ele>
      </trkpt>
      <trkpt lat="45.07384" lon="5.60799">
        <ele>1966.1</ele>
      </trkpt>
      <trkpt lat="45.07397" lon="5.60791">
        <ele>1964.1</ele>
      </trkpt>
      <trkpt lat="45.07408" lon="5.60787">
        <ele>1963.9</ele>
      </trkpt>
      <trkpt lat="45.07419" lon="5.60769">
        <ele>1958</ele>
      </trkpt>
      <trkpt lat="45.07425" lon="5.60772">
        <ele>1960.7</ele>
      </trkpt>
      <trkpt lat="45.07426" lon="5.60763">
        <ele>1956.4</ele>
      </trkpt>
      <trkpt lat="45.07426" lon="5.60756">
        <ele>1953</ele>
      </trkpt>
      <trkpt lat="45.07429" lon="5.6075">
        <ele>1950.7</ele>
      </trkpt>
      <trkpt lat="45.07429" lon="5.60743">
        <ele>1946.4</ele>
      </trkpt>
      <trkpt lat="45.07432" lon="5.60743">
        <ele>1947.1</ele>
      </trkpt>
      <trkpt lat="45.07435" lon="5.60737">
        <ele>1944.2</ele>
      </trkpt>
      <trkpt lat="45.07438" lon="5.60734">
        <ele>1943.1</ele>
      </trkpt>
      <trkpt lat="45.07439" lon="5.6073">
        <ele>1941</ele>
      </trkpt>
      <trkpt lat="45.07442" lon="5.60728">
        <ele>1940.7</ele>
      </trkpt>
      <trkpt lat="45.07445" lon="5.60721">
        <ele>1937.3</ele>
      </trkpt>
      <trkpt lat="45.07454" lon="5.6071">
        <ele>1931.7</ele>
      </trkpt>
      <trkpt lat="45.07457" lon="5.607">
        <ele>1926.1</ele>
      </trkpt>
      <trkpt lat="45.07463" lon="5.60696">
        <ele>1924.6</ele>
      </trkpt>
      <trkpt lat="45.07458" lon="5.60687">
        <ele>1918.8</ele>
      </trkpt>
      <trkpt lat="45.07461" lon="5.60679">
        <ele>1914.8</ele>
      </trkpt>
      <trkpt lat="45.07467" lon="5.60668">
        <ele>1909.8</ele>
      </trkpt>
      <trkpt lat="45.07463" lon="5.60664">
        <ele>1906.8</ele>
      </trkpt>
      <trkpt lat="45.07464" lon="5.60659">
        <ele>1904</ele>
      </trkpt>
      <trkpt lat="45.07466" lon="5.60658">
        <ele>1903.8</ele>
      </trkpt>
      <trkpt lat="45.07466" lon="5.60655">
        <ele>1902.1</ele>
      </trkpt>
      <trkpt lat="45.07472" lon="5.60643">
        <ele>1896.3</ele>
      </trkpt>
      <trkpt lat="45.07476" lon="5.60625">
        <ele>1886.1</ele>
      </trkpt>
      <trkpt lat="45.0748" lon="5.60621">
        <ele>1883.9</ele>
      </trkpt>
      <trkpt lat="45.07484" lon="5.60621">
        <ele>1884</ele>
      </trkpt>
      <trkpt lat="45.07483" lon="5.60616">
        <ele>1881.1</ele>
      </trkpt>
      <trkpt lat="45.07485" lon="5.60615">
        <ele>1880.6</ele>
      </trkpt>
      <trkpt lat="45.07485" lon="5.60611">
        <ele>1878.4</ele>
      </trkpt>
      <trkpt lat="45.07484" lon="5.60606">
        <ele>1875.3</ele>
      </trkpt>
      <trkpt lat="45.07486" lon="5.60605">
        <ele>1874.8</ele>
      </trkpt>
      <trkpt lat="45.07482" lon="5.60599">
        <ele>1870.8</ele>
      </trkpt>
      <trkpt lat="45.07475" lon="5.60593">
        <ele>1866.5</ele>
      </trkpt>
      <trkpt lat="45.07479" lon="5.6059">
        <ele>1864.9</ele>
      </trkpt>
      <trkpt lat="45.07476" lon="5.60587">
        <ele>1862.7</ele>
      </trkpt>
      <trkpt lat="45.07475" lon="5.60579">
        <ele>1857.5</ele>
      </trkpt>
      <trkpt lat="45.07481" lon="5.60579">
        <ele>1858.2</ele>
      </trkpt>
      <trkpt lat="45.075" lon="5.60578">
        <ele>1859.7</ele>
      </trkpt>
      <trkpt lat="45.07528" lon="5.60578">
        <ele>1857.9</ele>
      </trkpt>
      <trkpt lat="45.07556" lon="5.60585">
        <ele>1857.7</ele>
      </trkpt>
      <trkpt lat="45.07587" lon="5.60589">
        <ele>1852.8</ele>
      </trkpt>
      <trkpt lat="45.07605" lon="5.60594">
        <ele>1850.4</ele>
      </trkpt>
      <trkpt lat="45.07623" lon="5.60603">
        <ele>1850.3</ele>
      </trkpt>
      <trkpt lat="45.0765" lon="5.60621">
        <ele>1851.9</ele>
      </trkpt>
      <trkpt lat="45.07658" lon="5.60619">
        <ele>1848.7</ele>
      </trkpt>
      <trkpt lat="45.07667" lon="5.60626">
        <ele>1849.9</ele>
      </trkpt>
      <trkpt lat="45.07683" lon="5.60622">
        <ele>1842.9</ele>
      </trkpt>
      <trkpt lat="45.07797" lon="5.60624">
        <ele>1808.3</ele>
      </trkpt>
      <trkpt lat="45.07813" lon="5.60632">
        <ele>1807</ele>
      </trkpt>
      <trkpt lat="45.07825" lon="5.60629">
        <ele>1801.5</ele>
      </trkpt>
      <trkpt lat="45.07831" lon="5.60634">
        <ele>1802.1</ele>
      </trkpt>
      <trkpt lat="45.07835" lon="5.60627">
        <ele>1797</ele>
      </trkpt>
      <trkpt lat="45.0784" lon="5.60623">
        <ele>1793.3</ele>
      </trkpt>
      <trkpt lat="45.07854" lon="5.60627">
        <ele>1790.9</ele>
      </trkpt>
      <trkpt lat="45.07862" lon="5.60633">
        <ele>1791.5</ele>
      </trkpt>
      <trkpt lat="45.07868" lon="5.6063">
        <ele>1788</ele>
      </trkpt>
      <trkpt lat="45.07872" lon="5.60632">
        <ele>1787.8</ele>
      </trkpt>
      <trkpt lat="45.07931" lon="5.6064">
        <ele>1772.9</ele>
      </trkpt>
      <trkpt lat="45.07962" lon="5.60654">
        <ele>1769.7</ele>
      </trkpt>
      <trkpt lat="45.07976" lon="5.60656">
        <ele>1766.4</ele>
      </trkpt>
      <trkpt lat="45.08057" lon="5.6066">
        <ele>1739.6</ele>
      </trkpt>
      <trkpt lat="45.08069" lon="5.60664">
        <ele>1734.3</ele>
      </trkpt>
      <trkpt lat="45.08077" lon="5.60679">
        <ele>1729.4</ele>
      </trkpt>
      <trkpt lat="45.0808" lon="5.60697">
        <ele>1725.4</ele>
      </trkpt>
      <trkpt lat="45.08079" lon="5.60714">
        <ele>1724.5</ele>
      </trkpt>
      <trkpt lat="45.0809" lon="5.60747">
        <ele>1713.2</ele>
      </trkpt>
      <trkpt lat="45.08092" lon="5.60766">
        <ele>1712</ele>
      </trkpt>
      <trkpt lat="45.08122" lon="5.60834">
        <ele>1696.6</ele>
      </trkpt>
      <trkpt lat="45.0813" lon="5.60858">
        <ele>1691.6</ele>
      </trkpt>
      <trkpt lat="45.08154" lon="5.60906">
        <ele>1679.5</ele>
      </trkpt>
      <trkpt lat="45.08161" lon="5.60935">
        <ele>1680.7</ele>
      </trkpt>
      <trkpt lat="45.08195" lon="5.60997">
        <ele>1675.8</ele>
      </trkpt>
      <trkpt lat="45.08204" lon="5.6102">
        <ele>1676.3</ele>
      </trkpt>
      <trkpt lat="45.08212" lon="5.61037">
        <ele>1677.3</ele>
      </trkpt>
      <trkpt lat="45.08224" lon="5.61041">
        <ele>1673.2</ele>
      </trkpt>
      <trkpt lat="45.08224" lon="5.61052">
        <ele>1677.2</ele>
      </trkpt>
      <trkpt lat="45.08227" lon="5.61061">
        <ele>1680.4</ele>
      </trkpt>
      <trkpt lat="45.08234" lon="5.61072">
        <ele>1684.9</ele>
      </trkpt>
      <trkpt lat="45.08236" lon="5.61082">
        <ele>1690.3</ele>
      </trkpt>
      <trkpt lat="45.08242" lon="5.61078">
        <ele>1687.7</ele>
      </trkpt>
      <trkpt lat="45.08262" lon="5.61078">
        <ele>1689.9</ele>
      </trkpt>
      <trkpt lat="45.08279" lon="5.61068">
        <ele>1686.8</ele>
      </trkpt>
      <trkpt lat="45.08301" lon="5.61066">
        <ele>1691.1</ele>
      </trkpt>
      <trkpt lat="45.08309" lon="5.61069">
        <ele>1694</ele>
      </trkpt>
      <trkpt lat="45.08312" lon="5.61072">
        <ele>1695.5</ele>
      </trkpt>
      <trkpt lat="45.08313" lon="5.61078">
        <ele>1698.1</ele>
      </trkpt>
      <trkpt lat="45.08324" lon="5.61085">
        <ele>1700</ele>
      </trkpt>
      <trkpt lat="45.08327" lon="5.61089">
        <ele>1700.5</ele>
      </trkpt>
      <trkpt lat="45.08333" lon="5.61112">
        <ele>1703.2</ele>
      </trkpt>
      <trkpt lat="45.08343" lon="5.61203">
        <ele>1711.5</ele>
      </trkpt>
      <trkpt lat="45.08336" lon="5.61256">
        <ele>1723</ele>
      </trkpt>
      <trkpt lat="45.08324" lon="5.61317">
        <ele>1733.5</ele>
      </trkpt>
      <trkpt lat="45.08312" lon="5.61336">
        <ele>1732.5</ele>
      </trkpt>
      <trkpt lat="45.08311" lon="5.6134">
        <ele>1731.3</ele>
      </trkpt>
      <trkpt lat="45.08318" lon="5.61343">
        <ele>1731.3</ele>
      </trkpt>
      <trkpt lat="45.08345" lon="5.61361">
        <ele>1733.9</ele>
      </trkpt>
      <trkpt lat="45.08355" lon="5.61364">
        <ele>1735.8</ele>
      </trkpt>
      <trkpt lat="45.08369" lon="5.61361">
        <ele>1738.8</ele>
      </trkpt>
      <trkpt lat="45.08377" lon="5.61357">
        <ele>1739.3</ele>
      </trkpt>
      <trkpt lat="45.08378" lon="5.61366">
        <ele>1739.3</ele>
      </trkpt>
      <trkpt lat="45.08386" lon="5.61373">
        <ele>1739.7</ele>
      </trkpt>
      <trkpt lat="45.08392" lon="5.61383">
        <ele>1739.8</ele>
      </trkpt>
      <trkpt lat="45.08393" lon="5.61392">
        <ele>1738.7</ele>
      </trkpt>
      <trkpt lat="45.08455" lon="5.6141">
        <ele>1747.8</ele>
      </trkpt>
      <trkpt lat="45.08469" lon="5.61419">
        <ele>1753.5</ele>
      </trkpt>
      <trkpt lat="45.08482" lon="5.61417">
        <ele>1760.8</ele>
      </trkpt>
      <trkpt lat="45.0849" lon="5.61416">
        <ele>1764.9</ele>
      </trkpt>
      <trkpt lat="45.08491" lon="5.61422">
        <ele>1764.5</ele>
      </trkpt>
      <trkpt lat="45.08494" lon="5.61425">
        <ele>1765.7</ele>
      </trkpt>
      <trkpt lat="45.08513" lon="5.61429">
        <ele>1775.5</ele>
      </trkpt>
      <trkpt lat="45.08515" lon="5.61435">
        <ele>1776.6</ele>
      </trkpt>
      <trkpt lat="45.08531" lon="5.61435">
        <ele>1785.6</ele>
      </trkpt>
      <trkpt lat="45.08547" lon="5.61441">
        <ele>1794.8</ele>
      </trkpt>
      <trkpt lat="45.08573" lon="5.61434">
        <ele>1805.2</ele>
      </trkpt>
      <trkpt lat="45.08579" lon="5.61433">
        <ele>1807.5</ele>
      </trkpt>
      <trkpt lat="45.08584" lon="5.61439">
        <ele>1811.4</ele>
      </trkpt>
      <trkpt lat="45.08589" lon="5.6144">
        <ele>1813.1</ele>
      </trkpt>
      <trkpt lat="45.08589" lon="5.61453">
        <ele>1817.3</ele>
      </trkpt>
      <trkpt lat="45.08616" lon="5.61461">
        <ele>1828.3</ele>
      </trkpt>
      <trkpt lat="45.08621" lon="5.6147">
        <ele>1832.8</ele>
      </trkpt>
      <trkpt lat="45.0862" lon="5.61474">
        <ele>1834</ele>
      </trkpt>
      <trkpt lat="45.08614" lon="5.61474">
        <ele>1832.9</ele>
      </trkpt>
      <trkpt lat="45.08608" lon="5.61479">
        <ele>1831.9</ele>
      </trkpt>
      <trkpt lat="45.08601" lon="5.61481">
        <ele>1829.1</ele>
      </trkpt>
      <trkpt lat="45.08604" lon="5.61502">
        <ele>1832.9</ele>
      </trkpt>
      <trkpt lat="45.086" lon="5.61511">
        <ele>1829</ele>
      </trkpt>
      <trkpt lat="45.08603" lon="5.61525">
        <ele>1828.6</ele>
      </trkpt>
      <trkpt lat="45.08612" lon="5.61528">
        <ele>1834.4</ele>
      </trkpt>
      <trkpt lat="45.08615" lon="5.61535">
        <ele>1832.7</ele>
      </trkpt>
      <trkpt lat="45.08613" lon="5.61544">
        <ele>1827.1</ele>
      </trkpt>
      <trkpt lat="45.08622" lon="5.61547">
        <ele>1832.1</ele>
      </trkpt>
      <trkpt lat="45.08633" lon="5.61567">
        <ele>1829.5</ele>
      </trkpt>
      <trkpt lat="45.08666" lon="5.61588">
        <ele>1851.4</ele>
      </trkpt>
      <trkpt lat="45.08681" lon="5.61596">
        <ele>1862.5</ele>
      </trkpt>
      <trkpt lat="45.08695" lon="5.616">
        <ele>1876.4</ele>
      </trkpt>
      <trkpt lat="45.08708" lon="5.61607">
        <ele>1884.8</ele>
      </trkpt>
      <trkpt lat="45.08729" lon="5.61608">
        <ele>1896.4</ele>
      </trkpt>
      <trkpt lat="45.08742" lon="5.61619">
        <ele>1898</ele>
      </trkpt>
      <trkpt lat="45.08749" lon="5.6163">
        <ele>1899</ele>
      </trkpt>
      <trkpt lat="45.08757" lon="5.61636">
        <ele>1898.2</ele>
      </trkpt>
      <trkpt lat="45.08758" lon="5.61648">
        <ele>1896.3</ele>
      </trkpt>
      <trkpt lat="45.08767" lon="5.61666">
        <ele>1894.1</ele>
      </trkpt>
      <trkpt lat="45.08767" lon="5.61677">
        <ele>1892.3</ele>
      </trkpt>
      <trkpt lat="45.0877" lon="5.61683">
        <ele>1892.6</ele>
      </trkpt>
      <trkpt lat="45.08778" lon="5.6169">
        <ele>1896</ele>
      </trkpt>
      <trkpt lat="45.08782" lon="5.61714">
        <ele>1896.5</ele>
      </trkpt>
      <trkpt lat="45.08802" lon="5.61765">
        <ele>1905.9</ele>
      </trkpt>
      <trkpt lat="45.08813" lon="5.61786">
        <ele>1908.7</ele>
      </trkpt>
      <trkpt lat="45.08819" lon="5.61808">
        <ele>1908.6</ele>
      </trkpt>
      <trkpt lat="45.08824" lon="5.61815">
        <ele>1910.8</ele>
      </trkpt>
      <trkpt lat="45.08844" lon="5.61827">
        <ele>1919.2</ele>
      </trkpt>
      <trkpt lat="45.08847" lon="5.61832">
        <ele>1920.2</ele>
      </trkpt>
      <trkpt lat="45.08862" lon="5.61839">
        <ele>1922.9</ele>
      </trkpt>
      <trkpt lat="45.08865" lon="5.61844">
        <ele>1923.1</ele>
      </trkpt>
      <trkpt lat="45.08872" lon="5.61847">
        <ele>1921.6</ele>
      </trkpt>
      <trkpt lat="45.08884" lon="5.61869">
        <ele>1923.8</ele>
      </trkpt>
      <trkpt lat="45.08902" lon="5.61942">
        <ele>1923.7</ele>
      </trkpt>
      <trkpt lat="45.08913" lon="5.61962">
        <ele>1917.2</ele>
      </trkpt>
      <trkpt lat="45.08927" lon="5.61969">
        <ele>1919.9</ele>
      </trkpt>
      <trkpt lat="45.08934" lon="5.61966">
        <ele>1924</ele>
      </trkpt>
      <trkpt lat="45.08951" lon="5.61965">
        <ele>1929.5</ele>
      </trkpt>
      <trkpt lat="45.08954" lon="5.61971">
        <ele>1928.4</ele>
      </trkpt>
      <trkpt lat="45.08969" lon="5.61972">
        <ele>1931.3</ele>
      </trkpt>
      <trkpt lat="45.08964" lon="5.61964">
        <ele>1932.1</ele>
      </trkpt>
      <trkpt lat="45.0897" lon="5.61946">
        <ele>1936.5</ele>
      </trkpt>
      <trkpt lat="45.08975" lon="5.61943">
        <ele>1936.7</ele>
      </trkpt>
      <trkpt lat="45.08985" lon="5.61923">
        <ele>1932.1</ele>
      </trkpt>
      <trkpt lat="45.08993" lon="5.61918">
        <ele>1930.1</ele>
      </trkpt>
      <trkpt lat="45.09016" lon="5.61918">
        <ele>1925.5</ele>
      </trkpt>
      <trkpt lat="45.09038" lon="5.61923">
        <ele>1921.7</ele>
      </trkpt>
      <trkpt lat="45.0907" lon="5.61944">
        <ele>1919.6</ele>
      </trkpt>
      <trkpt lat="45.09095" lon="5.61951">
        <ele>1907.8</ele>
      </trkpt>
      <trkpt lat="45.09107" lon="5.61951">
        <ele>1901.6</ele>
      </trkpt>
      <trkpt lat="45.09119" lon="5.6195">
        <ele>1894.3</ele>
      </trkpt>
      <trkpt lat="45.0912" lon="5.61947">
        <ele>1895.7</ele>
      </trkpt>
      <trkpt lat="45.09145" lon="5.61937">
        <ele>1884.5</ele>
      </trkpt>
      <trkpt lat="45.09162" lon="5.61923">
        <ele>1883.2</ele>
      </trkpt>
      <trkpt lat="45.09155" lon="5.61912">
        <ele>1888.4</ele>
      </trkpt>
      <trkpt lat="45.0916" lon="5.61907">
        <ele>1886.4</ele>
      </trkpt>
      <trkpt lat="45.09162" lon="5.61894">
        <ele>1884.1</ele>
      </trkpt>
      <trkpt lat="45.09169" lon="5.61873">
        <ele>1876.4</ele>
      </trkpt>
      <trkpt lat="45.09172" lon="5.61851">
        <ele>1867.6</ele>
      </trkpt>
      <trkpt lat="45.09181" lon="5.61832">
        <ele>1861.1</ele>
      </trkpt>
      <trkpt lat="45.09189" lon="5.6181">
        <ele>1854.6</ele>
      </trkpt>
      <trkpt lat="45.09194" lon="5.61802">
        <ele>1852.9</ele>
      </trkpt>
      <trkpt lat="45.09211" lon="5.61748">
        <ele>1839.8</ele>
      </trkpt>
      <trkpt lat="45.09233" lon="5.61734">
        <ele>1837.8</ele>
      </trkpt>
      <trkpt lat="45.09244" lon="5.61724">
        <ele>1835.2</ele>
      </trkpt>
      <trkpt lat="45.09244" lon="5.61719">
        <ele>1833.4</ele>
      </trkpt>
      <trkpt lat="45.09242" lon="5.61713">
        <ele>1831.2</ele>
      </trkpt>
      <trkpt lat="45.09245" lon="5.61706">
        <ele>1828.9</ele>
      </trkpt>
      <trkpt lat="45.09266" lon="5.61701">
        <ele>1827.4</ele>
      </trkpt>
      <trkpt lat="45.09273" lon="5.61696">
        <ele>1825.6</ele>
      </trkpt>
      <trkpt lat="45.09311" lon="5.61691">
        <ele>1822.6</ele>
      </trkpt>
      <trkpt lat="45.09316" lon="5.61684">
        <ele>1819.9</ele>
      </trkpt>
      <trkpt lat="45.09342" lon="5.61677">
        <ele>1816.4</ele>
      </trkpt>
      <trkpt lat="45.09346" lon="5.61672">
        <ele>1814.5</ele>
      </trkpt>
      <trkpt lat="45.09377" lon="5.61666">
        <ele>1811.2</ele>
      </trkpt>
      <trkpt lat="45.09385" lon="5.61659">
        <ele>1808.9</ele>
      </trkpt>
      <trkpt lat="45.09391" lon="5.61641">
        <ele>1803.5</ele>
      </trkpt>
      <trkpt lat="45.09402" lon="5.6163">
        <ele>1800.4</ele>
      </trkpt>
      <trkpt lat="45.09412" lon="5.61613">
        <ele>1796.4</ele>
      </trkpt>
      <trkpt lat="45.09433" lon="5.61598">
        <ele>1793.2</ele>
      </trkpt>
      <trkpt lat="45.0944" lon="5.6159">
        <ele>1791.4</ele>
      </trkpt>
      <trkpt lat="45.09462" lon="5.61588">
        <ele>1790.5</ele>
      </trkpt>
      <trkpt lat="45.09484" lon="5.61561">
        <ele>1783.3</ele>
      </trkpt>
      <trkpt lat="45.09501" lon="5.6155">
        <ele>1779.5</ele>
        <extensions>
          <visugpx:TrkExtension xmlns:visugpx="https://www.visugpx.com/editgpx/">
            <visugpx:node>12</visugpx:node>
            </visugpx:TrkExtension>
        </extensions>
      </trkpt>
      <trkpt lat="45.09523" lon="5.61534">
        <ele>1773.9</ele>
      </trkpt>
      <trkpt lat="45.09537" lon="5.61517">
        <ele>1768.3</ele>
      </trkpt>
      <trkpt lat="45.09537" lon="5.61513">
        <ele>1767.3</ele>
      </trkpt>
      <trkpt lat="45.09554" lon="5.615">
        <ele>1762.2</ele>
      </trkpt>
      <trkpt lat="45.09554" lon="5.61495">
        <ele>1761.1</ele>
      </trkpt>
      <trkpt lat="45.0956" lon="5.61482">
        <ele>1757.3</ele>
      </trkpt>
      <trkpt lat="45.09565" lon="5.61453">
        <ele>1750.6</ele>
      </trkpt>
      <trkpt lat="45.0957" lon="5.61449">
        <ele>1749.3</ele>
      </trkpt>
      <trkpt lat="45.09577" lon="5.61449">
        <ele>1748.4</ele>
      </trkpt>
      <trkpt lat="45.09585" lon="5.61441">
        <ele>1745.8</ele>
      </trkpt>
      <trkpt lat="45.09592" lon="5.6144">
        <ele>1744.8</ele>
      </trkpt>
      <trkpt lat="45.09605" lon="5.61426">
        <ele>1739.3</ele>
      </trkpt>
      <trkpt lat="45.09619" lon="5.61418">
        <ele>1735.8</ele>
      </trkpt>
      <trkpt lat="45.09687" lon="5.615">
        <ele>1753.8</ele>
      </trkpt>
      <trkpt lat="45.09741" lon="5.61538">
        <ele>1759.2</ele>
      </trkpt>
      <trkpt lat="45.09781" lon="5.61573">
        <ele>1766.5</ele>
      </trkpt>
      <trkpt lat="45.09824" lon="5.61575">
        <ele>1765.8</ele>
      </trkpt>
      <trkpt lat="45.09845" lon="5.61598">
        <ele>1772.4</ele>
      </trkpt>
      <trkpt lat="45.09852" lon="5.61604">
        <ele>1774.5</ele>
      </trkpt>
      <trkpt lat="45.09859" lon="5.61606">
        <ele>1775.3</ele>
      </trkpt>
      <trkpt lat="45.0991" lon="5.61595">
        <ele>1771.8</ele>
      </trkpt>
      <trkpt lat="45.09934" lon="5.61607">
        <ele>1775.7</ele>
      </trkpt>
      <trkpt lat="45.09948" lon="5.61593">
        <ele>1770.9</ele>
      </trkpt>
      <trkpt lat="45.09962" lon="5.61584">
        <ele>1767</ele>
      </trkpt>
      <trkpt lat="45.10029" lon="5.61572">
        <ele>1755.2</ele>
      </trkpt>
      <trkpt lat="45.1005" lon="5.61578">
        <ele>1754.1</ele>
      </trkpt>
      <trkpt lat="45.10074" lon="5.6159">
        <ele>1754.5</ele>
      </trkpt>
      <trkpt lat="45.10136" lon="5.61651">
        <ele>1763.9</ele>
      </trkpt>
      <trkpt lat="45.10161" lon="5.61654">
        <ele>1760.5</ele>
      </trkpt>
      <trkpt lat="45.10177" lon="5.61664">
        <ele>1761.2</ele>
      </trkpt>
      <trkpt lat="45.10189" lon="5.61668">
        <ele>1760.5</ele>
      </trkpt>
      <trkpt lat="45.1022" lon="5.61661">
        <ele>1753.5</ele>
      </trkpt>
      <trkpt lat="45.10261" lon="5.61665">
        <ele>1750.3</ele>
      </trkpt>
      <trkpt lat="45.10306" lon="5.61678">
        <ele>1750</ele>
      </trkpt>
      <trkpt lat="45.1033" lon="5.61687">
        <ele>1751.6</ele>
      </trkpt>
      <trkpt lat="45.1038" lon="5.61688">
        <ele>1747.9</ele>
      </trkpt>
      <trkpt lat="45.10382" lon="5.61689">
        <ele>1748</ele>
        <extensions>
          <visugpx:TrkExtension xmlns:visugpx="https://www.visugpx.com/editgpx/">
            <visugpx:node>13</visugpx:node>
            </visugpx:TrkExtension>
        </extensions>
      </trkpt>
      <trkpt lat="45.10405" lon="5.61696">
        <ele>1747.1</ele>
      </trkpt>
      <trkpt lat="45.10424" lon="5.61705">
        <ele>1745.6</ele>
      </trkpt>
      <trkpt lat="45.10433" lon="5.61715">
        <ele>1745.5</ele>
      </trkpt>
      <trkpt lat="45.10441" lon="5.61735">
        <ele>1747.7</ele>
      </trkpt>
      <trkpt lat="45.10443" lon="5.61764">
        <ele>1753</ele>
      </trkpt>
      <trkpt lat="45.10446" lon="5.61783">
        <ele>1755.6</ele>
      </trkpt>
      <trkpt lat="45.10455" lon="5.61798">
        <ele>1756.2</ele>
      </trkpt>
      <trkpt lat="45.10497" lon="5.61822">
        <ele>1750.9</ele>
      </trkpt>
      <trkpt lat="45.1051" lon="5.6184">
        <ele>1752.2</ele>
      </trkpt>
      <trkpt lat="45.10516" lon="5.61889">
        <ele>1763.1</ele>
      </trkpt>
      <trkpt lat="45.10543" lon="5.61958">
        <ele>1771.3</ele>
      </trkpt>
      <trkpt lat="45.10539" lon="5.61974">
        <ele>1774</ele>
      </trkpt>
      <trkpt lat="45.10501" lon="5.62008">
        <ele>1781.8</ele>
      </trkpt>
      <trkpt lat="45.10512" lon="5.62038">
        <ele>1783.8</ele>
      </trkpt>
      <trkpt lat="45.10513" lon="5.62053">
        <ele>1785.3</ele>
      </trkpt>
      <trkpt lat="45.10501" lon="5.62075">
        <ele>1788.1</ele>
      </trkpt>
      <trkpt lat="45.10508" lon="5.62095">
        <ele>1790.4</ele>
      </trkpt>
      <trkpt lat="45.10549" lon="5.62114">
        <ele>1790.9</ele>
      </trkpt>
      <trkpt lat="45.10568" lon="5.62129">
        <ele>1791.5</ele>
      </trkpt>
      <trkpt lat="45.10583" lon="5.62136">
        <ele>1791.5</ele>
      </trkpt>
      <trkpt lat="45.10612" lon="5.62141">
        <ele>1789.4</ele>
      </trkpt>
      <trkpt lat="45.10667" lon="5.62133">
        <ele>1785.3</ele>
      </trkpt>
      <trkpt lat="45.10747" lon="5.62133">
        <ele>1782.3</ele>
      </trkpt>
      <trkpt lat="45.1077" lon="5.62142">
        <ele>1783.6</ele>
      </trkpt>
      <trkpt lat="45.1083" lon="5.6218">
        <ele>1788.3</ele>
      </trkpt>
      <trkpt lat="45.10864" lon="5.6218">
        <ele>1782.2</ele>
      </trkpt>
      <trkpt lat="45.10999" lon="5.62242">
        <ele>1764.7</ele>
      </trkpt>
      <trkpt lat="45.11024" lon="5.6227">
        <ele>1765.9</ele>
      </trkpt>
      <trkpt lat="45.1104" lon="5.62288">
        <ele>1766.9</ele>
      </trkpt>
      <trkpt lat="45.11057" lon="5.62305">
        <ele>1767.6</ele>
      </trkpt>
      <trkpt lat="45.11069" lon="5.62318">
        <ele>1768.7</ele>
      </trkpt>
      <trkpt lat="45.11079" lon="5.62331">
        <ele>1770.2</ele>
      </trkpt>
      <trkpt lat="45.11096" lon="5.62338">
        <ele>1769.3</ele>
      </trkpt>
      <trkpt lat="45.1111" lon="5.62341">
        <ele>1768.6</ele>
      </trkpt>
      <trkpt lat="45.11142" lon="5.62332">
        <ele>1766</ele>
      </trkpt>
      <trkpt lat="45.11156" lon="5.62323">
        <ele>1761.9</ele>
      </trkpt>
      <trkpt lat="45.11192" lon="5.62317">
        <ele>1751.2</ele>
      </trkpt>
      <trkpt lat="45.11203" lon="5.62317">
        <ele>1747.5</ele>
      </trkpt>
      <trkpt lat="45.11221" lon="5.62338">
        <ele>1740.9</ele>
      </trkpt>
      <trkpt lat="45.1123" lon="5.62348">
        <ele>1737.5</ele>
      </trkpt>
      <trkpt lat="45.11255" lon="5.62365">
        <ele>1730.6</ele>
      </trkpt>
      <trkpt lat="45.11283" lon="5.62374">
        <ele>1725.8</ele>
        <extensions>
          <visugpx:TrkExtension xmlns:visugpx="https://www.visugpx.com/editgpx/">
            <visugpx:node>14</visugpx:node>
            </visugpx:TrkExtension>
        </extensions>
      </trkpt>
      <trkpt lat="45.1129" lon="5.62377">
        <ele>1724.7</ele>
      </trkpt>
      <trkpt lat="45.11296" lon="5.62378">
        <ele>1723.9</ele>
      </trkpt>
      <trkpt lat="45.11311" lon="5.62388">
        <ele>1722.6</ele>
      </trkpt>
      <trkpt lat="45.11322" lon="5.62397">
        <ele>1720.8</ele>
      </trkpt>
      <trkpt lat="45.1135" lon="5.62405">
        <ele>1718.4</ele>
      </trkpt>
      <trkpt lat="45.11387" lon="5.62418">
        <ele>1713.8</ele>
      </trkpt>
      <trkpt lat="45.114" lon="5.62415">
        <ele>1712.6</ele>
      </trkpt>
      <trkpt lat="45.11413" lon="5.62422">
        <ele>1709.2</ele>
      </trkpt>
      <trkpt lat="45.11427" lon="5.62421">
        <ele>1707.5</ele>
      </trkpt>
      <trkpt lat="45.11433" lon="5.62415">
        <ele>1707.8</ele>
      </trkpt>
      <trkpt lat="45.11438" lon="5.62415">
        <ele>1707.1</ele>
      </trkpt>
      <trkpt lat="45.11444" lon="5.62425">
        <ele>1704.3</ele>
      </trkpt>
      <trkpt lat="45.11455" lon="5.62427">
        <ele>1702.4</ele>
      </trkpt>
      <trkpt lat="45.1146" lon="5.62434">
        <ele>1700.4</ele>
      </trkpt>
      <trkpt lat="45.11463" lon="5.62442">
        <ele>1698.5</ele>
      </trkpt>
      <trkpt lat="45.11461" lon="5.62453">
        <ele>1695</ele>
      </trkpt>
      <trkpt lat="45.11471" lon="5.62465">
        <ele>1689.7</ele>
      </trkpt>
      <trkpt lat="45.11479" lon="5.62446">
        <ele>1695.7</ele>
      </trkpt>
      <trkpt lat="45.11483" lon="5.62434">
        <ele>1697.6</ele>
        <extensions>
          <visugpx:TrkExtension xmlns:visugpx="https://www.visugpx.com/editgpx/">
            <visugpx:node>15</visugpx:node>
            </visugpx:TrkExtension>
        </extensions>
      </trkpt>
      <trkpt lat="45.11486" lon="5.62427">
        <ele>1698.3</ele>
      </trkpt>
      <trkpt lat="45.11532" lon="5.62446">
        <ele>1691.2</ele>
      </trkpt>
      <trkpt lat="45.11582" lon="5.62456">
        <ele>1683.9</ele>
      </trkpt>
      <trkpt lat="45.11609" lon="5.62464">
        <ele>1679.6</ele>
      </trkpt>
      <trkpt lat="45.11697" lon="5.62492">
        <ele>1669.6</ele>
      </trkpt>
      <trkpt lat="45.11726" lon="5.6249">
        <ele>1668</ele>
      </trkpt>
      <trkpt lat="45.11795" lon="5.62436">
        <ele>1655.3</ele>
      </trkpt>
      <trkpt lat="45.11815" lon="5.62389">
        <ele>1648</ele>
      </trkpt>
      <trkpt lat="45.11839" lon="5.62352">
        <ele>1645.7</ele>
      </trkpt>
      <trkpt lat="45.11871" lon="5.62353">
        <ele>1645.4</ele>
      </trkpt>
      <trkpt lat="45.11958" lon="5.6235">
        <ele>1639.4</ele>
      </trkpt>
      <trkpt lat="45.12026" lon="5.62338">
        <ele>1634.1</ele>
      </trkpt>
      <trkpt lat="45.12044" lon="5.6234">
        <ele>1632</ele>
      </trkpt>
      <trkpt lat="45.12077" lon="5.62335">
        <ele>1627.8</ele>
      </trkpt>
      <trkpt lat="45.12092" lon="5.62338">
        <ele>1625.4</ele>
      </trkpt>
      <trkpt lat="45.12106" lon="5.62345">
        <ele>1622.9</ele>
      </trkpt>
      <trkpt lat="45.12137" lon="5.62344">
        <ele>1619.4</ele>
      </trkpt>
      <trkpt lat="45.12163" lon="5.62357">
        <ele>1615.6</ele>
      </trkpt>
      <trkpt lat="45.12171" lon="5.62357">
        <ele>1614.4</ele>
      </trkpt>
      <trkpt lat="45.12178" lon="5.62355">
        <ele>1613.3</ele>
      </trkpt>
      <trkpt lat="45.122" lon="5.62345">
        <ele>1610.2</ele>
      </trkpt>
      <trkpt lat="45.12204" lon="5.62346">
        <ele>1609.4</ele>
      </trkpt>
      <trkpt lat="45.12248" lon="5.6234">
        <ele>1601.4</ele>
      </trkpt>
      <trkpt lat="45.12254" lon="5.62338">
        <ele>1600.5</ele>
      </trkpt>
      <trkpt lat="45.1226" lon="5.62335">
        <ele>1599.6</ele>
      </trkpt>
      <trkpt lat="45.12279" lon="5.62311">
        <ele>1595.3</ele>
      </trkpt>
      <trkpt lat="45.123" lon="5.62297">
        <ele>1591.4</ele>
      </trkpt>
      <trkpt lat="45.12303" lon="5.62292">
        <ele>1590.4</ele>
      </trkpt>
      <trkpt lat="45.12313" lon="5.62294">
        <ele>1590.1</ele>
      </trkpt>
      <trkpt lat="45.12333" lon="5.62297">
        <ele>1590.2</ele>
      </trkpt>
      <trkpt lat="45.12343" lon="5.62294">
        <ele>1590.3</ele>
      </trkpt>
      <trkpt lat="45.12377" lon="5.62283">
        <ele>1590.1</ele>
      </trkpt>
      <trkpt lat="45.12393" lon="5.62275">
        <ele>1589.4</ele>
      </trkpt>
      <trkpt lat="45.12399" lon="5.62274">
        <ele>1589.6</ele>
      </trkpt>
      <trkpt lat="45.12404" lon="5.62275">
        <ele>1590.3</ele>
      </trkpt>
      <trkpt lat="45.12464" lon="5.62313">
        <ele>1600.8</ele>
      </trkpt>
      <trkpt lat="45.12476" lon="5.62321">
        <ele>1601.9</ele>
      </trkpt>
      <trkpt lat="45.12488" lon="5.62325">
        <ele>1603</ele>
      </trkpt>
      <trkpt lat="45.12502" lon="5.62329">
        <ele>1604.2</ele>
      </trkpt>
      <trkpt lat="45.12512" lon="5.62335">
        <ele>1605.3</ele>
      </trkpt>
      <trkpt lat="45.12529" lon="5.62336">
        <ele>1607.1</ele>
      </trkpt>
      <trkpt lat="45.12539" lon="5.62344">
        <ele>1607.8</ele>
      </trkpt>
      <trkpt lat="45.12549" lon="5.62347">
        <ele>1608.5</ele>
      </trkpt>
      <trkpt lat="45.12568" lon="5.62333">
        <ele>1610.3</ele>
      </trkpt>
      <trkpt lat="45.12607" lon="5.62336">
        <ele>1613.8</ele>
      </trkpt>
      <trkpt lat="45.12627" lon="5.62329">
        <ele>1615</ele>
      </trkpt>
      <trkpt lat="45.12655" lon="5.62312">
        <ele>1616.4</ele>
      </trkpt>
      <trkpt lat="45.12662" lon="5.6231">
        <ele>1616.8</ele>
      </trkpt>
      <trkpt lat="45.1267" lon="5.62315">
        <ele>1617.6</ele>
      </trkpt>
      <trkpt lat="45.12687" lon="5.62336">
        <ele>1619.7</ele>
      </trkpt>
      <trkpt lat="45.1269" lon="5.62342">
        <ele>1620.3</ele>
      </trkpt>
      <trkpt lat="45.12697" lon="5.62353">
        <ele>1621.7</ele>
      </trkpt>
      <trkpt lat="45.12711" lon="5.62367">
        <ele>1624.2</ele>
      </trkpt>
      <trkpt lat="45.12719" lon="5.62369">
        <ele>1625.2</ele>
      </trkpt>
      <trkpt lat="45.12729" lon="5.62368">
        <ele>1626.2</ele>
      </trkpt>
      <trkpt lat="45.12742" lon="5.62363">
        <ele>1627.3</ele>
      </trkpt>
      <trkpt lat="45.12748" lon="5.62354">
        <ele>1627.5</ele>
      </trkpt>
      <trkpt lat="45.12754" lon="5.62332">
        <ele>1627.6</ele>
      </trkpt>
      <trkpt lat="45.12756" lon="5.62312">
        <ele>1628</ele>
      </trkpt>
      <trkpt lat="45.12755" lon="5.62303">
        <ele>1628</ele>
      </trkpt>
      <trkpt lat="45.12755" lon="5.62301">
        <ele>1628.1</ele>
      </trkpt>
      <trkpt lat="45.12734" lon="5.62234">
        <ele>1626.1</ele>
      </trkpt>
      <trkpt lat="45.12732" lon="5.62226">
        <ele>1625.8</ele>
      </trkpt>
      <trkpt lat="45.12732" lon="5.62218">
        <ele>1625.8</ele>
      </trkpt>
      <trkpt lat="45.12732" lon="5.62213">
        <ele>1625.8</ele>
      </trkpt>
      <trkpt lat="45.12733" lon="5.62203">
        <ele>1625.9</ele>
      </trkpt>
      <trkpt lat="45.12735" lon="5.62199">
        <ele>1626.3</ele>
      </trkpt>
      <trkpt lat="45.12745" lon="5.62187">
        <ele>1628</ele>
      </trkpt>
      <trkpt lat="45.12762" lon="5.62154">
        <ele>1630</ele>
      </trkpt>
      <trkpt lat="45.12765" lon="5.62151">
        <ele>1630.3</ele>
      </trkpt>
      <trkpt lat="45.1277" lon="5.62148">
        <ele>1631.1</ele>
      </trkpt>
      <trkpt lat="45.12787" lon="5.62144">
        <ele>1633.4</ele>
      </trkpt>
      <trkpt lat="45.1282" lon="5.62146">
        <ele>1634.4</ele>
      </trkpt>
      <trkpt lat="45.12849" lon="5.62154">
        <ele>1633.1</ele>
      </trkpt>
      <trkpt lat="45.12857" lon="5.62158">
        <ele>1633.2</ele>
      </trkpt>
      <trkpt lat="45.12911" lon="5.62196">
        <ele>1639.9</ele>
      </trkpt>
      <trkpt lat="45.12922" lon="5.62209">
        <ele>1641.5</ele>
      </trkpt>
      <trkpt lat="45.12934" lon="5.62259">
        <ele>1645.5</ele>
      </trkpt>
      <trkpt lat="45.12947" lon="5.62257">
        <ele>1646</ele>
      </trkpt>
      <trkpt lat="45.12975" lon="5.62248">
        <ele>1648.1</ele>
      </trkpt>
      <trkpt lat="45.12981" lon="5.62247">
        <ele>1648.5</ele>
      </trkpt>
      <trkpt lat="45.13005" lon="5.62246">
        <ele>1649.8</ele>
      </trkpt>
      <trkpt lat="45.13052" lon="5.62236">
        <ele>1649</ele>
      </trkpt>
      <trkpt lat="45.13075" lon="5.62234">
        <ele>1648.7</ele>
      </trkpt>
      <trkpt lat="45.13118" lon="5.6222">
        <ele>1645.7</ele>
      </trkpt>
      <trkpt lat="45.13143" lon="5.62225">
        <ele>1646.5</ele>
      </trkpt>
      <trkpt lat="45.13149" lon="5.62224">
        <ele>1646.3</ele>
      </trkpt>
      <trkpt lat="45.13159" lon="5.62215">
        <ele>1645</ele>
      </trkpt>
      <trkpt lat="45.13166" lon="5.62212">
        <ele>1644.5</ele>
      </trkpt>
      <trkpt lat="45.13184" lon="5.6221">
        <ele>1644</ele>
      </trkpt>
      <trkpt lat="45.13212" lon="5.62198">
        <ele>1641.6</ele>
      </trkpt>
      <trkpt lat="45.13236" lon="5.62191">
        <ele>1640</ele>
      </trkpt>
      <trkpt lat="45.13268" lon="5.62196">
        <ele>1639.6</ele>
      </trkpt>
      <trkpt lat="45.13299" lon="5.62209">
        <ele>1640.1</ele>
      </trkpt>
      <trkpt lat="45.13309" lon="5.6221">
        <ele>1639.6</ele>
      </trkpt>
      <trkpt lat="45.13319" lon="5.62211">
        <ele>1639</ele>
      </trkpt>
      <trkpt lat="45.13301" lon="5.62188">
        <ele>1636.4</ele>
      </trkpt>
      <trkpt lat="45.13297" lon="5.62184">
        <ele>1636.1</ele>
        <extensions>
          <visugpx:TrkExtension xmlns:visugpx="https://www.visugpx.com/editgpx/">
            <visugpx:node>52</visugpx:node>
            </visugpx:TrkExtension>
        </extensions>
      </trkpt>
      <trkpt lat="45.13301" lon="5.62188">
        <ele>1636.4</ele>
      </trkpt>
      <trkpt lat="45.13312" lon="5.62202">
        <ele>1637.9</ele>
        <extensions>
          <visugpx:TrkExtension xmlns:visugpx="https://www.visugpx.com/editgpx/">
            <visugpx:node>54</visugpx:node>
            </visugpx:TrkExtension>
        </extensions>
      </trkpt>
      <trkpt lat="45.13317" lon="5.62209">
        <ele>1638.8</ele>
        <extensions>
          <visugpx:TrkExtension xmlns:visugpx="https://www.visugpx.com/editgpx/">
            <visugpx:node>60</visugpx:node>
            </visugpx:TrkExtension>
        </extensions>
      </trkpt>
      <trkpt lat="45.13301" lon="5.62188">
        <ele>1636.4</ele>
      </trkpt>
      <trkpt lat="45.13275" lon="5.62165">
        <ele>1634.9</ele>
      </trkpt>
      <trkpt lat="45.13264" lon="5.62159">
        <ele>1634.4</ele>
      </trkpt>
      <trkpt lat="45.13235" lon="5.62148">
        <ele>1633.9</ele>
      </trkpt>
      <trkpt lat="45.13229" lon="5.62145">
        <ele>1633.6</ele>
      </trkpt>
      <trkpt lat="45.1321" lon="5.62111">
        <ele>1631</ele>
      </trkpt>
      <trkpt lat="45.13195" lon="5.62088">
        <ele>1629.3</ele>
      </trkpt>
      <trkpt lat="45.13188" lon="5.62076">
        <ele>1628</ele>
      </trkpt>
      <trkpt lat="45.13182" lon="5.62067">
        <ele>1627.1</ele>
      </trkpt>
      <trkpt lat="45.13163" lon="5.62035">
        <ele>1624.4</ele>
      </trkpt>
      <trkpt lat="45.13153" lon="5.62018">
        <ele>1622.6</ele>
      </trkpt>
      <trkpt lat="45.13136" lon="5.61991">
        <ele>1619.2</ele>
      </trkpt>
      <trkpt lat="45.13125" lon="5.61978">
        <ele>1617.5</ele>
      </trkpt>
      <trkpt lat="45.13122" lon="5.61971">
        <ele>1616.6</ele>
      </trkpt>
      <trkpt lat="45.13119" lon="5.61957">
        <ele>1614.5</ele>
      </trkpt>
      <trkpt lat="45.1312" lon="5.61947">
        <ele>1613.3</ele>
      </trkpt>
      <trkpt lat="45.13125" lon="5.6193">
        <ele>1612.2</ele>
      </trkpt>
      <trkpt lat="45.13146" lon="5.61896">
        <ele>1611.8</ele>
      </trkpt>
      <trkpt lat="45.13148" lon="5.6189">
        <ele>1611.7</ele>
      </trkpt>
      <trkpt lat="45.13149" lon="5.61876">
        <ele>1611.7</ele>
      </trkpt>
      <trkpt lat="45.13148" lon="5.61863">
        <ele>1611.7</ele>
      </trkpt>
      <trkpt lat="45.13145" lon="5.61854">
        <ele>1611.7</ele>
      </trkpt>
      <trkpt lat="45.13143" lon="5.61849">
        <ele>1611.7</ele>
      </trkpt>
      <trkpt lat="45.13142" lon="5.61847">
        <ele>1611.7</ele>
      </trkpt>
      <trkpt lat="45.13137" lon="5.61841">
        <ele>1611.5</ele>
      </trkpt>
      <trkpt lat="45.1313" lon="5.61839">
        <ele>1610.6</ele>
      </trkpt>
      <trkpt lat="45.13115" lon="5.61842">
        <ele>1608.5</ele>
      </trkpt>
      <trkpt lat="45.13105" lon="5.61848">
        <ele>1606.8</ele>
      </trkpt>
      <trkpt lat="45.13099" lon="5.61856">
        <ele>1605.7</ele>
      </trkpt>
      <trkpt lat="45.13096" lon="5.61862">
        <ele>1605.3</ele>
      </trkpt>
      <trkpt lat="45.13066" lon="5.61854">
        <ele>1600.2</ele>
      </trkpt>
      <trkpt lat="45.13052" lon="5.61842">
        <ele>1597.8</ele>
      </trkpt>
      <trkpt lat="45.13051" lon="5.61835">
        <ele>1597.4</ele>
      </trkpt>
      <trkpt lat="45.13038" lon="5.6181">
        <ele>1594.1</ele>
      </trkpt>
      <trkpt lat="45.1303" lon="5.618">
        <ele>1592.2</ele>
      </trkpt>
      <trkpt lat="45.13017" lon="5.61798">
        <ele>1590</ele>
      </trkpt>
      <trkpt lat="45.12985" lon="5.61781">
        <ele>1582.6</ele>
      </trkpt>
      <trkpt lat="45.12964" lon="5.61775">
        <ele>1577.7</ele>
      </trkpt>
      <trkpt lat="45.12952" lon="5.61768">
        <ele>1573.8</ele>
      </trkpt>
      <trkpt lat="45.12918" lon="5.61754">
        <ele>1565.8</ele>
      </trkpt>
      <trkpt lat="45.12906" lon="5.61753">
        <ele>1563.5</ele>
      </trkpt>
      <trkpt lat="45.12895" lon="5.61745">
        <ele>1559.8</ele>
      </trkpt>
      <trkpt lat="45.12879" lon="5.61748">
        <ele>1557.7</ele>
      </trkpt>
      <trkpt lat="45.12867" lon="5.61744">
        <ele>1554.5</ele>
      </trkpt>
      <trkpt lat="45.12856" lon="5.61739">
        <ele>1550.9</ele>
      </trkpt>
      <trkpt lat="45.12842" lon="5.61727">
        <ele>1544.4</ele>
      </trkpt>
      <trkpt lat="45.12823" lon="5.61727">
        <ele>1540.2</ele>
      </trkpt>
      <trkpt lat="45.12816" lon="5.6173">
        <ele>1539.5</ele>
      </trkpt>
      <trkpt lat="45.12795" lon="5.61728">
        <ele>1535.1</ele>
      </trkpt>
      <trkpt lat="45.1279" lon="5.61731">
        <ele>1534.6</ele>
      </trkpt>
      <trkpt lat="45.12777" lon="5.61733">
        <ele>1532.4</ele>
      </trkpt>
      <trkpt lat="45.12773" lon="5.61729">
        <ele>1531.2</ele>
      </trkpt>
      <trkpt lat="45.12766" lon="5.6173">
        <ele>1530.3</ele>
      </trkpt>
      <trkpt lat="45.12754" lon="5.61743">
        <ele>1529.9</ele>
      </trkpt>
      <trkpt lat="45.12744" lon="5.61751">
        <ele>1528.6</ele>
      </trkpt>
      <trkpt lat="45.12709" lon="5.61747">
        <ele>1520.1</ele>
      </trkpt>
      <trkpt lat="45.12697" lon="5.61742">
        <ele>1517.6</ele>
      </trkpt>
      <trkpt lat="45.12684" lon="5.61743">
        <ele>1514.3</ele>
      </trkpt>
      <trkpt lat="45.12675" lon="5.6174">
        <ele>1511.8</ele>
      </trkpt>
      <trkpt lat="45.12667" lon="5.61743">
        <ele>1509.8</ele>
      </trkpt>
      <trkpt lat="45.12642" lon="5.61738">
        <ele>1502.6</ele>
      </trkpt>
      <trkpt lat="45.1263" lon="5.6174">
        <ele>1499.4</ele>
      </trkpt>
      <trkpt lat="45.12619" lon="5.61739">
        <ele>1496.2</ele>
      </trkpt>
      <trkpt lat="45.12612" lon="5.61745">
        <ele>1495.3</ele>
      </trkpt>
      <trkpt lat="45.12603" lon="5.61738">
        <ele>1491.7</ele>
      </trkpt>
      <trkpt lat="45.12571" lon="5.61739">
        <ele>1483.5</ele>
      </trkpt>
      <trkpt lat="45.12562" lon="5.61738">
        <ele>1481</ele>
      </trkpt>
      <trkpt lat="45.12554" lon="5.61739">
        <ele>1479.3</ele>
      </trkpt>
      <trkpt lat="45.12545" lon="5.61731">
        <ele>1476</ele>
      </trkpt>
      <trkpt lat="45.12535" lon="5.61722">
        <ele>1472.2</ele>
      </trkpt>
      <trkpt lat="45.12512" lon="5.61683">
        <ele>1462</ele>
      </trkpt>
      <trkpt lat="45.12502" lon="5.61677">
        <ele>1460.3</ele>
      </trkpt>
      <trkpt lat="45.12497" lon="5.61679">
        <ele>1460.7</ele>
      </trkpt>
      <trkpt lat="45.12492" lon="5.61678">
        <ele>1460.5</ele>
      </trkpt>
      <trkpt lat="45.12487" lon="5.61671">
        <ele>1459.3</ele>
      </trkpt>
      <trkpt lat="45.12484" lon="5.61658">
        <ele>1457.2</ele>
      </trkpt>
      <trkpt lat="45.12482" lon="5.61651">
        <ele>1456.2</ele>
      </trkpt>
      <trkpt lat="45.12468" lon="5.61636">
        <ele>1455.1</ele>
      </trkpt>
      <trkpt lat="45.12463" lon="5.61635">
        <ele>1455.5</ele>
      </trkpt>
      <trkpt lat="45.12441" lon="5.6164">
        <ele>1458.2</ele>
      </trkpt>
      <trkpt lat="45.12435" lon="5.61637">
        <ele>1458.2</ele>
      </trkpt>
      <trkpt lat="45.12409" lon="5.61615">
        <ele>1457.2</ele>
      </trkpt>
      <trkpt lat="45.1239" lon="5.61609">
        <ele>1456.8</ele>
      </trkpt>
      <trkpt lat="45.12378" lon="5.616">
        <ele>1455.8</ele>
      </trkpt>
      <trkpt lat="45.12324" lon="5.61588">
        <ele>1451.4</ele>
      </trkpt>
      <trkpt lat="45.12305" lon="5.61581">
        <ele>1448.6</ele>
      </trkpt>
      <trkpt lat="45.12285" lon="5.61578">
        <ele>1445.9</ele>
      </trkpt>
      <trkpt lat="45.1226" lon="5.61584">
        <ele>1445.5</ele>
      </trkpt>
      <trkpt lat="45.12255" lon="5.61583">
        <ele>1445.1</ele>
      </trkpt>
      <trkpt lat="45.12232" lon="5.61566">
        <ele>1443.2</ele>
      </trkpt>
      <trkpt lat="45.12229" lon="5.61568">
        <ele>1443.5</ele>
      </trkpt>
      <trkpt lat="45.12224" lon="5.61573">
        <ele>1444.4</ele>
      </trkpt>
      <trkpt lat="45.12213" lon="5.61565">
        <ele>1443.6</ele>
      </trkpt>
      <trkpt lat="45.1217" lon="5.61555">
        <ele>1441.2</ele>
      </trkpt>
      <trkpt lat="45.12158" lon="5.61547">
        <ele>1440.4</ele>
      </trkpt>
      <trkpt lat="45.12143" lon="5.61531">
        <ele>1437.9</ele>
      </trkpt>
      <trkpt lat="45.12132" lon="5.615">
        <ele>1434.5</ele>
      </trkpt>
      <trkpt lat="45.1212" lon="5.61484">
        <ele>1431.3</ele>
      </trkpt>
      <trkpt lat="45.12093" lon="5.61454">
        <ele>1424.6</ele>
      </trkpt>
      <trkpt lat="45.12079" lon="5.61442">
        <ele>1421.5</ele>
      </trkpt>
      <trkpt lat="45.12071" lon="5.61439">
        <ele>1420.7</ele>
      </trkpt>
      <trkpt lat="45.12042" lon="5.61435">
        <ele>1420.3</ele>
      </trkpt>
      <trkpt lat="45.12035" lon="5.61427">
        <ele>1418.8</ele>
      </trkpt>
      <trkpt lat="45.12033" lon="5.61422">
        <ele>1417.8</ele>
      </trkpt>
      <trkpt lat="45.12034" lon="5.61415">
        <ele>1416.1</ele>
      </trkpt>
      <trkpt lat="45.12043" lon="5.61396">
        <ele>1410.8</ele>
      </trkpt>
      <trkpt lat="45.12046" lon="5.61384">
        <ele>1408.1</ele>
      </trkpt>
      <trkpt lat="45.12045" lon="5.61367">
        <ele>1404.9</ele>
      </trkpt>
      <trkpt lat="45.1204" lon="5.61339">
        <ele>1400.2</ele>
      </trkpt>
      <trkpt lat="45.12037" lon="5.61305">
        <ele>1395.6</ele>
      </trkpt>
      <trkpt lat="45.12033" lon="5.61292">
        <ele>1393.8</ele>
      </trkpt>
      <trkpt lat="45.12022" lon="5.61263">
        <ele>1390.4</ele>
      </trkpt>
      <trkpt lat="45.1201" lon="5.61206">
        <ele>1380.5</ele>
      </trkpt>
      <trkpt lat="45.12" lon="5.61172">
        <ele>1376.2</ele>
      </trkpt>
      <trkpt lat="45.11996" lon="5.61165">
        <ele>1375.9</ele>
      </trkpt>
      <trkpt lat="45.11952" lon="5.61116">
        <ele>1376.1</ele>
      </trkpt>
      <trkpt lat="45.11934" lon="5.61093">
        <ele>1373.9</ele>
      </trkpt>
      <trkpt lat="45.11931" lon="5.61089">
        <ele>1373.4</ele>
      </trkpt>
      <trkpt lat="45.11895" lon="5.61041">
        <ele>1367.6</ele>
      </trkpt>
      <trkpt lat="45.11885" lon="5.61034">
        <ele>1367.5</ele>
      </trkpt>
      <trkpt lat="45.11847" lon="5.61026">
        <ele>1371.1</ele>
      </trkpt>
      <trkpt lat="45.11837" lon="5.61023">
        <ele>1371.4</ele>
      </trkpt>
      <trkpt lat="45.11832" lon="5.61022">
        <ele>1371.6</ele>
      </trkpt>
      <trkpt lat="45.11823" lon="5.61021">
        <ele>1372.1</ele>
      </trkpt>
      <trkpt lat="45.11779" lon="5.61015">
        <ele>1374.6</ele>
      </trkpt>
      <trkpt lat="45.11727" lon="5.61009">
        <ele>1378.7</ele>
      </trkpt>
      <trkpt lat="45.11702" lon="5.60997">
        <ele>1380.5</ele>
      </trkpt>
      <trkpt lat="45.1169" lon="5.61019">
        <ele>1384.7</ele>
      </trkpt>
      <trkpt lat="45.11677" lon="5.61018">
        <ele>1386.5</ele>
      </trkpt>
      <trkpt lat="45.11655" lon="5.61009">
        <ele>1388.9</ele>
      </trkpt>
      <trkpt lat="45.11649" lon="5.60999">
        <ele>1389.1</ele>
      </trkpt>
      <trkpt lat="45.11629" lon="5.6097">
        <ele>1390.6</ele>
      </trkpt>
      <trkpt lat="45.11626" lon="5.60958">
        <ele>1390.5</ele>
      </trkpt>
      <trkpt lat="45.11614" lon="5.60908">
        <ele>1390.8</ele>
      </trkpt>
      <trkpt lat="45.11612" lon="5.60909">
        <ele>1391.3</ele>
      </trkpt>
      <trkpt lat="45.11606" lon="5.6091">
        <ele>1392.4</ele>
      </trkpt>
      <trkpt lat="45.11598" lon="5.60902">
        <ele>1393.3</ele>
      </trkpt>
      <trkpt lat="45.11592" lon="5.60887">
        <ele>1393.3</ele>
      </trkpt>
      <trkpt lat="45.11579" lon="5.60875">
        <ele>1394.7</ele>
      </trkpt>
      <trkpt lat="45.11557" lon="5.60844">
        <ele>1394.9</ele>
      </trkpt>
      <trkpt lat="45.11533" lon="5.60824">
        <ele>1397.1</ele>
      </trkpt>
      <trkpt lat="45.11508" lon="5.60808">
        <ele>1399.1</ele>
      </trkpt>
      <trkpt lat="45.11464" lon="5.6079">
        <ele>1401.6</ele>
      </trkpt>
      <trkpt lat="45.11418" lon="5.60781">
        <ele>1403.4</ele>
      </trkpt>
      <trkpt lat="45.11387" lon="5.60789">
        <ele>1405</ele>
      </trkpt>
      <trkpt lat="45.11355" lon="5.60801">
        <ele>1405.9</ele>
      </trkpt>
      <trkpt lat="45.11338" lon="5.6083">
        <ele>1408</ele>
      </trkpt>
      <trkpt lat="45.11321" lon="5.6086">
        <ele>1409.6</ele>
      </trkpt>
      <trkpt lat="45.11308" lon="5.60872">
        <ele>1409.4</ele>
      </trkpt>
      <trkpt lat="45.11296" lon="5.60883">
        <ele>1409.4</ele>
      </trkpt>
      <trkpt lat="45.11282" lon="5.60896">
        <ele>1409.2</ele>
      </trkpt>
      <trkpt lat="45.11279" lon="5.60898">
        <ele>1409.1</ele>
        <extensions>
          <visugpx:TrkExtension xmlns:visugpx="https://www.visugpx.com/editgpx/">
            <visugpx:node>61</visugpx:node>
            </visugpx:TrkExtension>
        </extensions>
      </trkpt>
    </trkseg>
  </trk>
</gpx>